[[{"header":{"parameterUnit":"m.s-1","parameterCategory":1,"la1":31.0,"la2":29.5877,"lo1":-88.7671,"lo2":-86.6584,"dy":0.0162,"dx":0.0185,"nx":115,"ny":88,"refTime":"2023-07-16T06:00:00:Z","depth":0,"parameterNumber":2,"parameterNumberName":"U-component_of_WINDS"},"data":[0.0,0.0,0.0,0.0,0.0,0.0,0.0,0.0,0.0,0.0,0.0,0.0,0.0,0.0,0.0,0.0,0.0,0.0,0.0,0.0,0.0,0.0,0.0,0.0,0.0,0.0,0.0,0.0,0.0,0.0,0.0,0.0,0.0,0.0,0.0,0.0,0.0,0.0,0.0,0.0,0.0,0.0,0.0,0.0,0.0,0.0,0.0,0.0,0.0,0.0,0.0,0.0,0.0,0.0,0.0,0.0,0.0,0.0,0.0,0.0,0.0,0.0,0.0,0.0,0.0,0.0,0.0,0.0,0.0,0.0,0.0,0.0,0.0,0.0,0.0,0.0,0.0,0.0,0.0,0.0,0.0,0.0,0.0,0.0,0.0,0.0,0.0,0.0,0.0,0.0,0.0,0.0,0.0,0.0,0.0,0.0,0.0,0.0,0.0,0.0,0.0,0.0,0.0,0.0,0.0,0.0,0.0,0.0,0.0,0.0,0.0,0.0,0.0,0.0,0.0,0.0,0.0,0.0,0.0,0.0,0.0,0.0,0.0,0.0,0.0,0.0,0.0,0.0,0.0,0.0,0.0,0.0,0.0,0.0,0.0,0.0,0.0,0.0,0.0,0.0,0.0,0.0,0.0,0.0,0.0,0.0,0.0,0.0,0.0,0.0,0.0,0.0,0.0,0.0,0.0,0.0,0.0,0.0,0.0,0.0,0.0,0.0,0.0,0.0,0.0,0.0,0.0,0.0,0.0,0.0,0.0,0.0,0.0,0.0,0.0,0.0,0.0,0.0,0.0,0.0,0.0,0.0,0.0,0.0,0.0,0.0,0.0,0.0,0.0,0.0,0.0,0.0,0.0,0.0,0.0,0.0,0.0,0.0,0.0,0.0,0.0,0.0,0.0,0.0,0.0,0.0,0.0,0.0,0.0,0.0,0.0,0.0,0.0,0.0,0.0,0.0,0.0,0.0,0.0,0.0,0.0,0.0,0.0,0.0,0.0,0.0,0.0,0.0,0.0,0.0,0.0,0.0,0.0,0.0,0.0,0.0,0.0,0.0,0.0,0.0,0.0,0.0,0.0,0.0,0.0,0.0,0.0,0.0,0.0,0.0,0.0,0.0,0.0,0.0,0.0,0.0,0.0,0.0,0.0,0.0,0.0,0.0,0.0,0.0,0.0,0.0,0.0,0.0,0.0,0.0,0.0,0.0,0.0,0.0,0.0,0.0,0.0,0.0,0.0,0.0,0.0,0.0,0.0,0.0,0.0,0.0,0.0,0.0,0.0,0.0,0.0,0.0,0.0,0.0,0.0,0.0,0.0,0.0,0.0,0.0,0.0,0.0,0.0,0.0,0.0,0.0,0.0,0.0,0.0,0.0,0.0,0.0,0.0,0.0,0.0,0.0,0.0,0.0,0.0,0.0,0.0,0.0,0.0,0.0,0.0,0.0,0.0,0.0,0.0,0.0,0.0,0.0,0.0,0.0,0.0,0.0,0.0,0.0,0.0,0.0,0.0,0.0,0.0,0.0,0.0,0.0,0.0,0.0,0.0,0.0,0.0,0.0,0.0,0.0,0.0,0.0,0.0,0.0,0.0,0.0,0.0,0.0,0.0,0.0,0.0,0.0,0.0,0.0,0.0,0.0,0.0,0.0,0.0,0.0,0.0,0.0,0.0,0.0,0.0,0.0,0.0,0.0,0.0,0.0,0.0,0.0,0.0,0.0,0.0,0.0,0.0,0.0,0.0,0.0,0.0,0.0,0.0,0.0,0.0,0.0,0.0,0.0,0.0,0.0,0.0,0.0,0.0,0.0,0.0,0.0,0.0,0.0,0.0,0.0,0.0,0.0,0.0,0.0,0.0,0.0,0.0,0.0,0.0,0.0,0.0,0.0,0.0,0.0,0.0,0.0,0.0,0.0,0.0,0.0,0.0,0.0,0.0,0.0,0.0,0.0,0.0,0.0,0.0,0.0,0.0,0.0,0.0,0.0,0.0,0.0,0.0,0.0,0.0,0.0,0.0,0.0,0.0,0.0,0.0,0.0,0.0,0.0,0.0,0.0,0.0,0.0,0.0,0.0,0.0,0.0,0.0,0.0,0.0,0.0,0.0,0.0,0.0,0.0,0.0,0.0,0.0,0.0,0.0,0.0,0.0,0.0,0.0,0.0,0.0,0.0,0.0,0.0,0.0,0.0,0.0,0.0,0.0,0.0,0.0,0.0,0.0,0.0,0.0,0.0,0.0,0.0,0.0,0.0,0.0,0.0,0.0,0.0,0.0,0.0,0.0,0.0,0.0,0.0,0.0,0.0,0.0,0.0,0.0,0.0,0.0,0.0,0.0,0.0,0.0,0.0,0.0,0.0,0.0,0.0,0.0,0.0,0.0,0.0,0.0,0.0,0.0,0.0,0.0,0.0,0.0,0.0,0.0,0.0,0.0,0.0,0.0,0.0,0.0,0.0,0.0,0.0,0.0,0.0,0.0,0.0,0.0,0.0,0.0,0.0,0.0,0.0,0.0,0.0,0.0,0.0,0.0,0.0,0.0,0.0,0.0,0.0,0.0,0.0,0.0,0.0,0.0,0.0,0.0,0.0,0.0,0.0,0.0,0.0,0.0,0.0,0.0,0.0,0.0,0.0,0.0,0.0,0.0,0.0,0.0,0.0,0.0,0.0,0.0,0.0,0.0,0.0,0.0,0.0,0.0,0.0,0.0,0.0,0.0,0.0,0.0,0.0,0.0,0.0,0.0,0.0,0.0,0.0,0.0,0.0,0.0,0.0,0.0,0.0,0.0,0.0,0.0,0.0,0.0,0.0,0.0,0.0,0.0,0.0,0.0,0.0,0.0,0.0,0.0,0.0,0.0,0.0,0.0,0.0,0.0,0.0,0.0,0.0,0.0,0.0,0.0,0.0,0.0,0.0,0.0,0.0,0.0,0.0,0.0,0.0,0.0,0.0,0.0,0.0,0.0,0.0,0.0,0.0,0.0,0.0,0.0,0.0,0.0,0.0,0.0,0.0,0.0,0.0,0.0,0.0,0.0,0.0,0.0,0.0,0.0,0.0,0.0,0.0,0.0,0.0,0.0,0.0,0.0,0.0,0.0,0.0,0.0,0.0,0.0,0.0,0.0,0.0,0.0,0.0,0.0,0.0,0.0,0.0,0.0,0.0,0.0,0.0,0.0,0.0,0.0,0.0,0.0,0.0,0.0,0.0,0.0,0.0,0.0,0.0,0.0,0.0,0.0,0.0,0.0,0.0,0.0,0.0,0.0,0.0,0.0,0.0,0.0,0.0,0.0,0.0,0.0,0.0,0.0,0.0,0.0,0.0,0.0,0.0,0.0,0.0,0.0,0.0,0.0,0.0,0.0,0.0,0.0,0.0,0.0,0.0,0.0,0.0,0.0,0.0,0.0,0.0,0.0,0.0,0.0,0.0,0.0,0.0,0.0,0.0,0.0,0.0,0.0,0.0,0.0,0.0,0.0,0.0,0.0,0.0,0.0,0.0,0.0,0.0,0.0,0.0,0.0,0.0,0.0,0.0,0.0,0.0,0.0,0.0,0.0,0.0,0.0,0.0,0.0,0.0,0.0,0.0,0.0,0.0,0.0,0.0,0.0,0.0,0.0,0.0,0.0,0.0,0.0,0.0,0.0,0.0,0.0,0.0,0.0,0.0,0.0,0.0,0.0,0.0,0.0,0.0,0.0,0.0,0.0,0.0,0.0,0.0,0.0,0.0,0.0,0.0,0.0,0.0,0.0,0.0,0.0,0.0,0.0,0.0,0.0,0.0,0.0,0.0,0.0,0.0,0.0,0.0,0.0,0.0,0.0,0.0,0.0,0.0,0.0,0.0,0.0,0.0,0.0,0.0,0.0,0.0,0.0,0.0,0.0,0.0,0.0,0.0,0.0,0.0,0.0,0.0,0.0,0.0,0.0,0.0,0.0,0.0,0.0,0.0,0.0,0.0,0.0,0.0,0.0,0.0,0.0,0.0,0.0,0.0,0.0,0.0,0.0,0.0,0.0,0.0,0.0,0.0,0.0,0.0,0.0,0.0,0.0,0.0,0.0,0.0,0.0,0.0,0.0,0.0,0.0,0.0,0.0,0.0,0.0,0.0,0.0,0.0,0.0,0.0,0.0,0.0,0.0,0.0,0.0,0.0,0.0,0.0,0.0,0.0,0.0,0.0,0.0,0.0,0.0,0.0,0.0,0.0,0.0,0.0,0.0,0.0,0.0,0.0,0.0,0.0,0.0,0.0,0.0,0.0,0.0,0.0,0.0,0.0,-1.0786,0.0,0.0,0.0,0.0,0.0,0.0,0.0,0.0,0.0,0.0,0.0,0.0,0.0,0.0,0.0,0.0,0.0,0.0,0.0,0.0,0.0,0.0,0.0,0.0,0.0,0.0,0.0,0.0,0.0,0.0,0.0,0.0,0.0,0.0,0.0,0.0,0.0,0.0,0.0,0.0,0.0,0.0,0.0,0.0,0.0,0.0,0.0,0.0,0.0,0.0,0.0,0.0,0.0,0.0,0.0,0.0,0.0,0.0,0.0,0.0,0.0,0.0,0.0,0.0,0.0,0.0,0.0,0.0,0.0,0.0,0.0,0.0,0.0,0.0,0.0,0.0,0.0,0.0,0.0,0.0,0.0,0.0,0.0,0.0,0.0,0.0,0.0,0.0,0.0,0.0,0.0,0.0,0.0,0.0,0.0,0.0,0.0,0.0,0.0,0.0,0.0,0.0,0.0,0.0,0.0,0.0,0.0,0.0,0.0,0.0,-0.8611,-1.0585,-1.1289,-1.149,-1.1095,0.0,0.0,0.0,0.0,0.0,0.0,0.0,0.0,0.0,0.0,0.0,0.0,0.0,0.0,0.0,0.0,0.0,0.0,0.0,0.0,0.0,0.0,0.0,0.0,0.0,0.0,0.0,0.0,0.0,0.0,0.0,0.0,0.0,0.0,0.0,0.0,0.0,0.0,0.0,0.0,0.0,0.0,0.0,0.0,0.0,0.0,0.0,0.0,0.0,0.0,0.0,0.0,0.0,0.0,0.0,0.0,0.0,0.0,0.0,0.0,0.0,0.0,0.0,0.0,0.0,0.0,0.0,0.0,0.0,0.0,0.0,0.0,0.0,0.0,0.0,0.0,0.0,0.0,0.0,0.0,0.0,0.0,0.0,0.0,0.0,0.0,0.0,0.0,0.0,0.0,0.0,0.0,0.0,0.0,0.0,0.0,0.0,0.0,0.0,0.0,0.0,0.0,0.0,0.0,0.0,0.0,0.0,0.0,0.0,0.0,0.0,0.0,-1.3698,-1.2768,-1.1088,0.0,0.0,0.0,0.0,0.0,0.0,0.0,0.0,0.0,0.0,0.0,0.0,0.0,0.0,0.0,0.0,0.0,0.0,0.0,0.0,0.0,0.0,0.0,0.0,0.0,0.0,0.0,0.0,0.0,0.0,0.0,0.0,0.0,0.0,0.0,0.0,0.0,0.0,0.0,0.0,0.0,0.0,0.0,0.0,0.0,0.0,0.0,0.0,0.0,0.0,0.0,0.0,0.0,0.0,0.0,0.0,0.0,0.0,0.0,0.0,0.0,0.0,0.0,0.0,0.0,0.0,0.0,0.0,0.0,0.0,0.0,0.0,0.0,0.0,0.0,0.0,0.0,0.0,0.0,0.0,0.0,0.0,0.0,0.0,0.0,0.0,0.0,0.0,0.0,0.0,0.0,0.0,0.0,0.0,0.0,0.0,0.0,0.0,0.0,0.0,0.0,0.0,0.0,0.0,0.0,0.0,0.0,0.0,0.0,0.0,-1.7879,-1.9202,-1.7124,0.0,-1.1404,0.0,0.0,0.0,0.0,0.0,0.0,0.0,0.0,0.0,0.0,0.0,0.0,0.0,0.0,0.0,0.0,0.0,0.0,0.0,0.0,0.0,0.0,0.0,0.0,0.0,0.0,0.0,0.0,0.0,0.0,0.0,0.0,0.0,0.0,0.0,0.0,0.0,0.0,0.0,0.0,0.0,0.0,0.0,0.0,0.0,0.0,0.0,0.0,0.0,0.0,0.0,0.0,0.0,0.0,0.0,0.0,0.0,0.0,0.0,0.0,0.0,0.0,0.0,0.0,0.0,0.0,0.0,0.0,0.0,0.0,0.0,0.0,0.0,0.0,0.0,0.0,0.0,0.0,0.0,0.0,0.0,0.0,0.0,0.0,0.0,0.0,0.0,0.0,0.0,0.0,0.0,0.0,0.0,0.0,0.0,0.0,0.0,0.0,0.0,0.0,0.0,0.0,0.0,0.0,0.0,0.0,0.0,0.0,0.0,0.0,-1.9902,-2.1537,-1.8563,-1.5378,0.0,0.0,0.0,0.0,0.0,0.0,0.0,0.0,0.0,0.0,0.0,0.0,0.0,0.0,0.0,0.0,0.0,0.0,0.0,0.0,0.0,0.0,0.0,0.0,0.0,0.0,0.0,0.0,0.0,0.0,0.0,0.0,0.0,0.0,0.0,0.0,0.0,0.0,0.0,0.0,0.0,0.0,0.0,0.0,0.0,0.0,0.0,0.0,0.0,0.0,0.0,0.0,0.0,0.0,0.0,0.0,0.0,0.0,0.0,0.0,0.0,0.0,0.0,0.0,0.0,0.0,0.0,0.0,0.0,0.0,0.0,0.0,0.0,0.0,0.0,0.0,0.0,0.0,0.0,0.0,0.0,0.0,0.0,0.0,0.0,0.0,0.0,0.0,0.0,0.0,0.0,0.0,0.0,0.0,0.0,0.0,0.0,0.0,0.0,0.0,0.0,0.0,0.0,0.0,0.0,0.0,0.0,0.0,0.0,0.0,-2.2309,-2.2207,-2.3188,-2.0041,-1.6849,-1.3873,0.0,0.0,0.0,0.0,0.0,0.0,0.0,0.0,0.0,0.0,0.0,0.0,0.0,0.0,0.0,0.0,0.0,0.0,0.0,0.0,0.0,0.0,0.0,0.0,0.0,0.0,0.0,0.0,0.0,0.0,0.0,0.0,0.0,0.0,0.0,0.0,0.0,0.0,0.0,0.0,0.0,0.0,0.0,0.0,0.0,0.0,0.0,0.0,0.0,0.0,0.0,0.0,0.0,0.0,0.0,0.0,0.0,0.0,0.0,0.0,0.0,0.0,0.0,0.0,0.0,0.0,0.0,0.0,0.0,0.0,0.0,0.0,0.0,0.0,0.0,0.0,0.0,0.0,0.0,0.0,0.0,0.0,0.0,0.0,0.0,0.0,0.0,0.0,0.0,0.0,0.0,0.0,0.0,0.0,0.0,0.0,0.0,0.0,0.0,0.0,0.0,0.0,0.0,0.0,0.0,0.0,0.0,0.0,-2.8641,-2.6984,-2.571,-2.5065,-2.2204,-1.9148,0.0,0.0,0.0,0.0,0.0,0.0,0.0,0.0,0.0,0.0,0.0,0.0,0.0,0.0,0.0,0.0,0.0,0.0,0.0,0.0,0.0,0.0,0.0,0.0,0.0,0.0,0.0,0.0,0.0,0.0,0.0,0.0,0.0,0.0,0.0,0.0,0.0,0.0,0.0,0.0,0.0,0.0,0.0,0.0,0.0,0.0,0.0,0.0,0.0,0.0,0.0,0.0,0.0,0.0,0.0,0.0,0.0,0.0,0.0,0.0,0.0,0.0,0.0,0.0,0.0,0.0,0.0,0.0,0.0,0.0,0.0,0.0,0.0,0.0,0.0,0.0,0.0,0.0,0.0,0.0,0.0,0.0,0.0,0.0,0.0,0.0,0.0,0.0,0.0,0.0,0.0,0.0,0.0,0.0,0.0,0.0,0.0,0.0,0.0,0.0,0.0,0.0,0.0,0.0,0.0,0.0,0.0,0.0,0.0,-2.7145,-2.7465,-2.745,-2.7035,-2.4076,-2.1368,0.0,0.0,0.0,0.0,0.0,0.0,0.0,0.0,0.0,0.0,0.0,0.0,0.0,0.0,0.0,0.0,0.0,0.0,0.0,0.0,0.0,0.0,0.0,0.0,0.0,0.0,0.0,0.0,0.0,0.0,0.0,0.0,0.0,0.0,0.0,0.0,0.0,0.0,0.0,0.0,0.0,0.0,0.0,0.0,0.0,0.0,0.0,0.0,0.0,0.0,0.0,0.0,0.0,0.0,0.0,0.0,0.0,0.0,0.0,0.0,0.0,0.0,0.0,0.0,0.0,0.0,0.0,0.0,0.0,0.0,0.0,0.0,0.0,0.0,0.0,0.0,0.0,0.0,0.0,0.0,0.0,0.0,0.0,0.0,0.0,0.0,0.0,0.0,0.0,0.0,0.0,0.0,0.0,0.0,0.0,0.0,0.0,0.0,0.0,0.0,0.0,0.0,0.0,0.0,0.0,0.0,0.0,0.0,0.0,-2.8129,0.0,-3.0303,-2.8964,-2.6078,-2.327,0.0,0.0,0.0,0.0,0.0,0.0,0.0,0.0,0.0,0.0,0.0,0.0,0.0,0.0,0.0,0.0,0.0,0.0,0.0,0.0,0.0,0.0,0.0,0.0,0.0,0.0,0.0,0.0,0.0,0.0,0.0,0.0,0.0,0.0,0.0,0.0,0.0,0.0,0.0,0.0,0.0,0.0,0.0,0.0,0.0,0.0,0.0,0.0,0.0,0.0,0.0,0.0,0.0,0.0,0.0,0.0,0.0,0.0,0.0,0.0,0.0,0.0,0.0,0.0,0.0,0.0,0.0,0.0,0.0,0.0,0.0,0.0,0.0,0.0,0.0,0.0,0.0,0.0,0.0,0.0,0.0,0.0,0.0,0.0,0.0,0.0,0.0,0.0,0.0,0.0,0.0,0.0,0.0,0.0,0.0,0.0,0.0,0.0,0.0,0.0,0.0,0.0,0.0,0.0,0.0,0.0,0.0,0.0,-2.8697,-3.2179,-3.4617,-3.4007,-3.0697,-2.8169,-2.4888,0.0,0.0,0.0,0.0,0.0,0.0,0.0,0.0,0.0,0.0,0.0,0.0,0.0,0.0,0.0,0.0,0.0,0.0,0.0,0.0,0.0,0.0,0.0,0.0,0.0,0.0,0.0,0.0,0.0,0.0,0.0,0.0,0.0,0.0,0.0,0.0,0.0,0.0,0.0,0.0,0.0,0.0,0.0,0.0,0.0,0.0,0.0,0.0,0.0,0.0,0.0,0.0,0.0,0.0,0.0,0.0,0.0,0.0,0.0,0.0,0.0,0.0,0.0,0.0,0.0,0.0,0.0,0.0,0.0,0.0,0.0,0.0,0.0,0.0,0.0,0.0,0.0,0.0,0.0,0.0,0.0,0.0,0.0,0.0,0.0,0.0,0.0,0.0,0.0,0.0,0.0,0.0,0.0,0.0,0.0,0.0,0.0,0.0,0.0,0.0,0.0,0.0,0.0,0.0,0.0,0.0,0.0,0.0,0.0,-3.038,-3.2169,-3.2595,-3.1377,-2.8137,-2.552,0.0,0.0,0.0,0.0,0.0,0.0,0.0,0.0,0.0,0.0,0.0,0.0,0.0,0.0,0.0,0.0,0.0,0.0,0.0,0.0,0.0,0.0,0.0,0.0,0.0,0.0,0.0,0.0,0.0,0.0,0.0,0.0,0.0,0.0,0.0,0.0,0.0,0.0,0.0,0.0,0.0,0.0,0.0,0.0,0.0,0.0,0.0,0.0,0.0,0.0,0.0,0.0,0.0,0.0,0.0,0.0,0.0,0.0,0.0,0.0,0.0,0.0,0.0,0.0,0.0,0.0,0.0,0.0,0.0,0.0,0.0,0.0,0.0,0.0,0.0,0.0,0.0,0.0,0.0,0.0,0.0,0.0,0.0,0.0,0.0,0.0,0.0,0.0,0.0,0.0,0.0,0.0,0.0,0.0,0.0,0.0,0.0,0.0,0.0,0.0,0.0,0.0,0.0,0.0,0.0,0.0,0.0,0.0,0.0,-3.0533,-3.2148,-3.2643,-3.1789,-2.8763,-2.6208,-2.4197,0.0,0.0,0.0,0.0,0.0,0.0,0.0,0.0,0.0,0.0,0.0,0.0,0.0,0.0,0.0,0.0,0.0,0.0,0.0,0.0,0.0,0.0,0.0,0.0,0.0,0.0,0.0,0.0,0.0,0.0,0.0,0.0,0.0,0.0,0.0,0.0,0.0,0.0,0.0,0.0,0.0,0.0,0.0,0.0,0.0,0.0,0.0,0.0,0.0,0.0,0.0,0.0,0.0,0.0,0.0,0.0,0.0,0.0,0.0,0.0,0.0,0.0,0.0,0.0,0.0,0.0,0.0,0.0,0.0,0.0,0.0,0.0,0.0,0.0,0.0,0.0,0.0,0.0,0.0,0.0,0.0,0.0,0.0,0.0,0.0,0.0,0.0,0.0,0.0,0.0,0.0,0.0,0.0,0.0,0.0,0.0,0.0,0.0,0.0,0.0,0.0,0.0,0.0,0.0,0.0,0.0,0.0,0.0,-3.2074,-3.4015,-3.3874,-3.1711,-2.9793,-2.6945,0.0,0.0,0.0,0.0,0.0,0.0,0.0,0.0,0.0,0.0,0.0,0.0,0.0,0.0,0.0,0.0,0.0,0.0,0.0,0.0,0.0,0.0,0.0,0.0,0.0,0.0,0.0,0.0,0.0,0.0,0.0,0.0,0.0,0.0,0.0,0.0,0.0,0.0,0.0,0.0,0.0,0.0,0.0,0.0,0.0,0.0,0.0,0.0,0.0,0.0,0.0,0.0,0.0,0.0,0.0,0.0,0.0,0.0,0.0,0.0,0.0,0.0,0.0,0.0,0.0,0.0,0.0,0.0,0.0,0.0,0.0,0.0,0.0,0.0,0.0,0.0,0.0,0.0,0.0,0.0,0.0,0.0,0.0,0.0,0.0,0.0,0.0,0.0,0.0,0.0,0.0,0.0,0.0,0.0,0.0,0.0,0.0,0.0,0.0,0.0,0.0,0.0,0.0,0.0,0.0,0.0,0.0,0.0,0.0,-3.2774,-3.2122,-3.1589,-3.1273,-2.8984,-2.6539,0.0,0.0,0.0,0.0,0.0,0.0,0.0,0.0,0.0,0.0,0.0,0.0,0.0,0.0,0.0,0.0,0.0,0.0,0.0,0.0,0.0,0.0,0.0,0.0,0.0,0.0,0.0,0.0,0.0,0.0,0.0,0.0,0.0,0.0,0.0,0.0,0.0,0.0,0.0,0.0,0.0,0.0,0.0,0.0,0.0,0.0,0.0,0.0,0.0,0.0,0.0,0.0,0.0,0.0,0.0,0.0,0.0,0.0,0.0,0.0,0.0,0.0,0.0,0.0,0.0,0.0,0.0,0.0,0.0,0.0,0.0,0.0,0.0,0.0,0.0,0.0,0.0,0.0,0.0,0.0,0.0,0.0,0.0,0.0,0.0,0.0,0.0,0.0,0.0,0.0,0.0,0.0,0.0,0.0,0.0,0.0,0.0,0.0,0.0,0.0,0.0,0.0,0.0,0.0,0.0,0.0,0.0,0.0,-3.1561,-3.2227,-3.131,-3.0494,-2.986,-2.8044,-2.6009,0.0,0.0,0.0,0.0,0.0,0.0,0.0,0.0,0.0,0.0,0.0,0.0,0.0,0.0,0.0,0.0,0.0,0.0,0.0,0.0,0.0,0.0,0.0,0.0,0.0,0.0,0.0,0.0,0.0,0.0,0.0,0.0,0.0,0.0,0.0,0.0,0.0,0.0,0.0,0.0,0.0,0.0,0.0,0.0,0.0,0.0,0.0,0.0,0.0,0.0,0.0,0.0,0.0,0.0,0.0,0.0,0.0,0.0,0.0,0.0,0.0,0.0,0.0,0.0,0.0,0.0,0.0,0.0,0.0,0.0,0.0,0.0,0.0,0.0,0.0,0.0,0.0,0.0,0.0,0.0,0.0,0.0,0.0,0.0,0.0,0.0,0.0,0.0,0.0,0.0,0.0,0.0,0.0,0.0,0.0,0.0,0.0,0.0,0.0,0.0,0.0,0.0,0.0,0.0,0.0,0.0,0.0,0.0,-3.159,-3.1014,-3.1051,-3.0036,-2.7956,-2.705,-2.5461,0.0,0.0,0.0,0.0,0.0,0.0,0.0,0.0,0.0,0.0,0.0,0.0,0.0,0.0,0.0,0.0,0.0,0.0,0.0,0.0,0.0,0.0,0.0,0.0,0.0,0.0,0.0,0.0,0.0,0.0,0.0,0.0,0.0,0.0,0.0,0.0,0.0,0.0,0.0,0.0,0.0,0.0,0.0,0.0,0.0,0.0,0.0,0.0,0.0,0.0,0.0,0.0,0.0,0.0,0.0,0.0,0.0,0.0,0.0,0.0,0.0,0.0,0.0,0.0,0.0,0.0,0.0,0.0,0.0,0.0,0.0,0.0,0.0,0.0,0.0,0.0,0.0,0.0,0.0,0.0,0.0,0.0,0.0,0.0,0.0,0.0,0.0,0.0,0.0,0.0,0.0,0.0,0.0,0.0,0.0,0.0,0.0,0.0,0.0,0.0,0.0,0.0,0.0,0.0,0.0,0.0,0.0,0.0,-3.0801,-3.1643,-2.9817,-2.8523,-2.7893,-2.6713,-2.483,0.0,0.0,0.0,0.0,0.0,0.0,0.0,0.0,0.0,0.0,0.0,0.0,0.0,0.0,0.0,0.0,0.0,0.0,0.0,0.0,0.0,0.0,0.0,0.0,0.0,0.0,0.0,0.0,0.0,0.0,0.0,0.0,0.0,0.0,0.0,0.0,0.0,0.0,0.0,0.0,0.0,0.0,0.0,0.0,0.0,0.0,0.0,0.0,-2.0855,0.0,0.0,0.0,0.0,0.0,0.0,0.0,0.0,0.0,0.0,0.0,0.0,0.0,0.0,0.0,0.0,0.0,0.0,0.0,0.0,0.0,0.0,0.0,0.0,0.0,0.0,0.0,0.0,0.0,0.0,0.0,0.0,0.0,0.0,0.0,0.0,0.0,0.0,0.0,0.0,0.0,0.0,0.0,0.0,0.0,0.0,0.0,0.0,0.0,0.0,0.0,0.0,0.0,0.0,0.0,0.0,0.0,0.0,0.0,-3.0396,-3.0711,-2.9246,-2.8248,-2.7839,-2.6693,-2.4878,0.0,0.0,0.0,0.0,0.0,0.0,0.0,0.0,0.0,0.0,0.0,0.0,0.0,0.0,0.0,0.0,0.0,0.0,0.0,0.0,0.0,0.0,0.0,0.0,0.0,0.0,0.0,0.0,0.0,0.0,0.0,0.0,0.0,0.0,0.0,0.0,0.0,0.0,0.0,0.0,0.0,0.0,0.0,0.0,0.0,0.0,0.0,0.0,0.0,0.0,0.0,0.0,0.0,0.0,0.0,0.0,0.0,0.0,0.0,0.0,0.0,0.0,0.0,0.0,0.0,0.0,0.0,0.0,0.0,0.0,0.0,0.0,0.0,0.0,0.0,0.0,0.0,0.0,0.0,0.0,0.0,0.0,0.0,0.0,0.0,0.0,0.0,0.0,0.0,0.0,0.0,0.0,0.0,0.0,0.0,0.0,0.0,0.0,0.0,0.0,0.0,0.0,0.0,0.0,0.0,0.0,0.0,-2.9885,-2.9946,-2.9648,-2.8946,-2.8379,-2.7893,-2.6731,-2.5014,-2.2865,0.0,0.0,0.0,0.0,0.0,0.0,0.0,0.0,0.0,0.0,0.0,0.0,0.0,0.0,0.0,0.0,0.0,0.0,0.0,0.0,0.0,0.0,0.0,0.0,0.0,0.0,0.0,0.0,0.0,0.0,0.0,0.0,0.0,0.0,0.0,0.0,0.0,0.0,-1.3702,-2.0023,0.0,0.0,0.0,0.0,0.0,0.0,0.0,0.0,-2.2116,0.0,0.0,0.0,0.0,0.0,0.0,0.0,0.0,0.0,0.0,0.0,0.0,0.0,0.0,0.0,0.0,0.0,0.0,0.0,0.0,0.0,0.0,0.0,0.0,0.0,0.0,0.0,0.0,0.0,0.0,0.0,0.0,0.0,0.0,0.0,0.0,0.0,0.0,0.0,0.0,0.0,0.0,0.0,0.0,0.0,0.0,0.0,0.0,0.0,0.0,0.0,0.0,0.0,0.0,0.0,0.0,-2.838,-2.8236,-2.8836,-3.0259,-2.8641,-2.7797,-2.7683,-2.6239,-2.4284,-2.1943,0.0,0.0,0.0,0.0,0.0,0.0,0.0,0.0,0.0,0.0,0.0,0.0,0.0,0.0,0.0,0.0,0.0,0.0,0.0,0.0,0.0,0.0,0.0,0.0,0.0,0.0,0.0,0.0,0.0,0.0,0.0,0.0,0.0,0.0,0.0,0.0,0.0,0.0,0.0,-2.3746,-2.6959,0.0,0.0,0.0,0.0,0.0,0.0,0.0,0.0,-2.238,0.0,0.0,0.0,0.0,0.0,0.0,0.0,0.0,0.0,0.0,0.0,0.0,0.0,0.0,0.0,0.0,0.0,0.0,0.0,0.0,0.0,0.0,0.0,0.0,0.0,0.0,0.0,0.0,0.0,0.0,0.0,0.0,0.0,0.0,0.0,0.0,0.0,0.0,0.0,0.0,0.0,0.0,0.0,0.0,0.0,0.0,0.0,0.0,0.0,0.0,0.0,0.0,0.0,0.0,0.0,-2.6282,-2.6983,-2.8035,-2.9453,-2.8341,-2.7857,-2.8126,-2.6156,-2.4082,0.0,0.0,0.0,0.0,0.0,0.0,0.0,0.0,0.0,0.0,0.0,0.0,0.0,0.0,0.0,0.0,0.0,0.0,0.0,0.0,0.0,0.0,0.0,0.0,0.0,0.0,0.0,0.0,0.0,0.0,0.0,0.0,0.0,0.0,0.0,0.0,0.0,0.0,0.0,0.0,-2.5902,-2.886,-2.9228,0.0,0.0,0.0,0.0,0.0,0.0,-2.3493,-2.239,0.0,0.0,0.0,0.0,0.0,0.0,0.0,0.0,0.0,0.0,0.0,0.0,0.0,0.0,0.0,0.0,0.0,0.0,0.0,0.0,0.0,0.0,0.0,0.0,0.0,0.0,0.0,0.0,0.0,0.0,0.0,0.0,0.0,0.0,0.0,0.0,0.0,0.0,0.0,0.0,0.0,0.0,0.0,0.0,0.0,0.0,0.0,0.0,0.0,0.0,0.0,0.0,0.0,0.0,0.0,-2.4325,-2.5915,-2.7302,-2.8336,-2.7733,-2.7662,-2.813,-2.5794,-2.3659,0.0,0.0,0.0,0.0,0.0,0.0,0.0,0.0,0.0,0.0,0.0,0.0,0.0,0.0,0.0,0.0,0.0,0.0,0.0,0.0,0.0,0.0,0.0,0.0,0.0,0.0,0.0,0.0,0.0,0.0,0.0,0.0,0.0,0.0,0.0,0.0,0.0,0.0,0.0,0.0,0.0,-3.0681,-3.0333,-2.9992,0.0,0.0,0.0,0.0,-2.5057,-2.4313,0.0,0.0,0.0,0.0,0.0,0.0,0.0,0.0,0.0,0.0,0.0,0.0,0.0,0.0,0.0,0.0,0.0,0.0,0.0,0.0,0.0,0.0,0.0,0.0,0.0,0.0,0.0,0.0,0.0,0.0,0.0,0.0,0.0,0.0,0.0,0.0,0.0,0.0,0.0,0.0,0.0,0.0,0.0,0.0,0.0,0.0,0.0,0.0,0.0,0.0,0.0,0.0,0.0,0.0,0.0,0.0,-2.32,-2.5005,-2.6549,-2.7588,-2.6666,-2.6296,-2.6531,-2.4305,-2.2548,0.0,0.0,0.0,0.0,0.0,0.0,0.0,0.0,0.0,0.0,0.0,0.0,0.0,0.0,0.0,0.0,0.0,0.0,0.0,0.0,0.0,0.0,0.0,0.0,0.0,0.0,0.0,0.0,0.0,0.0,0.0,0.0,0.0,0.0,0.0,0.0,0.0,0.0,0.0,0.0,0.0,-3.2803,-3.2541,-3.2215,-3.1493,0.0,0.0,-2.6393,-2.7461,-2.7132,0.0,0.0,0.0,0.0,0.0,0.0,0.0,0.0,0.0,0.0,0.0,0.0,0.0,0.0,0.0,0.0,0.0,0.0,0.0,0.0,0.0,0.0,0.0,0.0,0.0,0.0,0.0,0.0,0.0,0.0,0.0,0.0,0.0,0.0,0.0,0.0,0.0,0.0,0.0,0.0,0.0,0.0,0.0,0.0,0.0,0.0,0.0,0.0,0.0,0.0,0.0,0.0,0.0,0.0,0.0,-2.0832,-2.1559,-2.4033,-2.5593,-2.6073,-2.5825,-2.5588,-2.5422,-2.352,-2.208,0.0,0.0,0.0,0.0,0.0,0.0,0.0,0.0,0.0,0.0,0.0,0.0,0.0,0.0,0.0,0.0,0.0,0.0,0.0,0.0,0.0,0.0,0.0,0.0,0.0,0.0,0.0,0.0,0.0,0.0,0.0,0.0,0.0,0.0,0.0,0.0,0.0,0.0,0.0,0.0,0.0,0.0,-3.3312,-3.2906,0.0,0.0,0.0,-2.6699,-2.7107,0.0,0.0,0.0,0.0,0.0,0.0,0.0,0.0,0.0,0.0,0.0,0.0,0.0,0.0,0.0,0.0,0.0,0.0,0.0,0.0,0.0,0.0,0.0,0.0,0.0,0.0,0.0,0.0,0.0,0.0,0.0,0.0,0.0,0.0,0.0,0.0,0.0,0.0,0.0,0.0,0.0,0.0,0.0,0.0,0.0,0.0,0.0,0.0,0.0,0.0,0.0,0.0,0.0,0.0,0.0,0.0,0.0,-2.0669,-2.35,-2.4915,-2.4722,-2.4899,-2.4728,-2.4226,-2.2592,0.0,0.0,0.0,0.0,0.0,0.0,0.0,0.0,0.0,0.0,0.0,0.0,0.0,0.0,0.0,0.0,0.0,0.0,0.0,0.0,0.0,0.0,0.0,0.0,0.0,0.0,0.0,-1.2608,0.0,0.0,0.0,0.0,0.0,0.0,0.0,0.0,0.0,0.0,0.0,0.0,0.0,0.0,-3.2698,-3.3659,-3.3014,-3.2066,0.0,0.0,-2.7064,-2.6822,-2.6045,-2.4454,0.0,0.0,0.0,0.0,0.0,0.0,0.0,0.0,0.0,0.0,0.0,0.0,0.0,0.0,0.0,0.0,0.0,0.0,0.0,0.0,0.0,0.0,0.0,0.0,0.0,0.0,0.0,0.0,0.0,0.0,0.0,0.0,0.0,0.0,0.0,0.0,0.0,0.0,0.0,0.0,0.0,0.0,0.0,0.0,0.0,0.0,0.0,0.0,0.0,0.0,0.0,0.0,0.0,0.0,-2.1132,-2.1483,-2.3632,-2.4624,-2.4182,-2.3884,-2.3341,-2.2598,-2.1153,-1.9933,0.0,0.0,0.0,0.0,0.0,0.0,0.0,0.0,0.0,0.0,0.0,0.0,0.0,0.0,0.0,0.0,0.0,0.0,0.0,0.0,0.0,0.0,0.0,0.0,0.0,0.0,0.0,0.0,0.0,0.0,0.0,0.0,0.0,0.0,0.0,0.0,0.0,0.0,0.0,0.0,0.0,-3.2478,-3.3746,-3.2861,-3.1841,0.0,-2.9661,-2.8304,-2.7743,-2.7526,-2.6272,-2.2796,0.0,0.0,0.0,0.0,0.0,0.0,0.0,0.0,0.0,0.0,0.0,0.0,0.0,0.0,0.0,0.0,0.0,0.0,0.0,0.0,0.0,0.0,0.0,0.0,0.0,0.0,0.0,0.0,0.0,0.0,0.0,0.0,0.0,0.0,0.0,0.0,0.0,0.0,0.0,0.0,0.0,0.0,0.0,0.0,0.0,0.0,0.0,0.0,0.0,0.0,0.0,0.0,0.0,-2.1297,-2.1199,-2.3668,-2.4279,-2.2961,-2.3201,-2.2706,-2.1385,-2.0769,-2.0102,0.0,0.0,0.0,0.0,0.0,0.0,0.0,0.0,0.0,0.0,0.0,0.0,0.0,0.0,0.0,0.0,0.0,0.0,0.0,0.0,0.0,0.0,0.0,0.0,0.0,0.0,0.0,0.0,-1.7333,-1.8125,-1.776,0.0,0.0,0.0,0.0,0.0,0.0,0.0,0.0,0.0,0.0,-3.0589,-3.1711,-3.0813,0.0,0.0,-2.7535,-2.6219,-2.5844,-2.5062,-2.3565,-2.1026,-2.0312,0.0,0.0,0.0,0.0,0.0,0.0,0.0,0.0,0.0,0.0,0.0,0.0,0.0,0.0,0.0,0.0,0.0,0.0,0.0,0.0,0.0,0.0,0.0,0.0,0.0,0.0,0.0,0.0,0.0,0.0,0.0,0.0,0.0,0.0,0.0,0.0,0.0,0.0,0.0,0.0,0.0,0.0,0.0,0.0,0.0,0.0,0.0,0.0,0.0,0.0,0.0,0.0,-2.1082,-2.0982,-2.2904,-2.3306,-2.2019,-2.2318,-2.1709,-2.0345,-1.9949,-1.9193,0.0,0.0,0.0,0.0,0.0,0.0,0.0,0.0,0.0,0.0,0.0,0.0,0.0,0.0,0.0,0.0,0.0,0.0,0.0,0.0,0.0,0.0,0.0,0.0,0.0,0.0,0.0,0.0,-1.704,-1.82,-1.7204,0.0,0.0,0.0,0.0,0.0,0.0,0.0,0.0,0.0,0.0,-2.9246,-3.0337,-2.9405,-2.8402,-2.8107,-2.6481,-2.519,-2.4812,-2.3817,-2.2512,-2.0732,0.0,0.0,0.0,0.0,0.0,0.0,0.0,0.0,0.0,0.0,0.0,0.0,0.0,0.0,0.0,0.0,0.0,0.0,0.0,0.0,0.0,0.0,0.0,0.0,0.0,0.0,0.0,0.0,0.0,0.0,-1.8532,0.0,0.0,0.0,0.0,0.0,0.0,0.0,0.0,0.0,0.0,0.0,0.0,0.0,0.0,0.0,0.0,0.0,0.0,0.0,0.0,0.0,0.0,-2.0523,-2.0912,-2.1381,-2.1632,-2.1758,-2.1054,-2.0266,-1.939,-1.8414,-1.675,-1.4425,0.0,0.0,0.0,0.0,0.0,0.0,0.0,0.0,0.0,0.0,0.0,0.0,0.0,0.0,0.0,0.0,0.0,0.0,0.0,0.0,0.0,0.0,0.0,0.0,0.0,0.0,-1.3573,-1.6269,-1.7805,0.0,0.0,0.0,0.0,0.0,0.0,0.0,0.0,0.0,0.0,-2.8475,-2.8923,-3.0241,-2.8867,-2.7804,-2.8122,-2.7136,-2.6091,-2.5356,-2.4976,-2.4258,0.0,0.0,0.0,0.0,0.0,0.0,0.0,0.0,0.0,0.0,0.0,0.0,0.0,0.0,0.0,0.0,0.0,0.0,0.0,0.0,0.0,0.0,0.0,0.0,0.0,0.0,0.0,-2.2965,-2.2456,0.0,0.0,0.0,0.0,0.0,0.0,0.0,0.0,0.0,0.0,0.0,-2.7595,-2.7245,0.0,0.0,0.0,0.0,0.0,0.0,0.0,0.0,0.0,0.0,0.0,0.0,-2.1143,-2.128,-2.1828,-2.1868,-2.1377,-2.0709,-1.9825,-1.8873,-1.7938,-1.6292,-1.3799,0.0,0.0,0.0,0.0,0.0,0.0,0.0,0.0,0.0,0.0,0.0,0.0,0.0,0.0,0.0,0.0,0.0,0.0,0.0,0.0,0.0,0.0,0.0,0.0,0.0,-1.3593,0.0,0.0,0.0,0.0,0.0,0.0,0.0,0.0,0.0,0.0,0.0,-2.7721,-2.9112,-2.8524,-2.8161,-2.8912,-2.7678,-2.6707,0.0,0.0,0.0,0.0,0.0,0.0,0.0,0.0,0.0,0.0,0.0,0.0,0.0,0.0,-2.8666,-2.614,-2.4929,-2.4607,-2.5582,0.0,0.0,0.0,0.0,0.0,0.0,0.0,0.0,0.0,0.0,0.0,0.0,0.0,0.0,-2.4992,0.0,-2.5268,0.0,0.0,0.0,0.0,0.0,0.0,0.0,0.0,-2.5791,-2.6753,-2.7056,-2.6663,-2.6115,0.0,-2.4495,-2.3582,0.0,0.0,0.0,0.0,0.0,0.0,0.0,0.0,-2.0669,-2.0522,-2.0942,-2.0786,-2.0101,-1.9393,-1.8692,-1.7813,-1.6348,-1.4911,-1.3535,-1.2746,-1.1851,0.0,0.0,0.0,0.0,0.0,0.0,0.0,0.0,0.0,0.0,0.0,0.0,0.0,0.0,0.0,0.0,0.0,0.0,0.0,0.0,0.0,0.0,0.0,-1.5654,0.0,0.0,0.0,0.0,0.0,0.0,0.0,0.0,0.0,-2.6985,-2.801,-2.8944,-2.9779,-2.8715,-2.7974,-2.8132,0.0,0.0,0.0,0.0,0.0,0.0,0.0,-2.4306,-2.3717,-2.4202,-2.4524,-2.4205,-2.5798,-2.726,-2.7447,0.0,0.0,-2.6979,-2.5828,-2.5363,-2.6024,-2.5745,-2.5408,-2.5732,-2.5344,-2.5062,0.0,0.0,0.0,0.0,0.0,0.0,0.0,0.0,-2.6114,-2.611,0.0,-2.6178,0.0,0.0,0.0,0.0,0.0,-2.2711,0.0,0.0,-2.4848,-2.5305,-2.4993,-2.5418,-2.5327,-2.4881,-2.4906,-2.4534,-2.3646,-2.2473,0.0,0.0,0.0,0.0,0.0,0.0,-1.9032,-1.8824,-1.8692,-1.834,-1.7932,-1.7319,-1.6771,-1.6137,-1.3678,-1.2737,-1.3375,-1.1972,-1.1488,-1.2016,-1.1343,0.0,0.0,0.0,0.0,0.0,0.0,0.0,0.0,0.0,0.0,0.0,0.0,0.0,0.0,0.0,0.0,0.0,0.0,0.0,0.0,-1.0929,0.0,0.0,0.0,0.0,0.0,0.0,0.0,0.0,0.0,0.0,-2.8375,-3.0116,-3.113,-3.0524,0.0,0.0,0.0,0.0,-2.6048,-2.6515,-2.6578,-2.651,-2.6198,-2.636,-2.6382,-2.5947,0.0,0.0,-2.5249,-2.5893,-2.6666,-2.7123,-2.6858,-2.7068,-2.8793,-2.8225,-2.7922,-2.8196,-2.7106,-2.6379,-2.6055,-2.5018,-2.4211,-2.851,0.0,0.0,0.0,0.0,-2.6299,-2.639,-2.6944,-2.7996,-2.7839,-2.6902,-2.7183,0.0,0.0,0.0,0.0,0.0,0.0,-2.3776,-2.4238,-2.5125,-2.5742,-2.5976,-2.5513,-2.5225,-2.5193,-2.4395,-2.3705,-2.3271,-2.2901,-2.2371,-2.1614,0.0,0.0,0.0,0.0,-1.9431,-1.9556,-1.8917,-1.8398,-1.7951,-1.7229,-1.5901,-1.4015,-1.3037,-1.2247,-1.1483,-1.0819,-1.0423,-1.0279,-0.979,0.0,0.0,0.0,0.0,0.0,0.0,0.0,0.0,0.0,0.0,0.0,0.0,0.0,0.0,0.0,0.0,0.0,0.0,0.0,-1.4034,-1.7051,-1.9798,0.0,0.0,0.0,0.0,0.0,0.0,0.0,0.0,0.0,-2.9866,-3.0368,-3.0471,0.0,0.0,-2.8622,-2.7566,-2.6985,-2.6683,-2.6809,-2.694,0.0,-2.6516,-2.6298,-2.6041,-2.5745,-2.5736,-2.5605,-2.5381,-2.557,-2.5684,-2.5604,-2.5808,-2.6177,-2.6259,-2.6216,-2.5937,-2.5692,-2.5104,-2.4553,-2.4436,-2.4171,-2.3937,-2.9621,-2.8157,-2.7445,-2.7299,-2.7506,-2.7339,-2.7548,-2.8083,-2.8686,-2.8524,-2.7934,-2.7988,-2.7192,-2.588,-2.4413,0.0,0.0,0.0,-2.3444,-2.3819,-2.4344,-2.4776,-2.5136,-2.4553,-2.4145,-2.3927,-2.2949,-2.2252,-2.1872,-2.2715,-2.219,-2.0644,0.0,0.0,-2.0206,-1.9311,-1.862,-1.8172,-1.7757,-1.7147,-1.6152,-1.5253,-1.4001,-1.2583,-1.1918,-1.1343,-1.0778,-1.0164,-0.9723,-0.9688,-0.9313,-0.8635,0.0,0.0,0.0,0.0,0.0,0.0,0.0,0.0,0.0,0.0,0.0,-0.4286,-0.4261,0.0,0.0,0.0,-0.9907,-1.3902,-1.9047,-2.0927,0.0,0.0,0.0,0.0,0.0,0.0,0.0,-2.7375,-2.8341,-2.9045,-2.952,-2.9472,-2.9609,-3.0025,-2.9316,-2.8423,-2.742,0.0,-2.6875,-2.6595,-2.7025,-2.7191,-2.6537,-2.6238,-2.5829,-2.5391,-2.5297,-2.5002,-2.4617,-2.4523,-2.4426,-2.4214,-2.4473,-2.4779,-2.4914,-2.4764,-2.4736,-2.4696,-2.4414,-2.4035,-2.3937,-2.3797,-2.3667,-3.067,-3.0085,-2.8395,-2.7999,-2.8354,-2.7939,-2.7987,-2.8474,-2.8513,-2.8509,-2.8542,-2.8476,-2.7797,-2.6661,-2.4502,0.0,-2.3063,-2.27,-2.2559,-2.2578,-2.2959,-2.3047,-2.3047,-2.3008,-2.2454,-2.1542,-2.092,-2.029,-1.9782,-2.1759,-2.1297,-1.8385,-1.9021,-1.9031,-1.8351,-1.7952,-1.6979,-1.535,-1.5636,-1.4949,-1.3275,-1.2248,-1.1649,-1.1472,-1.0458,-1.0197,-1.0702,-0.9666,-0.9238,-0.9653,-0.9461,-0.8774,-0.7697,0.0,0.0,0.0,0.0,0.0,0.0,0.0,0.0,0.0,0.0,0.0,0.0,0.0,0.0,0.0,-1.5664,0.0,-2.1945,-2.301,0.0,0.0,0.0,-2.7887,-2.5592,-2.6429,-2.6857,-2.6132,0.0,0.0,-2.7862,-2.7847,-2.8351,-2.9915,-2.8824,-2.7763,-2.7194,-2.6913,-2.6658,-2.5968,-2.6774,-2.7066,-2.6249,-2.592,-2.545,-2.467,-2.4559,-2.3986,-2.3122,-2.2841,-2.2841,-2.2749,-2.2898,-2.3271,-2.4031,-2.3874,-2.4047,-2.4756,-2.4606,-2.4256,-2.4118,-2.3751,-2.3503,-3.0157,-3.1097,-2.8846,-2.779,-2.7567,-2.7785,-2.7936,-2.8018,-2.8366,-2.8469,-2.8474,-2.8101,-2.7008,-2.5504,-2.3998,-2.3371,-2.3256,-2.3041,-2.2988,-2.2998,-2.3086,-2.2969,-2.2784,-2.1907,-2.1103,-2.0403,-1.9366,-1.8355,-1.7443,-1.938,-1.938,-1.754,-1.6126,-1.6196,-1.7434,-1.65,-1.566,-1.4896,-1.4323,-1.3438,-1.2157,-1.166,-1.0966,-1.0096,-0.984,-0.9323,-0.8632,-0.8201,-0.7921,-0.8051,-0.7756,-0.7341,-0.6983,-0.6823,0.0,0.0,0.0,0.0,0.0,0.0,0.0,0.0,0.0,-0.8862,-1.0234,0.0,-1.3658,0.0,-1.9071,-2.1983,-2.3351,-2.4094,0.0,0.0,-2.6007,-2.6132,-2.5912,-2.6136,-2.6281,-2.6117,-2.664,-2.6828,-2.6378,-2.6357,-2.6367,-2.6445,-2.7087,-2.7028,-2.5727,-2.5941,-2.603,-2.5776,-2.593,-2.5931,-2.5421,-2.4359,-2.3467,-2.3199,-2.2428,-2.1781,-2.1494,-2.1392,-2.1313,-2.1042,-2.2098,-2.2777,-2.2385,-2.2799,-2.3242,-2.3506,-2.3536,-2.3379,-2.3379,-2.33,-2.3222,-2.8629,-2.9451,-2.8165,-2.7081,-2.624,-2.6944,-2.73,-2.73,-2.7528,-2.7425,-2.7059,-2.6508,-2.563,-2.4637,-2.3701,-2.3163,-2.2945,-2.2843,-2.2599,-2.212,-2.203,-2.1867,-2.1683,-2.047,-1.9748,-1.935,-1.7885,-1.6666,-1.5848,-1.6404,-1.6293,-1.5553,-1.4359,-1.4295,-1.5416,-1.4904,-1.4391,-1.3853,-1.2504,-1.1305,-1.0341,-0.9657,-0.8969,-0.8352,-0.8261,-0.8006,-0.7768,-0.7591,-0.7415,-0.7323,-0.7155,-0.6953,-0.681,-0.6654,-0.6341,0.0,0.0,0.0,0.0,0.0,0.0,0.0,0.0,0.0,0.0,0.0,-1.7024,-1.935,-2.1104,-2.2755,-2.4381,-2.4478,-2.4796,-2.5724,-2.5376,-2.5218,-2.5346,-2.5786,-2.5786,-2.5052,-2.5473,-2.5654,-2.4992,-2.4947,-2.479,-2.4466,-2.5197,-2.5518,-2.4931,-2.5247,-2.5472,-2.5208,-2.5239,-2.5108,-2.4261,-2.2656,-2.1545,-2.1554,-2.1007,-2.0457,-2.0088,-1.9862,-1.9687,-1.9504,-2.0159,-2.0829,-2.0651,-2.1042,-2.1489,-2.1471,-2.1441,-2.1854,-2.2833,-2.2998,-2.2861,-2.661,-2.6546,-2.6723,-2.5957,-2.4637,-2.5619,-2.6029,-2.62,-2.6279,-2.5972,-2.5374,-2.4538,-2.3949,-2.3507,-2.2883,-2.2389,-2.2007,-2.1998,-2.1539,-2.0873,-2.0447,-2.021,-2.0123,-1.886,-1.8239,-1.8087,-1.6391,-1.5213,-1.459,-1.36,-1.3133,-1.3251,-1.2903,-1.272,-1.2803,-1.2998,-1.2839,-1.2298,-1.0621,-0.924,-0.8265,-0.7302,-0.6688,-0.6511,-0.6419,-0.6688,-0.7238,-0.7415,-0.7323,-0.7139,-0.7139,-0.7082,-0.6959,-0.681,-0.6729,0.0,-0.6586,0.0,0.0,0.0,0.0,0.0,0.0,0.0,0.0,-1.6964,-2.0071,-2.2503,-2.2216,-2.271,-2.4805,-2.4243,-2.4228,-2.5438,-2.5007,-2.4556,-2.4382,-2.5136,-2.5126,-2.3657,-2.4221,-2.4457,-2.3851,-2.3667,-2.359,-2.3466,-2.366,-2.3817,-2.39,-2.4476,-2.4816,-2.4474,-2.4566,-2.4043,-2.2628,-2.1101,-2.0068,-2.0068,-1.9745,-1.9439,-1.8632,-1.8175,-1.7932,-1.7924,-1.8029,-1.82,-1.8999,-1.9231,-1.9414,-1.9569,-1.9529,-2.0079,-2.1798,-2.2083,-2.2101,-2.4084,-2.4872,-2.422,-2.3553,-2.2842,-2.3104,-2.3811,-2.462,-2.5015,-2.5225,-2.5284,-2.3298,-2.1977,-2.1151,-2.007,-1.9722,-2.0125,-1.9592,-1.9583,-2.0098,-1.9325,-1.8868,-1.8601,-1.7375,-1.6561,-1.6035,-1.4529,-1.3498,-1.3223,-1.2721,-1.2214,-1.1648,-1.0556,-1.032,-1.0675,0.0,0.0,0.0,-0.9165,-0.8105,-0.7129,-0.6681,-0.5974,-0.509,-0.5711,0.0,-0.6077,-0.6786,-0.7143,-0.7139,-0.7139,0.0,0.0,0.0,0.0,0.0,0.0,0.0,0.0,0.0,0.0,0.0,-1.3244,-1.5028,-1.5965,-1.9013,-2.1495,-2.2755,-2.251,-2.2588,-2.3388,-2.3172,-2.3065,-2.3086,-2.3163,-2.3173,-2.3144,-2.3299,-2.3299,-2.3222,-2.3212,-2.3212,-2.3222,-2.3057,-2.2969,-2.2872,-2.2969,-2.2494,-2.1434,-2.2862,-2.3887,-2.374,-2.2936,-2.2005,-2.0806,-1.9729,-1.9023,-1.894,-1.7911,-1.7234,-1.7014,-1.6577,-1.6195,-1.6277,-1.6795,-1.7316,-1.7588,-1.824,-1.8663,-1.8709,-1.8737,-1.8978,-1.9868,-1.9835,-1.983,-2.1527,0.0,-2.1503,-2.1146,0.0,-2.0851,-2.0914,-2.1043,-2.2656,-2.3241,-2.2885,-2.0665,-1.9273,-1.8629,-1.8173,-1.8259,-1.8698,-1.8432,-1.8251,-1.814,-1.7548,-1.7126,-1.68,-1.5533,-1.4979,-1.4904,-1.3509,-1.2758,-1.2523,-1.2348,-1.1821,-1.0836,-0.8818,-0.8494,-0.9708,-0.9048,-0.8669,-0.87,-0.7752,-0.6861,-0.5888,-0.5174,-0.4552,-0.3937,0.0,0.0,0.0,0.0,0.0,0.0,0.0,0.0,0.0,0.0,0.0,-0.6972,-0.6903,-0.7288,-0.8233,-0.9347,-1.0534,-1.1666,-1.4045,-1.6182,-1.7954,-1.9755,-2.1363,-2.2562,-2.2312,-2.2217,-2.2359,-2.2544,-2.2368,-2.1902,-2.2273,-2.2551,-2.237,-2.2503,-2.2618,-2.2677,-2.2436,-2.2379,-2.2668,-2.2048,-2.1776,-2.1826,-2.1335,-2.0695,-2.0193,-2.142,-2.2403,-2.1952,-2.0881,-1.9877,-1.9314,-1.8255,-1.7537,-1.7323,-1.673,-1.6195,-1.6083,-1.5732,-1.5434,-1.5434,-1.5784,-1.6046,-1.6053,-1.6498,-1.6733,-1.6669,-1.671,-1.6766,-1.7,-1.7733,-1.8752,-1.9134,-1.865,-1.8922,-1.8809,-1.8542,-1.8733,-1.8288,-1.7585,0.0,0.0,0.0,-1.7806,-1.6644,-1.5937,-1.6498,-1.6994,-1.7384,-1.7306,-1.6835,-1.6067,-1.5647,-1.5281,-1.4896,-1.3913,-1.3561,-1.3804,-1.2872,-1.2286,-1.1916,-1.2074,-1.1415,-0.9879,-0.7526,-0.7186,-0.8735,-0.8417,-0.7943,-0.7293,-0.6627,-0.5794,-0.473,-0.3664,-0.3044,-0.2868,-0.3667,-0.4467,-0.545,-0.6343,-0.6874,-0.6792,-0.6792,-0.6754,-0.659,-0.66,-0.6694,-0.6973,-0.6969,-0.7678,-0.924,-0.9712,-1.0773,-1.272,-1.4501,-1.6583,-1.8999,-1.974,-2.0504,-2.178,-2.1643,-2.1551,-2.1551,-2.1919,-2.1891,-2.1268,-2.1825,-2.2098,-2.1815,-2.2023,-2.2183,-2.2117,-2.1729,-2.1568,-2.1848,-2.0824,-2.0123,-2.0262,-1.9744,-1.8869,-1.8902,-1.9884,-2.0501,-1.9779,-1.8954,-1.8208,-1.7751,-1.7029,-1.6148,-1.6218,-1.588,-1.5588,-1.5546,-1.5241,-1.506,-1.4954,-1.4881,-1.4795,-1.4822,-1.4966,-1.4696,-1.4422,-1.4541,-1.4545,-1.4434,-1.5801,-1.7357,-1.7087,-1.7234,-1.7126,-1.6977,-1.693,-1.6938,-1.6826,-1.6632,-1.7548,-1.6844,-1.4972,-1.6074,-1.5133,-1.288,-1.4256,-1.507,-1.5343,-1.4867,-1.4636,0.0,-1.3926,-1.3437,-1.3007,-1.2808,-1.2647,-1.2454,-1.2325,-1.1707,-1.0877,-1.1415,-1.0558,-0.8309,-0.6889,-0.6567,-0.7022,-0.7008,-0.6662,-0.5951,-0.606,-0.5265,-0.3486,-0.3133,-0.251,-0.1704,-0.2598,-0.3578,-0.4467,-0.545,-0.6166,-0.6792,-0.6792,-0.6713,-0.6459,-0.6373,-0.6551,-0.6824,-0.6824,-0.7474,-0.88,-0.9741,-1.117,-1.3157,-1.4287,-1.5646,-1.75,-1.8634,-1.946,-1.9634,-2.031,-2.0688,-2.0697,-2.094,-2.1061,-2.1029,-2.1367,-2.1605,-2.1425,-2.1491,-2.1425,-2.1287,-2.0462,-2.0,-2.009,-1.9256,-1.8626,-1.8667,-1.8311,-1.8072,-1.7445,-1.8191,-1.8485,-1.7882,-1.7451,-1.7017,-1.6378,-1.5956,-1.5735,-1.5735,-1.5388,-1.5005,-1.5005,-1.4613,-1.4358,-1.424,-1.4267,-1.426,-1.4253,-1.426,-1.4108,-1.3868,-1.3808,-1.3783,-1.3514,-1.4068,-1.4817,-1.5078,-1.4906,-1.4799,-1.476,-1.4753,-1.4838,-1.4578,-1.4035,-1.4325,-1.4253,-1.3854,-1.4064,-1.3083,-1.1537,-1.2579,-1.3155,-1.3118,-1.3406,-1.3434,-1.332,-1.3078,-1.2696,-1.2361,-1.2349,-1.2196,-1.1771,-1.1759,-1.1232,-1.0293,-1.0154,-0.9246,-0.7633,-0.6777,-0.6146,-0.5924,-0.5942,-0.5392,-0.4198,-0.4823,-0.4465,-0.3044,-0.2419,-0.1883,-0.1436,-0.2331,-0.3223,-0.4024,-0.5006,-0.5808,-0.6438,-0.6438,-0.626,-0.6083,-0.5994,-0.6171,-0.6435,-0.689,-0.7654,-0.8939,-1.0404,-1.1612,-1.2714,-1.3175,-1.3783,-1.4899,-1.6807,-1.8148,-1.8415,-1.8879,-1.9221,-1.9384,-1.9356,-1.9305,-1.938,-1.9469,-1.9462,-1.9307,-1.9445,-1.948,-1.9392,-1.8761,-1.8464,-1.8751,-1.7744,-1.7031,-1.7147,-1.6737,-1.6052,-1.5454,-1.5755,-1.6309,-1.6345,-1.6126,-1.5841,-1.5513,-1.5246,-1.5082,-1.5068,-1.4736,-1.4473,-1.4446,-1.4233,-1.4102,-1.4088,-1.4088,-1.4088,-1.4082,-1.3948,-1.3741,-1.3494,-1.3407,-1.3293,-1.3086,-1.3193,-1.3945,-1.363,-1.3103,-1.309,-1.2887,-1.2619,-1.2613,-1.2266,-1.166,-1.1666,-1.1992,-1.2486,-1.2066,-1.1295,-1.0443,-1.123,-1.1645,-1.1718,-1.2324,-1.2582,-1.2418,-1.2422,-1.2251,-1.2005,-1.198,-1.1632,-1.1129,-1.1037,-1.0507,-0.9387,-0.8865,-0.8174,-0.7253,-0.6409,-0.5848,-0.5607,-0.5189,-0.4368,-0.3306,-0.3758,-0.3578,-0.2598,-0.1793,-0.1436,-0.1436,-0.2151,-0.2858,-0.3556,-0.4614,-0.5403,-0.5999,-0.5999,-0.5911,-0.5651,-0.5739,-0.5911,-0.625,-0.7015,-0.8042,-0.9289,-1.0887,-1.1926,-1.2172,-1.2252,-1.2419,-1.2971,-1.4677,-1.6263,-1.6978,-1.7178,-1.7479,-1.778,-1.7619,-1.7476,-1.7606,-1.7624,-1.7594,-1.7294,-1.7453,-1.758,-1.7501,-1.7085,-1.6853,-1.6869,-1.6085,-1.5426,-1.5481,-1.4891,-1.4243,-1.3959,-1.3873,-1.4208,-1.479,-1.481,-1.4656,-1.4865,-1.4563,-1.4349,-1.4329,-1.4249,-1.4135,-1.4108,-1.4095,-1.4082,-1.3997,-1.3997,-1.3913,-1.3893,-1.3682,-1.3411,-1.3154,-1.3028,-1.2883,-1.2698,-1.2791,-1.3292,-1.3203,-1.3085,-1.2813,-1.2089,-1.1037,-1.0524,-1.0356,-1.0443,-1.0443,-1.0009,-0.9575,-1.0351,-1.0178,-0.9579,-1.0265,-1.1026,-1.1582,-1.1723,-1.1811,-1.1896,-1.1992,-1.1655,-1.1253,-1.1234,-1.0767,-1.0143,-1.0067,-0.9306,-0.794,-0.8358,-0.7902,-0.649,-0.5553,-0.5613,-0.6105,-0.4868,-0.412,-0.4123,-0.3676,-0.2778,-0.1615,-0.1436,-0.1436,-0.1436,-0.1435,-0.1864,-0.2698,-0.3649,-0.4739,-0.5586,-0.5751,-0.5661,-0.549,-0.5984,-0.6319,-0.6576,-0.7224,-0.8197,-0.9745,-1.08,-1.1502,-1.192,-1.1896,-1.1994,-1.2283,-1.2567,-1.3266,-1.4374,-1.517,-1.5574,-1.5808,-1.5844,-1.6024,-1.6622,-1.6584,-1.673,-1.6522,-1.6723,-1.6622,-1.6208,-1.5467,-1.4929,-1.5014,-1.4409,-1.3809,-1.3966,-1.3874,-1.3638,-1.3574,-1.3407,-1.3361,-1.3593,-1.3704,-1.3809,-1.3775,-1.3724,-1.3815,-1.3796,-1.3946,-1.4004,-1.4004,-1.3997,-1.3997,-1.3822,-1.3737,-1.3737,-1.3484,-1.3252,-1.2964,-1.2724,-1.2518,-1.2331,-1.2229,-1.2325,-1.2641,-1.3225,-1.2862,-1.2753,-1.1075,-0.9022,-1.0144,-1.0188,-0.9235,-0.9235,-0.8711,-0.7925,-0.8185,-0.8189,-0.8009,-0.8969,-0.9375,-0.9484,-0.9965,-1.0466,-1.0689,-1.0724,-1.0848,-1.1049,-1.0594,-1.0218,-0.9841,-0.9463,-0.8623,-0.7642,-0.7354,-0.6979,-0.6362,-0.5962,-0.554,-0.4954,-0.3998,-0.3217,-0.2597,-0.2062,-0.1524,-0.1076,-0.1256,-0.1256,-0.0985,-0.0975,-0.1403,-0.2252,-0.3341,-0.4407,-0.5457,-0.5868,-0.5998,-0.584,-0.64,-0.6725,-0.6887,-0.7692,-0.8679,-0.9818,-1.0285,-1.0523,-1.0678,-1.0755,-1.0967,-1.1419,-1.1307,-1.1629,-1.2497,-1.3218,-1.3922,-1.4663,-1.4405,-1.4433,-1.5216,-1.5071,-1.4739,-1.4739,-1.4739,-1.4585,-1.4475,-1.4132,-1.3971,-1.3886,-1.3639,-1.3398,-1.3398,-1.3392,-1.3366,-1.3379,-1.3296,-1.3199,-1.319,-1.3313,-1.3392,-1.3392,-1.3476,-1.3476,-1.3568,-1.3568,-1.3659,-1.3743,-1.3659,-1.3652,-1.3561,-1.3548,-1.3387,-1.324,-1.2927,-1.2654,-1.238,-1.2101,-1.1891,-1.1891,-1.1891,-1.2035,-1.3045,-1.2534,-1.21,-1.0292,-0.7891,-0.9534,-0.941,-0.8017,-0.7925,-0.7489,-0.6959,-0.6789,-0.6789,-0.6956,-0.7625,-0.7811,-0.7919,-0.8457,-0.8983,-0.9484,-0.9413,-0.9755,-1.0201,-0.9679,-0.9311,-0.9003,-0.847,-0.7863,-0.7184,-0.6497,-0.5659,-0.4826,-0.5159,-0.5123,-0.4411,-0.3277,-0.1403,0.0268,-0.0269,-0.0807,-0.0807,-0.1166,-0.1256,-0.0985,-0.1583,-0.1995,-0.2233,-0.3705,-0.4809,-0.5516,-0.6163,-0.6441,-0.6344,-0.6885,-0.7277,-0.7513,-0.8217,-0.8932,-0.97,-0.9695,-0.9771,-0.9846,-0.9922,-1.0068,-1.0483,-1.047,-1.0534,-1.1012,-1.1516,-1.2353,-1.3353,-1.3095,-1.3136,-1.3874,-1.3523,-1.3206,-1.3115,-1.3115,-1.3231,-1.3203,-1.3307,-1.3184,-1.3128,-1.3096,-1.3006,-1.3006,-1.3033,-1.3096,-1.3165,-1.3153,-1.3031,-1.3027,-1.2911,-1.2971,-1.3197,-1.3307,-1.3313,-1.3313,-1.3398,-1.3398,-1.3379,-1.3353,-1.3199,-1.3201,-1.318,-1.3015,-1.2688,-1.2426,-1.2274,-1.1966,-1.1721,-1.1577,-1.1521,-1.1571,-1.1571,-1.2448,-1.1837,-1.0636,-0.9763,-0.9065,-0.8189,-0.7309,-0.6694,-0.6605,-0.6517,-0.6517,-0.6428,-0.6428,-0.6422,-0.6486,-0.6922,-0.7524,-0.7415,-0.7732,-0.8461,-0.8308,-0.8232,-0.8237,-0.8161,-0.7855,-0.7399,-0.7173,-0.6872,-0.643,-0.6038,-0.3872,-0.0724,-0.2352,-0.4165,-0.5011,-0.2349,0.1232,0.368,0.0986,-0.0986,-0.0806,-0.1166,-0.1522,-0.1696,-0.352,-0.3961,-0.3026,-0.4769,-0.6035,-0.5892,-0.6514,-0.6887,-0.6876,-0.7419,-0.8038,-0.8493,-0.8651,-0.8875,-0.9246,-0.9322,-0.9478,-0.9781,-0.9781,-0.9933,-0.9992,-0.9954,-1.0014,-1.0019,-1.022,-1.0721,-1.1848,-1.2018,-1.2047,-1.2371,-1.2609,-1.2533,-1.2349,-1.2474,-1.2733,-1.2711,-1.2729,-1.2626,-1.2438,-1.233,-1.2413,-1.2371,-1.2213,-1.2219,-1.2571,-1.2541,-1.2523,-1.262,-1.2577,-1.2409,-1.2711,-1.2899,-1.3008,-1.3143,-1.3222,-1.3313,-1.3302,-1.3213,-1.3029,-1.2864,-1.2819,-1.2554,-1.2134,-1.1909,-1.1702,-1.1478,-1.1377,-1.126,-1.126,-1.1186,-1.1267,-1.2748,-1.1578,-1.1679,-1.0982,-0.9689,-0.8807,-0.7925,-0.7044,-0.6605,-0.6428,-0.6343,-0.6254,-0.6169,-0.616,-0.5866,-0.6102,-0.6589,-0.6394,-0.6731,-0.7418,-0.7346,-0.7625,-0.8003,-0.7625,-0.733,-0.7184,-0.6567,-0.6268,-0.6288,-0.6142,-0.4051,-0.0729,-0.0742,-0.1521,-0.1909,-0.0971,0.0625,-0.0,0.2486,0.2114,-0.0351,-0.252,-0.3712,-0.3709,-0.4545,-0.4727,-0.411,-0.5308,-0.5909,-0.5857,-0.6768,-0.7362,-0.7536,-0.8012,-0.847,-0.8703,-0.8703,-0.878,-0.8861,-0.8937,-0.9,-0.9271,-0.9239,-0.9301,-0.9617,-0.9632,-0.962,-0.9771,-0.9846,-1.0231,-1.0612,-1.0875,-1.0971,-1.1283,-1.147,-1.1555,-1.1488,-1.1572,-1.1695,-1.1908,-1.2076,-1.2155,-1.2026,-1.2065,-1.2065,-1.2059,-1.198,-1.1936,-1.2125,-1.2113,-1.2026,-1.2168,-1.2131,-1.2089,-1.2168,-1.2444,-1.2649,-1.2808,-1.2875,-1.2869,-1.2899,-1.2837,-1.2667,-1.2527,-1.2413,-1.2374,-1.1992,-1.1727,-1.1516,-1.1286,-1.1117,-1.1117,-1.1117,-1.0962,-1.1037,-1.2982,-1.2286,-1.2373,-1.1343,-0.9823,-0.9312,-0.8451,-0.7418,-0.6903,-0.6557,-0.6387,-0.6216,-0.6046,-0.5852,-0.5573,-0.556,-0.5717,-0.5708,-0.5915,-0.6257,-0.6325,-0.6553,-0.6934,-0.6553,-0.6409,-0.6426,-0.5367,-0.5137,-0.5836,-0.5887,-0.377,-0.0244,-0.0,-0.0,-0.0,-0.0,-0.0,-0.0,0.2606,0.2499,-0.0086,-0.3227,-0.5045,-0.5012,-0.5007,-0.4966,-0.5033,-0.5774,-0.6149,-0.6374,-0.7287,-0.7957,-0.8147,-0.847,-0.8627,-0.8475,-0.8394,-0.8318,-0.8165,-0.8318,-0.8485,-0.8677,-0.8585,-0.8636,-0.907,-0.8966,-0.8942,-0.8951,-0.9387,-0.954,-0.9488,-0.9689,-1.0021,-1.0556,-1.0735,-1.0664,-1.0664,-1.0658,-1.0854,-1.1249,-1.1489,-1.152,-1.1438,-1.1478,-1.1392,-1.1408,-1.1338,-1.1303,-1.1467,-1.1272,-1.1107,-1.1163,-1.1044,-1.1055,-1.1139,-1.1379,-1.2035,-1.2272,-1.2565,-1.2577,-1.2397,-1.2361,-1.229,-1.2183,-1.2075,-1.2038,-1.192,-1.157,-1.133,-1.1097,-1.1117,-1.1117,-1.0962,-1.0812,-1.0732,-1.3074,-1.3705,-1.2431,-1.102,-0.972,-0.9601,-0.8673,-0.7529,-0.7289,-0.6895,-0.6495,-0.6383,-0.6158,-0.5613,-0.5527,-0.5281,-0.5345,-0.5319,-0.526,-0.5174,-0.5174,-0.5165,-0.5231,-0.5243,-0.5254,-0.5112,-0.3363,-0.3365,-0.4589,-0.4511,-0.2928,-0.0,-0.0,-0.0,-0.0,-0.0,-0.0,-0.0,0.0253,-0.0,-0.0168,-0.3266,-0.4981,-0.4968,-0.5036,-0.5031,-0.502,-0.6152,-0.6758,-0.693,-0.791,-0.8613,-0.8466,-0.8551,-0.8394,-0.7859,-0.7783,-0.7557,-0.7169,-0.7476,-0.7863,-0.8019,-0.8053,-0.8023,-0.8132,-0.8028,-0.7787,-0.7508,-0.8012,-0.8484,-0.8106,-0.8345,-0.9192,-1.0489,-1.0247,-0.9937,-0.9911,-0.9959,-1.0179,-1.0557,-1.0865,-1.0811,-1.054,-1.057,-1.0608,-1.0439,-1.028,-1.028,-1.057,-1.0206,-0.9736,-0.9732,-0.9751,-0.9754,-0.9982,-1.0303,-1.1089,-1.1822,-1.214,-1.2246,-1.1838,-1.1652,-1.1537,-1.1352,-1.1254,-1.1227,-1.11,-1.0864,-1.0713,-1.0547,-1.0761,-1.0657,-1.0282,-0.9976,-1.0201,-1.3621,-1.3633,-1.3175,-1.2395,-1.1426,-1.0641,-0.9626,-0.8475,-0.8179,-0.7585,-0.7015,-0.6933,-0.685,-0.6647,-0.6455,-0.6093,-0.5689,-0.5526,-0.5271,-0.5004,-0.5012,-0.4972,-0.5002,-0.4977,-0.5026,-0.4487,-0.2134,-0.0,-0.0,-0.0,-0.0907,-0.0,-0.0,-0.0,-0.0,-0.0,-0.0,-0.0,-0.232,-0.3374,-0.3362,-0.4369,-0.4957,-0.4999,-0.4993,-0.4993,-0.5067,-0.6103,-0.6529,-0.6237,-0.7287,-0.7727,-0.7528,-0.7476,-0.7322,-0.7246,-0.7169,-0.7169,-0.6938,-0.7019,-0.7243,-0.7359,-0.7324,-0.7317,-0.7466,-0.7321,-0.7087,-0.6868,-0.7246,-0.7322,-0.7246,-0.7322,-0.8047,-0.9264,-0.932,-0.9232,-0.9306,-0.9546,-0.9673,-0.9761,-1.0052,-1.0169,-1.0089,-1.0071,-1.0103,-0.9925,-0.9889,-0.9948,-0.9935,-0.9416,-0.9182,-0.9251,-0.888,-0.8444,-0.8631,-0.8913,-0.9516,-1.0308,-1.0848,-1.1199,-1.0919,-1.0654,-1.0536,-1.0433,-1.0417,-1.0331,-1.0214,-1.004,-0.9834,-0.9559,-0.9377,-0.9221,-0.9064,-0.9064,-0.9216,-1.4073,-1.3902,-1.3889,-1.3331,-1.2466,-1.1552,-1.0517,-0.9377,-0.8937,-0.8273,-0.7606,-0.7509,-0.7265,-0.6965,-0.6641,-0.6249,-0.5852,-0.5757,-0.5399,-0.4949,-0.4882,-0.4916,-0.4792,-0.4164,-0.3995,-0.3569,-0.1328,-0.0,-0.0,-0.0,-0.0,-0.0,0.034,-0.0,-0.0859,-0.0679,-0.0504,-0.083,-0.252,-0.3863,-0.4252,-0.4353,-0.447,-0.4545,-0.4548,-0.4545,-0.4618,-0.5469,-0.5841,-0.5825,-0.6449,-0.6605,-0.6461,-0.6391,-0.6314,-0.6086,-0.6083,-0.5928,-0.578,-0.5857,-0.6149,-0.6327,-0.6215,-0.6202,-0.6347,-0.6202,-0.6077,-0.5789,-0.616,-0.6314,-0.616,-0.6472,-0.7015,-0.7625,-0.8035,-0.8269,-0.8512,-0.8975,-0.9164,-0.9249,-0.9493,-0.9535,-0.9519,-0.9653,-0.9453,-0.9296,-0.916,-0.8932,-0.877,-0.8169,-0.8008,-0.7855,-0.7492,-0.7273,-0.7265,-0.7586,-0.7932,-0.8617,-0.9333,-0.9538,-0.9529,-0.947,-0.9428,-0.9296,-0.9243,-0.9213,-0.9143,-0.8942,-0.8693,-0.8349,-0.8232,-0.8385,-0.8461,-0.8003,-0.7999,-1.4598,-1.4632,-1.4493,-1.3635,-1.2557,-1.2169,-1.1197,-1.0044,-0.9608,-0.9047,-0.8351,-0.8134,-0.7642,-0.6837,-0.6493,-0.618,-0.5858,-0.5912,-0.5561,-0.4934,-0.479,-0.4784,-0.4465,-0.3291,-0.2808,-0.2494,-0.1234,-0.0,-0.0,-0.0,-0.0,-0.0,0.0425,-0.0086,-0.178,-0.1685,-0.1419,-0.1475,-0.168,-0.2373,-0.3399,-0.3458,-0.3532,-0.3843,-0.3921,-0.3921,-0.3995,-0.437,-0.4833,-0.5229,-0.5446,-0.5517,-0.5455,-0.5532,-0.5226,-0.4766,-0.4686,-0.4535,-0.4151,-0.4538,-0.4805,-0.4973,-0.4983,-0.4851,-0.4988,-0.497,-0.4775,-0.4314,-0.4919,-0.5303,-0.4996,-0.5386,-0.5931,-0.6086,-0.6725,-0.7273,-0.7714,-0.8259,-0.8412,-0.8535,-0.8853,-0.8992,-0.8625,-0.8871,-0.8598,-0.8182,-0.791,-0.7714,-0.7362,-0.6976,-0.6173,-0.6093,-0.6321,-0.617,-0.6254,-0.6437,-0.6756,-0.6939,-0.7668,-0.7969,-0.8286,-0.8347,-0.8181,-0.8065,-0.8077,-0.8038,-0.7949,-0.7748,-0.7675,-0.7561,-0.7621,-0.7927,-0.7621,-0.7011,-0.6857,-1.5454,-1.5921,-1.4409,-1.3404,-1.286,-1.2495,-1.1673,-1.0641,-1.0722,-1.0176,-0.9487,-0.9259,-0.8659,-0.8079,-0.7748,-0.7431,-0.6923,-0.6343,-0.5881,-0.5395,-0.5248,-0.4717,-0.4109,-0.3363,-0.295,-0.2957,-0.2649,-0.2161,-0.1021,-0.0971,-0.099,-0.0917,-0.0759,-0.0763,-0.1262,-0.2105,-0.2435,-0.2413,-0.269,-0.298,-0.3292,-0.3559,-0.3686,-0.3763,-0.3763,-0.3763,-0.3763,-0.3604,-0.3992,-0.4766,-0.4457,-0.4304,-0.4302,-0.4302,-0.4224,-0.4073,-0.3995,-0.4073,-0.4077,-0.3997,-0.3929,-0.3787,-0.3961,-0.411,-0.4112,-0.4112,-0.4021,-0.3841,-0.4148,-0.4224,-0.4073,-0.4304,-0.4462,-0.4618,-0.578,-0.6784,-0.7015,-0.7246,-0.7399,-0.7415,-0.7504,-0.7548,-0.758,-0.7584,-0.7557,-0.7358,-0.7115,-0.6991,-0.6503,-0.6159,-0.5584,-0.5637,-0.5709,-0.5401,-0.5332,-0.5425,-0.5514,-0.5506,-0.5921,-0.6407,-0.6838,-0.7289,-0.7006,-0.6644,-0.6736,-0.6714,-0.6633,-0.649,-0.6553,-0.6626,-0.6398,-0.6398,-0.6093,-0.5631,-0.5709,-1.5217,-1.584,-1.402,-1.2773,-1.2049,-1.2145,-1.1671,-1.1002,-1.1096,-1.0867,-1.0218,-0.9616,-0.9236,-0.8778,-0.8209,-0.7836,-0.7417,-0.6721,-0.607,-0.5514,-0.5266,-0.4748,-0.4101,-0.3804,-0.3572,-0.3325,-0.3424,-0.2968,-0.219,-0.1915,-0.1876,-0.1843,-0.1952,-0.179,-0.1706,-0.1941,-0.2524,-0.2676,-0.2942,-0.3058,-0.3164,-0.3178,-0.3221,-0.3292,-0.3214,-0.3214,-0.3214,-0.2981,-0.3214,-0.3759,-0.3524,-0.3292,-0.3294,-0.3294,-0.3215,-0.3215,-0.3215,-0.3294,-0.345,-0.3294,-0.3137,-0.3059,-0.3137,-0.3215,-0.3217,-0.3292,-0.3292,-0.3215,-0.3292,-0.3214,-0.3294,-0.3372,-0.3608,-0.3919,-0.4927,-0.5699,-0.5928,-0.616,-0.6311,-0.6402,-0.6528,-0.672,-0.6706,-0.6706,-0.6628,-0.6455,-0.6109,-0.5898,-0.5571,-0.5272,-0.5134,-0.5026,-0.501,-0.4779,-0.4701,-0.4865,-0.5029,-0.4943,-0.4859,-0.5243,-0.5637,-0.619,-0.5967,-0.5652,-0.5565,-0.5556,-0.5553,-0.5553,-0.5631,-0.5553,-0.5093,-0.5015,-0.5015,-0.5015,-0.5015,-1.4216,-1.4694,-1.3363,-1.2005,-1.0884,-1.1392,-1.1397,-1.093,-1.1014,-1.0922,-1.051,-0.9706,-0.9402,-0.9111,-0.8213,-0.7601,-0.747,-0.6881,-0.6214,-0.5641,-0.5186,-0.4739,-0.4369,-0.4181,-0.3754,-0.3297,-0.2994,-0.2918,-0.2772,-0.2501,-0.2578,-0.2495,-0.2561,-0.2678,-0.2491,-0.2125,-0.2195,-0.2591,-0.2675,-0.2645,-0.2665,-0.2704,-0.2669,-0.2666,-0.2666,-0.2676,-0.2599,-0.2518,-0.2749,-0.3076,-0.2672,-0.2589,-0.2588,-0.251,-0.251,-0.2588,-0.2668,-0.2666,-0.2588,-0.2666,-0.2588,-0.2588,-0.2588,-0.251,-0.2588,-0.2666,-0.2666,-0.2666,-0.251,-0.2588,-0.2666,-0.2902,-0.3137,-0.345,-0.3684,-0.3992,-0.4455,-0.4991,-0.5375,-0.5458,-0.588,-0.6035,-0.606,-0.6051,-0.6021,-0.5426,-0.5151,-0.4932,-0.4673,-0.448,-0.4353,-0.416,-0.4153,-0.4073,-0.4151,-0.4384,-0.4545,-0.4626,-0.4465,-0.4543,-0.4711,-0.5034,-0.4977,-0.4899,-0.4789,-0.4779,-0.4857,-0.4857,-0.4859,-0.4779,-0.4623,-0.4704,-0.4859,-0.4779,-0.4779,-1.3216,-1.331,-1.2297,-1.1363,-1.0725,-1.1006,-1.1077,-1.0954,-1.1021,-1.0994,-1.0868,-1.0464,-0.9823,-0.9175,-0.8479,-0.8037,-0.7475,-0.6836,-0.635,-0.6168,-0.5684,-0.5047,-0.4545,-0.4168,-0.3428,-0.2739,-0.2524,-0.2498,-0.247,-0.2556,-0.2548,-0.262,-0.2681,-0.2797,-0.271,-0.2561,-0.2565,-0.2689,-0.2613,-0.2582,-0.2583,-0.2549,-0.2516,-0.2515,-0.2515,-0.2537,-0.2563,-0.2537,-0.2535,-0.2637,-0.2617,-0.251,-0.251,-0.251,-0.251,-0.251,-0.251,-0.251,-0.251,-0.251,-0.251,-0.251,-0.251,-0.251,-0.251,-0.251,-0.251,-0.251,-0.251,-0.2516,-0.2516,-0.2591,-0.2744,-0.2823,-0.2901,-0.2901,-0.3056,-0.3679,-0.4146,-0.4231,-0.4325,-0.4358,-0.4407,-0.453,-0.4444,-0.4353,-0.4175,-0.4029,-0.385,-0.3766,-0.3651,-0.3538,-0.3528,-0.3604,-0.3841,-0.3995,-0.4075,-0.4155,-0.3997,-0.3839,-0.4006,-0.4088,-0.4097,-0.4095,-0.4081,-0.4077,-0.4311,-0.4233,-0.4233,-0.4155,-0.4155,-0.4311,-0.4467,-0.4465,-0.4545,-1.2436,-1.2615,-1.1567,-1.0905,-1.0654,-1.0772,-1.0795,-1.0788,-1.0788,-1.086,-1.0762,-1.0353,-0.9779,-0.925,-0.849,-0.7826,-0.7555,-0.6971,-0.6623,-0.6407,-0.5956,-0.5222,-0.4541,-0.3916,-0.317,-0.2456,-0.2353,-0.2386,-0.2425,-0.2377,-0.2434,-0.2595,-0.2719,-0.273,-0.265,-0.2684,-0.2674,-0.2643,-0.2591,-0.257,-0.2587,-0.2572,-0.2553,-0.2553,-0.2552,-0.2561,-0.2552,-0.256,-0.2555,-0.255,-0.2529,-0.251,-0.251,-0.251,-0.251,-0.251,-0.251,-0.251,-0.251,-0.251,-0.251,-0.251,-0.251,-0.251,-0.251,-0.251,-0.251,-0.2516,-0.2534,-0.2553,-0.255,-0.2519,-0.2514,-0.251,-0.251,-0.251,-0.2588,-0.2901,-0.3215,-0.3215,-0.3374,-0.3474,-0.3484,-0.3482,-0.3517,-0.3674,-0.3488,-0.3277,-0.3234,-0.3063,-0.3105,-0.3077,-0.3142,-0.3215,-0.3452,-0.3608,-0.3684,-0.3686,-0.353,-0.3294,-0.3217,-0.3295,-0.3372,-0.3448,-0.3684,-0.3841,-0.3997,-0.3841,-0.3763,-0.3841,-0.3919,-0.3997,-0.3997,-0.4077,-0.4077,-1.1659,-1.211,-1.1024,-1.0618,-1.0618,-1.0624,-1.0638,-1.0631,-1.0618,-1.0658,-1.0428,-0.9843,-0.9518,-0.9069,-0.8102,-0.7579,-0.7364,-0.7189,-0.683,-0.6696,-0.5934,-0.5297,-0.452,-0.3661,-0.2976,-0.2493,-0.2441,-0.2443,-0.2458,-0.2389,-0.243,-0.2586,-0.2683,-0.2612,-0.2606,-0.2602,-0.2604,-0.2583,-0.2546,-0.2546,-0.2591,-0.2595,-0.2594,-0.2593,-0.2612,-0.2597,-0.2582,-0.259,-0.2597,-0.2541,-0.2529,-0.2519,-0.2511,-0.251,-0.251,-0.251,-0.251,-0.251,-0.251,-0.251,-0.251,-0.251,-0.251,-0.251,-0.251,-0.251,-0.251,-0.2523,-0.2542,-0.2571,-0.2582,-0.2541,-0.2514,-0.251,-0.251,-0.251,-0.251,-0.251,-0.2588,-0.2588,-0.2824,-0.2992,-0.3005,-0.301,-0.3044,-0.3078,-0.2802,-0.2655,-0.2614,-0.2583,-0.2624,-0.2764,-0.2829,-0.2823,-0.3059,-0.3137,-0.3215,-0.3215,-0.3061,-0.2904,-0.2668,-0.2823,-0.2979,-0.3214,-0.3448,-0.3528,-0.3528,-0.3372,-0.3372,-0.3606,-0.3606,-0.345,-0.3528,-0.3686,-0.3686,-1.0821,-1.0898,-1.0694,-1.0618,-1.0618,-1.0618,-1.0618,-1.0618,-1.0618,-1.0618,-1.0491,-0.9779,-0.9198,-0.8549,-0.7907,-0.7313,-0.695,-0.6937,-0.694,-0.6742,-0.5943,-0.5204,-0.452,-0.3283,-0.2665,-0.2551,-0.2455,-0.2363,-0.2455,-0.2476,-0.252,-0.2585,-0.2595,-0.2514,-0.2594,-0.2598,-0.257,-0.2542,-0.252,-0.2541,-0.2578,-0.2591,-0.2517,-0.2522,-0.2559,-0.2571,-0.2573,-0.2664,-0.2672,-0.2659,-0.2613,-0.2561,-0.2444,-0.2431,-0.2431,-0.251,-0.251,-0.251,-0.251,-0.251,-0.251,-0.251,-0.251,-0.251,-0.251,-0.2511,-0.2514,-0.2519,-0.2523,-0.253,-0.2525,-0.2519,-0.2512,-0.251,-0.251,-0.251,-0.251,-0.251,-0.251,-0.251,-0.2588,-0.2668,-0.2678,-0.2684,-0.2695,-0.2626,-0.2485,-0.2339,-0.2319,-0.2382,-0.2367,-0.2437,-0.2589,-0.2588,-0.2588,-0.2666,-0.2744,-0.2823,-0.2746,-0.2746,-0.2588,-0.251,-0.2666,-0.2901,-0.2979,-0.2901,-0.2823,-0.2901,-0.2901,-0.3057,-0.2981,-0.2902,-0.3059,-0.3215,-0.3217,-1.0329,-1.0602,-1.0403,-1.0421,-1.0604,-1.0618,-1.0618,-1.0618,-1.0618,-1.0364,-0.9983,-0.9542,-0.8829,-0.7982,-0.7265,-0.6805,-0.6679,-0.6956,-0.6972,-0.6675,-0.5988,-0.5237,-0.453,-0.3147,-0.2582,-0.2381,-0.2384,-0.2308,-0.2469,-0.2495,-0.2529,-0.2545,-0.2555,-0.2553,-0.2553,-0.255,-0.246,-0.2434,-0.2434,-0.2446,-0.2394,-0.2398,-0.2408,-0.2365,-0.2322,-0.2338,-0.2322,-0.2345,-0.2338,-0.2308,-0.2263,-0.2229,-0.2208,-0.2199,-0.2276,-0.2431,-0.251,-0.251,-0.251,-0.251,-0.251,-0.251,-0.251,-0.251,-0.251,-0.2512,-0.2522,-0.2541,-0.2522,-0.2525,-0.2556,-0.2527,-0.2512,-0.251,-0.2431,-0.2431,-0.2431,-0.2431,-0.2353,-0.2273,-0.2353,-0.2431,-0.251,-0.2512,-0.2353,-0.2195,-0.2038,-0.2038,-0.2038,-0.1961,-0.1884,-0.2196,-0.2275,-0.2353,-0.2431,-0.2431,-0.251,-0.251,-0.251,-0.251,-0.251,-0.251,-0.251,-0.2588,-0.251,-0.251,-0.251,-0.2666,-0.2588,-0.251,-0.2588,-0.2668,-0.2746,-0.2824,-0.2824,-0.9964,-1.0382,-1.0167,-1.02,-1.0448,-1.0474,-1.0438,-1.0485,-1.0491,-1.011,-0.9524,-0.9233,-0.8582,-0.754,-0.6854,-0.6493,-0.6522,-0.6909,-0.6901,-0.6588,-0.5923,-0.5173,-0.4259,-0.3182,-0.2258,-0.2207,-0.2151,-0.2187,-0.2425,-0.2511,-0.2433,-0.2362,-0.2357,-0.2354,-0.2358,-0.2364,-0.2276,-0.2276,-0.2276,-0.2278,-0.2211,-0.2144,-0.2077,-0.203,-0.1993,-0.1997,-0.2046,-0.2079,-0.2074,-0.2041,-0.1925,-0.1978,-0.189,-0.1887,-0.2043,-0.2276,-0.2354,-0.2356,-0.2354,-0.2354,-0.2354,-0.2431,-0.2431,-0.2431,-0.251,-0.2514,-0.2527,-0.2563,-0.2466,-0.2446,-0.2471,-0.2458,-0.2358,-0.2275,-0.2196,-0.2038,-0.1881,-0.1724,-0.1488,-0.1567,-0.1881,-0.1959,-0.1959,-0.1804,-0.1568,-0.149,-0.1412,-0.1412,-0.1334,-0.1099,-0.1178,-0.1726,-0.204,-0.2195,-0.2273,-0.2431,-0.2431,-0.251,-0.251,-0.251,-0.251,-0.251,-0.251,-0.2431,-0.251,-0.251,-0.251,-0.251,-0.251,-0.251,-0.251,-0.251,-0.2588,-0.2588,-0.2668,-0.9719,-0.9831,-0.974,-0.9847,-1.0038,-0.9991,-1.0011,-1.0072,-1.0192,-0.9983,-0.9209,-0.9163,-0.8506,-0.7494,-0.6844,-0.6635,-0.6648,-0.6706,-0.6722,-0.6495,-0.5578,-0.4801,-0.3984,-0.2477,-0.1928,-0.188,-0.1899,-0.2003,-0.2187,-0.2357,-0.228,-0.2123,-0.1964,-0.1964,-0.2043,-0.2043,-0.1964,-0.1964,-0.1964,-0.1981,-0.2014,-0.2049,-0.2049,-0.1965,-0.1983,-0.1993,-0.1878,-0.1904,-0.1988,-0.1955,-0.1944,-0.1923,-0.1895,-0.1887,-0.1887,-0.1964,-0.1964,-0.1964,-0.2043,-0.2043,-0.212,-0.2196,-0.2275,-0.2353,-0.2353,-0.2353,-0.2278,-0.2516,-0.2276,-0.2121,-0.1974,-0.1968,-0.1964,-0.1649,-0.1254,-0.1019,-0.0783,-0.0548,-0.0313,-0.0157,-0.0313,-0.0861,-0.1096,-0.0941,-0.0785,-0.0785,-0.0707,-0.0707,-0.0785,-0.0629,-0.0629,-0.1178,-0.1569,-0.1725,-0.1882,-0.2038,-0.2038,-0.2196,-0.2353,-0.2353,-0.2273,-0.2273,-0.2353,-0.2353,-0.2353,-0.2275,-0.2118,-0.2118,-0.2353,-0.2353,-0.2117,-0.2275,-0.251,-0.251,-0.2353,-0.8994,-0.9023,-0.9136,-0.9234,-0.936,-0.9504,-0.9641,-0.9618,-0.9449,-0.8955,-0.8511,-0.8685,-0.8024,-0.6811,-0.6313,-0.6265,-0.6308,-0.6383,-0.6325,-0.6091,-0.5281,-0.4448,-0.3704,-0.2406,-0.1663,-0.1701,-0.1659,-0.1692,-0.1872,-0.2042,-0.2045,-0.1887,-0.1652,-0.1729,-0.1811,-0.1888,-0.1808,-0.1808,-0.1731,-0.1738,-0.1755,-0.177,-0.1774,-0.1598,-0.1633,-0.1637,-0.1635,-0.1638,-0.1645,-0.1623,-0.161,-0.1589,-0.1576,-0.1573,-0.1573,-0.1573,-0.1572,-0.1651,-0.1887,-0.1887,-0.1886,-0.1963,-0.2042,-0.2042,-0.2042,-0.1725,-0.1725,-0.2121,-0.1176,-0.094,-0.1096,-0.0784,-0.0549,-0.0314,-0.0157,-0.0,0.0313,0.0783,0.1018,0.1175,0.1254,0.0705,0.0157,-0.0,0.0078,0.0078,0.0078,-0.0,-0.0236,-0.0471,-0.0471,-0.0707,-0.0942,-0.1176,-0.1333,-0.1491,-0.1177,-0.1333,-0.1803,-0.1803,-0.1881,-0.1959,-0.1881,-0.1725,-0.149,-0.1491,-0.1491,-0.1726,-0.1882,-0.1803,-0.1647,-0.1803,-0.1882,-0.2037,-0.2037,-0.8327,-0.8441,-0.8618,-0.8714,-0.8774,-0.9035,-0.9215,-0.9227,-0.8745,-0.8145,-0.7615,-0.7654,-0.6962,-0.6086,-0.587,-0.5977,-0.5973,-0.6022,-0.5925,-0.5568,-0.4904,-0.4167,-0.3341,-0.2207,-0.1478,-0.1518,-0.1479,-0.144,-0.1547,-0.1645,-0.173,-0.1731,-0.1508,-0.1501,-0.1658,-0.1675,-0.1607,-0.1511,-0.1499,-0.1496,-0.1497,-0.1497,-0.1419,-0.1344,-0.1277,-0.1292,-0.1291,-0.1372,-0.1371,-0.1366,-0.1351,-0.1418,-0.1336,-0.1099,-0.11,-0.11,-0.0942,-0.0706,-0.1178,-0.1492,-0.1649,-0.1492,-0.1335,-0.1099,-0.1099,-0.0627,-0.047,-0.1099,-0.0235,0.0078,0.0078,0.0392,0.047,0.0705,0.094,0.1018,0.1175,0.1802,0.2193,0.2349,0.2429,0.2353,0.1803,0.1254,0.1019,0.0863,0.0864,0.0785,0.0549,0.0236,0.0314,0.0314,-0.0,-0.0235,-0.0392,-0.0549,-0.0392,-0.0471,-0.0941,-0.1019,-0.094,-0.1019,-0.1018,-0.0862,-0.0627,-0.0549,-0.047,-0.0941,-0.1333,-0.1256,-0.1177,-0.1098,-0.1176,-0.1411,-0.1803,-0.8068,-0.8246,-0.8353,-0.8463,-0.8527,-0.8596,-0.8681,-0.8719,-0.8276,-0.7688,-0.6911,-0.6356,-0.5891,-0.5577,-0.5698,-0.5822,-0.5892,-0.5697,-0.5634,-0.5299,-0.4498,-0.377,-0.296,-0.2031,-0.1168,-0.1203,-0.1236,-0.1265,-0.1293,-0.1406,-0.1412,-0.1338,-0.1354,-0.1353,-0.1364,-0.147,-0.1392,-0.1375,-0.1355,-0.1339,-0.1337,-0.1336,-0.1336,-0.1336,-0.1338,-0.134,-0.126,-0.1185,-0.1028,-0.1029,-0.0945,-0.0942,-0.0706,-0.0392,-0.0392,-0.0549,0.0157,0.0235,-0.0157,-0.0706,-0.0863,-0.047,-0.0078,0.0157,0.0157,0.0313,0.0392,0.0392,0.094,0.1019,0.1018,0.1096,0.1488,0.1723,0.1958,0.2116,0.2429,0.2898,0.329,0.3526,0.345,0.3215,0.3059,0.2429,0.1881,0.1726,0.1726,0.1648,0.1725,0.149,0.1647,0.1568,0.1097,0.0861,0.0705,0.0627,0.0627,0.0392,-0.0,0.0078,0.0235,0.0157,-0.0,0.0235,0.047,0.047,0.047,0.0235,-0.0078,-0.0471,-0.0629,-0.0471,-0.0863,-0.1255,-0.1803,-0.7949,-0.8014,-0.8086,-0.8087,-0.816,-0.813,-0.8239,-0.8244,-0.7466,-0.6606,-0.5868,-0.5406,-0.529,-0.5434,-0.5508,-0.5557,-0.5557,-0.5557,-0.5488,-0.5017,-0.422,-0.3487,-0.2748,-0.1961,-0.1101,-0.114,-0.1164,-0.1195,-0.124,-0.1251,-0.1333,-0.1342,-0.1273,-0.1296,-0.1313,-0.1326,-0.1324,-0.131,-0.129,-0.1278,-0.1337,-0.1336,-0.1336,-0.1336,-0.1336,-0.0942,-0.0628,-0.0549,-0.0235,0.0078,0.0157,0.0157,0.0157,0.0627,0.0549,0.0235,0.1019,0.1097,0.094,0.047,0.047,0.0549,0.0861,0.1096,0.1175,0.141,0.141,0.1488,0.2035,0.2271,0.1959,0.2429,0.2899,0.2899,0.2978,0.3136,0.3294,0.3684,0.3763,0.3684,0.3763,0.3606,0.3606,0.345,0.2981,0.2589,0.251,0.251,0.251,0.2431,0.2431,0.2431,0.1959,0.1645,0.1488,0.1488,0.1488,0.1254,0.0941,0.1097,0.1254,0.1175,0.1096,0.1332,0.1567,0.1645,0.1646,0.1489,0.1098,0.0549,0.0314,0.0236,-0.0314,-0.0941,-0.149,-0.7741,-0.7913,-0.7913,-0.7794,-0.7639,-0.7609,-0.7543,-0.7413,-0.65,-0.5672,-0.4963,-0.4897,-0.505,-0.5247,-0.5415,-0.5425,-0.5425,-0.5428,-0.5226,-0.4758,-0.402,-0.3284,-0.2554,-0.1836,-0.1112,-0.1151,-0.1179,-0.1208,-0.1236,-0.1251,-0.1264,-0.1347,-0.1342,-0.1286,-0.1304,-0.133,-0.1326,-0.1319,-0.1304,-0.1288,-0.1341,-0.1021,-0.0863,-0.0785,-0.0549,-0.0157,0.0235,0.0392,0.0627,0.094,0.1175,0.1254,0.1332,0.1488,0.1488,0.1567,0.1723,0.1881,0.1724,0.1646,0.1646,0.1645,0.2036,0.2115,0.2194,0.2586,0.2586,0.235,0.3134,0.3528,0.2901,0.3292,0.3528,0.3448,0.3448,0.3606,0.3606,0.3763,0.3763,0.3763,0.3841,0.3763,0.3763,0.3686,0.3528,0.3137,0.3215,0.3136,0.3057,0.2981,0.2746,0.2746,0.2588,0.2352,0.2117,0.2195,0.2273,0.2195,0.2038,0.2116,0.2194,0.2037,0.2194,0.2429,0.2663,0.2823,0.2744,0.2431,0.2038,0.1489,0.1333,0.1178,0.0706,0.0078,-0.0627,-0.7413,-0.786,-0.7913,-0.7563,-0.7036,-0.689,-0.6608,-0.6426,-0.5719,-0.5181,-0.48,-0.4793,-0.4941,-0.5169,-0.5301,-0.5266,-0.5226,-0.5226,-0.496,-0.4289,-0.3687,-0.3084,-0.2301,-0.1511,-0.1121,-0.1136,-0.1173,-0.1209,-0.1222,-0.1246,-0.127,-0.1279,-0.1347,-0.1343,-0.1344,-0.1291,-0.1318,-0.1254,-0.1234,-0.113,-0.0793,-0.0315,-0.0079,0.0078,0.0468,0.0856,0.1175,0.1246,0.1402,0.1722,0.1723,0.1723,0.1724,0.2273,0.2195,0.1724,0.2899,0.3136,0.2588,0.251,0.251,0.2508,0.2899,0.3292,0.3526,0.3684,0.3606,0.3214,0.3684,0.3841,0.3763,0.3763,0.3763,0.3841,0.3841,0.3841,0.3841,0.3841,0.3841,0.3841,0.3841,0.3841,0.3841,0.3763,0.3763,0.3684,0.3763,0.3684,0.3528,0.3372,0.3137,0.3137,0.3137,0.2981,0.2823,0.2982,0.2982,0.2982,0.2981,0.2901,0.2979,0.2979,0.3136,0.3526,0.3526,0.337,0.3372,0.3374,0.2901,0.243,0.2273,0.204,0.1568,0.1019,0.0235,-0.7521,-0.7419,-0.7726,-0.71,-0.5937,-0.5433,-0.5597,-0.6041,-0.5576,-0.511,-0.4845,-0.4809,-0.4979,-0.5186,-0.5162,-0.5065,-0.4743,-0.4622,-0.4287,-0.3551,-0.309,-0.2549,-0.1966,-0.1456,-0.1134,-0.1157,-0.1194,-0.1226,-0.1245,-0.1254,-0.1337,-0.1345,-0.1346,-0.135,-0.1291,-0.1233,-0.1088,-0.0504,-0.025,-0.0082,0.0402,0.072,0.0875,0.0862,0.1161,0.1547,0.2033,0.2094,0.2246,0.2659,0.2741,0.2741,0.2821,0.3215,0.3136,0.2899,0.3763,0.3684,0.3372,0.337,0.3372,0.345,0.3528,0.3841,0.3841,0.3841,0.3841,0.3841,0.3841,0.3841,0.3763,0.3763,0.3841,0.3841,0.3841,0.3841,0.3841,0.3841,0.3841,0.3841,0.3841,0.3841,0.3841,0.3841,0.3841,0.3841,0.3841,0.3841,0.3684,0.3684,0.3606,0.3606,0.3606,0.3528,0.353,0.3452,0.3452,0.3374,0.345,0.3528,0.3606,0.3606,0.3606,0.3684,0.3763,0.3763,0.3686,0.3608,0.3608,0.3372,0.2979,0.2588,0.2037,0.1567,0.1019,-0.7133,-0.681,-0.6747,-0.6192,-0.5277,-0.4718,-0.4937,-0.5496,-0.5179,-0.4944,-0.4834,-0.4735,-0.4863,-0.5104,-0.5108,-0.4775,-0.4292,-0.4273,-0.3616,-0.2887,-0.2443,-0.2044,-0.1655,-0.1413,-0.1238,-0.1187,-0.1211,-0.124,-0.1332,-0.1335,-0.1338,-0.1338,-0.1336,-0.1345,-0.1207,-0.0981,-0.058,-0.0,0.0165,0.0653,0.1207,0.1517,0.1749,0.1803,0.2017,0.2394,0.2721,0.3026,0.316,0.3669,0.3841,0.3841,0.3841,0.3841,0.3841,0.3841,0.3841,0.3763,0.3763,0.3763,0.3684,0.3763,0.3841,0.3841,0.3841,0.3841,0.3841,0.3841,0.3841,0.3841,0.3841,0.3841,0.3841,0.3841,0.3841,0.3841,0.3841,0.3841,0.3841,0.3841,0.3841,0.3841,0.3841,0.3841,0.3841,0.3841,0.3841,0.3841,0.3841,0.3841,0.3841,0.3841,0.3763,0.3763,0.3684,0.3684,0.3763,0.3763,0.3841,0.3763,0.3763,0.3684,0.3763,0.3841,0.3841,0.3841,0.3841,0.3763,0.3684,0.3606,0.3372,0.2899,0.2429,0.2116,0.1802,-0.6209,-0.5991,-0.5011,-0.4901,-0.5113,-0.468,-0.4515,-0.4519,-0.4519,-0.4611,-0.4691,-0.4749,-0.4852,-0.4938,-0.4998,-0.4617,-0.4019,-0.404,-0.3207,-0.2433,-0.1992,-0.1594,-0.1348,-0.1172,-0.1192,-0.1215,-0.1236,-0.1249,-0.1336,-0.1336,-0.1336,-0.1336,-0.1336,-0.1341,-0.1114,-0.0481,-0.0,0.0408,0.0735,0.1295,0.192,0.2298,0.253,0.2665,0.3032,0.3343,0.3587,0.3579,0.3663,0.3834,0.3841,0.3841,0.3841,0.3841,0.3841,0.3841,0.3841,0.3841,0.3841,0.3841,0.3841,0.3841,0.3841,0.3841,0.3841,0.3841,0.3841,0.3841,0.3841,0.3841,0.3841,0.3841,0.3841,0.3841,0.3841,0.3841,0.3841,0.3841,0.3919,0.3997,0.3997,0.3919,0.3841,0.3841,0.3841,0.3841,0.3841,0.3841,0.3841,0.3841,0.3841,0.3841,0.3841,0.3841,0.3841,0.3841,0.3841,0.3841,0.3841,0.3841,0.3841,0.3841,0.3841,0.3841,0.3841,0.3841,0.3841,0.3841,0.3763,0.3684,0.3606,0.3528,0.3056,0.2979,0.2823,-0.6312,-0.5441,-0.5631,-0.5246,-0.4519,-0.4356,-0.4356,-0.4463,-0.4463,-0.4548,-0.4687,-0.4628,-0.4677,-0.485,-0.4405,-0.3846,-0.3356,-0.2836,-0.2204,-0.1697,-0.152,-0.1325,-0.1214,-0.118,-0.1204,-0.1223,-0.124,-0.1336,-0.1336,-0.1336,-0.1336,-0.1336,-0.1336,-0.1336,-0.0787,0.0158,0.064,0.1049,0.1294,0.1931,0.2645,0.3195,0.3335,0.3456,0.3559,0.3795,0.3812,0.3782,0.3712,0.3826,0.3837,0.3841,0.3841,0.3841,0.3841,0.3841,0.3841,0.3841,0.3841,0.3841,0.3841,0.3841,0.3841,0.3841,0.3841,0.3841,0.3841,0.3841,0.3841,0.3841,0.3841,0.3841,0.3841,0.3841,0.3841,0.3843,0.3919,0.4153,0.4231,0.4384,0.4462,0.4153,0.3997,0.3841,0.3841,0.3841,0.3841,0.3841,0.3841,0.3841,0.3841,0.3841,0.3841,0.3841,0.3841,0.3841,0.3841,0.3841,0.3841,0.3841,0.3841,0.3841,0.3841,0.3841,0.3841,0.3841,0.3841,0.3841,0.3841,0.3841,0.3763,0.3763,0.3763,0.3608,0.3452,-0.5987,-0.5062,-0.5352,-0.4967,-0.4245,-0.4193,-0.4301,-0.4463,-0.4463,-0.4524,-0.4582,-0.4504,-0.4482,-0.4323,-0.3978,-0.3379,-0.2579,-0.2381,-0.1812,-0.1353,-0.1107,-0.1127,-0.1153,-0.1185,-0.1215,-0.1232,-0.1245,-0.1336,-0.1336,-0.1336,-0.1336,-0.1336,-0.1336,-0.1336,-0.0943,-0.0,0.0869,0.1434,0.2001,0.2723,0.3205,0.3689,0.3805,0.3845,0.3774,0.3863,0.3866,0.3745,0.3857,0.3956,0.3962,0.3997,0.3997,0.3997,0.3921,0.3921,0.3841,0.3843,0.3921,0.3841,0.3841,0.3841,0.3841,0.3841,0.3841,0.3841,0.3841,0.3841,0.3841,0.3841,0.3841,0.3841,0.3841,0.3841,0.3843,0.3921,0.4155,0.4465,0.4698,0.4929,0.4851,0.4543,0.4233,0.3997,0.3841,0.3841,0.3841,0.3841,0.3841,0.3841,0.3841,0.3841,0.3841,0.3841,0.3843,0.3845,0.3847,0.3845,0.3841,0.3841,0.3843,0.3845,0.3849,0.3845,0.3841,0.3841,0.3841,0.3841,0.3841,0.3841,0.3841,0.3841,0.3841,0.3763,0.3684,-0.5445,-0.4691,-0.4519,-0.4298,-0.4021,-0.4135,-0.4301,-0.4463,-0.4408,-0.4408,-0.4415,-0.4408,-0.4029,-0.3629,-0.3361,-0.2851,-0.2233,-0.1902,-0.1604,-0.1077,-0.1107,-0.1132,-0.1163,-0.1197,-0.1224,-0.1246,-0.1336,-0.1336,-0.1336,-0.1336,-0.1336,-0.1336,-0.1336,-0.1336,-0.11,-0.0314,0.0708,0.1814,0.2605,0.3233,0.3071,0.3377,0.3841,0.3843,0.3982,0.4048,0.4002,0.4079,0.4115,0.4162,0.4169,0.4229,0.4231,0.4233,0.4155,0.4077,0.3997,0.3997,0.3999,0.3921,0.3841,0.3841,0.3841,0.3841,0.3841,0.3841,0.3841,0.3841,0.3841,0.3841,0.3841,0.3841,0.3841,0.3919,0.3997,0.4155,0.4467,0.4932,0.5395,0.555,0.555,0.5165,0.4854,0.4618,0.4538,0.4229,0.4151,0.4151,0.4151,0.4151,0.3995,0.3999,0.3874,0.3874,0.3851,0.3777,0.3777,0.3853,0.3851,0.387,0.3812,0.3799,0.3779,0.3785,0.3793,0.3849,0.3841,0.3841,0.3843,0.3841,0.3841,0.3841,0.3843,0.3851,0.3841,-0.5563,-0.4691,-0.4411,-0.4076,-0.3738,-0.4076,-0.4249,-0.4245,-0.3962,-0.3849,-0.3796,-0.3799,-0.3485,-0.2985,-0.2598,-0.2134,-0.1946,-0.1489,-0.1253,-0.1144,-0.1104,-0.1131,-0.1165,-0.1191,-0.1225,-0.1327,-0.1336,-0.1258,-0.1258,-0.1258,-0.1258,-0.1258,-0.1258,-0.1258,-0.1257,-0.0471,0.0628,0.2434,0.2979,0.353,0.3612,0.3688,0.3999,0.3999,0.407,0.4217,0.419,0.4278,0.4373,0.4361,0.437,0.4384,0.4384,0.4389,0.4311,0.4307,0.4242,0.4169,0.4088,0.4008,0.3921,0.3841,0.3841,0.3841,0.3841,0.3841,0.3841,0.3841,0.3841,0.3841,0.3841,0.3841,0.3841,0.3997,0.4153,0.4467,0.4779,0.5476,0.6093,0.617,0.617,0.586,0.5473,0.5237,0.5234,0.5234,0.5237,0.5237,0.5234,0.5157,0.4691,0.4555,0.4002,0.3926,0.3887,0.3783,0.3783,0.3795,0.3799,0.3826,0.3857,0.3848,0.3834,0.383,0.3828,0.3816,0.3874,0.3843,0.3843,0.387,0.3868,0.3801,0.3801,0.3808,0.3862,-0.5677,-0.4739,-0.4245,-0.391,-0.3852,-0.4079,-0.4193,-0.4135,-0.3793,-0.3572,-0.3418,-0.3288,-0.2875,-0.2383,-0.1967,-0.1641,-0.1502,-0.1216,-0.1106,-0.1063,-0.1091,-0.1117,-0.1148,-0.1178,-0.1281,-0.1308,-0.133,-0.1258,-0.11,-0.0943,-0.0943,-0.0864,-0.0864,-0.0943,-0.0942,-0.0235,0.1411,0.3692,0.3763,0.3921,0.4164,0.4238,0.4233,0.4231,0.4309,0.437,0.4421,0.4493,0.4548,0.4553,0.4632,0.4565,0.4606,0.4617,0.4654,0.4557,0.4463,0.4295,0.4286,0.4106,0.4003,0.3841,0.3841,0.3841,0.3841,0.3841,0.3841,0.3841,0.3841,0.3841,0.3841,0.3841,0.4075,0.4311,0.4543,0.4776,0.5553,0.6405,0.6791,0.6942,0.6714,0.6328,0.5938,0.5547,0.5547,0.5777,0.5857,0.6083,0.6083,0.616,0.5696,0.5246,0.4854,0.4154,0.3866,0.3779,0.3787,0.3801,0.3818,0.3848,0.3873,0.3887,0.3891,0.391,0.3908,0.3883,0.3859,0.382,0.3854,0.3906,0.3879,0.3848,0.3848,0.3863,0.3877,-0.5673,-0.4842,-0.4125,-0.3907,-0.4021,-0.419,-0.4135,-0.3971,-0.3685,-0.3352,-0.3033,-0.2542,-0.2147,-0.1933,-0.1768,-0.1372,-0.1138,-0.1014,-0.096,-0.1044,-0.1069,-0.1032,-0.0986,-0.1006,-0.1034,-0.1139,-0.1243,-0.1096,-0.0864,-0.0629,-0.0393,-0.0157,-0.0,-0.0078,-0.0157,0.0704,0.2504,0.416,0.4711,0.4706,0.4706,0.4545,0.4465,0.4465,0.4613,0.4642,0.4617,0.4675,0.472,0.4806,0.4846,0.4807,0.4787,0.4906,0.4971,0.489,0.4688,0.4525,0.443,0.4124,0.3938,0.3841,0.3841,0.3841,0.3841,0.3841,0.3841,0.3919,0.3919,0.3841,0.3841,0.4097,0.4411,0.4704,0.4937,0.5398,0.6328,0.7126,0.7301,0.7529,0.7215,0.6828,0.6588,0.6197,0.624,0.6395,0.6549,0.6773,0.6927,0.7084,0.6927,0.6465,0.6045,0.5257,0.4304,0.4101,0.42,0.3795,0.3814,0.3854,0.3897,0.394,0.3979,0.4014,0.4006,0.3944,0.3914,0.3883,0.3936,0.3997,0.3967,0.393,0.3948,0.3969,0.401,-0.5668,-0.4886,-0.4349,-0.4079,-0.4079,-0.4298,-0.4021,-0.3411,-0.3355,-0.3021,-0.2312,-0.1327,-0.0877,-0.1201,-0.12,-0.0999,-0.0926,-0.0871,-0.0952,-0.1036,-0.1065,-0.0888,-0.0768,-0.0711,-0.0655,-0.0828,-0.1009,-0.1176,-0.0471,-0.0,0.1334,0.3379,0.3616,0.3061,0.1879,0.266,0.3209,0.455,0.5023,0.494,0.4862,0.4781,0.4623,0.4623,0.4698,0.4766,0.4841,0.4924,0.491,0.4982,0.4982,0.4953,0.5028,0.5109,0.5189,0.5131,0.4844,0.472,0.4522,0.4207,0.3932,0.3841,0.3841,0.3841,0.3841,0.3841,0.3997,0.4309,0.4309,0.3997,0.4088,0.4629,0.4967,0.5294,0.55,0.6261,0.7103,0.7454,0.7703,0.7845,0.7828,0.7745,0.7816,0.7672,0.7778,0.7931,0.7936,0.8084,0.8156,0.8156,0.8084,0.7698,0.7314,0.6311,0.5309,0.4915,0.4783,0.4207,0.3901,0.3966,0.4032,0.4018,0.4057,0.4168,0.4118,0.3963,0.3942,0.3959,0.4072,0.4204,0.403,0.4018,0.4042,0.4069,0.4108]},{"header":{"parameterUnit":"m.s-1","parameterCategory":1,"la1":31.0,"la2":29.5877,"lo1":-88.7671,"lo2":-86.6584,"dy":0.0162,"dx":0.0185,"nx":115,"ny":88,"refTime":"2023-07-16T06:00:00:Z","depth":0,"parameterNumber":3,"parameterNumberName":"V-component_of_WINDS"},"data":[0.0,0.0,0.0,0.0,0.0,0.0,0.0,0.0,0.0,0.0,0.0,0.0,0.0,0.0,0.0,0.0,0.0,0.0,0.0,0.0,0.0,0.0,0.0,0.0,0.0,0.0,0.0,0.0,0.0,0.0,0.0,0.0,0.0,0.0,0.0,0.0,0.0,0.0,0.0,0.0,0.0,0.0,0.0,0.0,0.0,0.0,0.0,0.0,0.0,0.0,0.0,0.0,0.0,0.0,0.0,0.0,0.0,0.0,0.0,0.0,0.0,0.0,0.0,0.0,0.0,0.0,0.0,0.0,0.0,0.0,0.0,0.0,0.0,0.0,0.0,0.0,0.0,0.0,0.0,0.0,0.0,0.0,0.0,0.0,0.0,0.0,0.0,0.0,0.0,0.0,0.0,0.0,0.0,0.0,0.0,0.0,0.0,0.0,0.0,0.0,0.0,0.0,0.0,0.0,0.0,0.0,0.0,0.0,0.0,0.0,0.0,0.0,0.0,0.0,0.0,0.0,0.0,0.0,0.0,0.0,0.0,0.0,0.0,0.0,0.0,0.0,0.0,0.0,0.0,0.0,0.0,0.0,0.0,0.0,0.0,0.0,0.0,0.0,0.0,0.0,0.0,0.0,0.0,0.0,0.0,0.0,0.0,0.0,0.0,0.0,0.0,0.0,0.0,0.0,0.0,0.0,0.0,0.0,0.0,0.0,0.0,0.0,0.0,0.0,0.0,0.0,0.0,0.0,0.0,0.0,0.0,0.0,0.0,0.0,0.0,0.0,0.0,0.0,0.0,0.0,0.0,0.0,0.0,0.0,0.0,0.0,0.0,0.0,0.0,0.0,0.0,0.0,0.0,0.0,0.0,0.0,0.0,0.0,0.0,0.0,0.0,0.0,0.0,0.0,0.0,0.0,0.0,0.0,0.0,0.0,0.0,0.0,0.0,0.0,0.0,0.0,0.0,0.0,0.0,0.0,0.0,0.0,0.0,0.0,0.0,0.0,0.0,0.0,0.0,0.0,0.0,0.0,0.0,0.0,0.0,0.0,0.0,0.0,0.0,0.0,0.0,0.0,0.0,0.0,0.0,0.0,0.0,0.0,0.0,0.0,0.0,0.0,0.0,0.0,0.0,0.0,0.0,0.0,0.0,0.0,0.0,0.0,0.0,0.0,0.0,0.0,0.0,0.0,0.0,0.0,0.0,0.0,0.0,0.0,0.0,0.0,0.0,0.0,0.0,0.0,0.0,0.0,0.0,0.0,0.0,0.0,0.0,0.0,0.0,0.0,0.0,0.0,0.0,0.0,0.0,0.0,0.0,0.0,0.0,0.0,0.0,0.0,0.0,0.0,0.0,0.0,0.0,0.0,0.0,0.0,0.0,0.0,0.0,0.0,0.0,0.0,0.0,0.0,0.0,0.0,0.0,0.0,0.0,0.0,0.0,0.0,0.0,0.0,0.0,0.0,0.0,0.0,0.0,0.0,0.0,0.0,0.0,0.0,0.0,0.0,0.0,0.0,0.0,0.0,0.0,0.0,0.0,0.0,0.0,0.0,0.0,0.0,0.0,0.0,0.0,0.0,0.0,0.0,0.0,0.0,0.0,0.0,0.0,0.0,0.0,0.0,0.0,0.0,0.0,0.0,0.0,0.0,0.0,0.0,0.0,0.0,0.0,0.0,0.0,0.0,0.0,0.0,0.0,0.0,0.0,0.0,0.0,0.0,0.0,0.0,0.0,0.0,0.0,0.0,0.0,0.0,0.0,0.0,0.0,0.0,0.0,0.0,0.0,0.0,0.0,0.0,0.0,0.0,0.0,0.0,0.0,0.0,0.0,0.0,0.0,0.0,0.0,0.0,0.0,0.0,0.0,0.0,0.0,0.0,0.0,0.0,0.0,0.0,0.0,0.0,0.0,0.0,0.0,0.0,0.0,0.0,0.0,0.0,0.0,0.0,0.0,0.0,0.0,0.0,0.0,0.0,0.0,0.0,0.0,0.0,0.0,0.0,0.0,0.0,0.0,0.0,0.0,0.0,0.0,0.0,0.0,0.0,0.0,0.0,0.0,0.0,0.0,0.0,0.0,0.0,0.0,0.0,0.0,0.0,0.0,0.0,0.0,0.0,0.0,0.0,0.0,0.0,0.0,0.0,0.0,0.0,0.0,0.0,0.0,0.0,0.0,0.0,0.0,0.0,0.0,0.0,0.0,0.0,0.0,0.0,0.0,0.0,0.0,0.0,0.0,0.0,0.0,0.0,0.0,0.0,0.0,0.0,0.0,0.0,0.0,0.0,0.0,0.0,0.0,0.0,0.0,0.0,0.0,0.0,0.0,0.0,0.0,0.0,0.0,0.0,0.0,0.0,0.0,0.0,0.0,0.0,0.0,0.0,0.0,0.0,0.0,0.0,0.0,0.0,0.0,0.0,0.0,0.0,0.0,0.0,0.0,0.0,0.0,0.0,0.0,0.0,0.0,0.0,0.0,0.0,0.0,0.0,0.0,0.0,0.0,0.0,0.0,0.0,0.0,0.0,0.0,0.0,0.0,0.0,0.0,0.0,0.0,0.0,0.0,0.0,0.0,0.0,0.0,0.0,0.0,0.0,0.0,0.0,0.0,0.0,0.0,0.0,0.0,0.0,0.0,0.0,0.0,0.0,0.0,0.0,0.0,0.0,0.0,0.0,0.0,0.0,0.0,0.0,0.0,0.0,0.0,0.0,0.0,0.0,0.0,0.0,0.0,0.0,0.0,0.0,0.0,0.0,0.0,0.0,0.0,0.0,0.0,0.0,0.0,0.0,0.0,0.0,0.0,0.0,0.0,0.0,0.0,0.0,0.0,0.0,0.0,0.0,0.0,0.0,0.0,0.0,0.0,0.0,0.0,0.0,0.0,0.0,0.0,0.0,0.0,0.0,0.0,0.0,0.0,0.0,0.0,0.0,0.0,0.0,0.0,0.0,0.0,0.0,0.0,0.0,0.0,0.0,0.0,0.0,0.0,0.0,0.0,0.0,0.0,0.0,0.0,0.0,0.0,0.0,0.0,0.0,0.0,0.0,0.0,0.0,0.0,0.0,0.0,0.0,0.0,0.0,0.0,0.0,0.0,0.0,0.0,0.0,0.0,0.0,0.0,0.0,0.0,0.0,0.0,0.0,0.0,0.0,0.0,0.0,0.0,0.0,0.0,0.0,0.0,0.0,0.0,0.0,0.0,0.0,0.0,0.0,0.0,0.0,0.0,0.0,0.0,0.0,0.0,0.0,0.0,0.0,0.0,0.0,0.0,0.0,0.0,0.0,0.0,0.0,0.0,0.0,0.0,0.0,0.0,0.0,0.0,0.0,0.0,0.0,0.0,0.0,0.0,0.0,0.0,0.0,0.0,0.0,0.0,0.0,0.0,0.0,0.0,0.0,0.0,0.0,0.0,0.0,0.0,0.0,0.0,0.0,0.0,0.0,0.0,0.0,0.0,0.0,0.0,0.0,0.0,0.0,0.0,0.0,0.0,0.0,0.0,0.0,0.0,0.0,0.0,0.0,0.0,0.0,0.0,0.0,0.0,0.0,0.0,0.0,0.0,0.0,0.0,0.0,0.0,0.0,0.0,0.0,0.0,0.0,0.0,0.0,0.0,0.0,0.0,0.0,0.0,0.0,0.0,0.0,0.0,0.0,0.0,0.0,0.0,0.0,0.0,0.0,0.0,0.0,0.0,0.0,0.0,0.0,0.0,0.0,0.0,0.0,0.0,0.0,0.0,0.0,0.0,0.0,0.0,0.0,0.0,0.0,0.0,0.0,0.0,0.0,0.0,0.0,0.0,0.0,0.0,0.0,0.0,0.0,0.0,0.0,0.0,0.0,0.0,0.0,0.0,0.0,0.0,0.0,0.0,0.0,0.0,0.0,0.0,0.0,0.0,0.0,0.0,0.0,0.0,0.0,0.0,0.0,0.0,0.0,0.0,0.0,0.0,0.0,0.0,0.0,0.0,0.0,0.0,0.0,0.0,0.0,0.0,0.0,0.0,0.0,0.0,0.0,0.0,0.0,0.0,0.0,0.0,0.0,0.0,0.0,0.0,0.0,0.0,0.0,0.0,0.0,0.0,0.0,0.0,0.0,0.0,0.0,0.0,0.0,0.0,0.0,0.0,0.0,0.0,0.0,0.0,0.0,0.0,0.0,0.0,0.0,0.0,0.0,0.0,0.0,0.0,0.0,0.0,0.0,0.0,0.0,0.0,0.0,0.0,0.0,0.0,0.0,0.0,0.0,0.0,0.0,0.0,0.0,0.0,0.0,-2.8099,0.0,0.0,0.0,0.0,0.0,0.0,0.0,0.0,0.0,0.0,0.0,0.0,0.0,0.0,0.0,0.0,0.0,0.0,0.0,0.0,0.0,0.0,0.0,0.0,0.0,0.0,0.0,0.0,0.0,0.0,0.0,0.0,0.0,0.0,0.0,0.0,0.0,0.0,0.0,0.0,0.0,0.0,0.0,0.0,0.0,0.0,0.0,0.0,0.0,0.0,0.0,0.0,0.0,0.0,0.0,0.0,0.0,0.0,0.0,0.0,0.0,0.0,0.0,0.0,0.0,0.0,0.0,0.0,0.0,0.0,0.0,0.0,0.0,0.0,0.0,0.0,0.0,0.0,0.0,0.0,0.0,0.0,0.0,0.0,0.0,0.0,0.0,0.0,0.0,0.0,0.0,0.0,0.0,0.0,0.0,0.0,0.0,0.0,0.0,0.0,0.0,0.0,0.0,0.0,0.0,0.0,0.0,0.0,0.0,0.0,-2.8166,-2.7045,-2.7942,-2.8261,-2.781,0.0,0.0,0.0,0.0,0.0,0.0,0.0,0.0,0.0,0.0,0.0,0.0,0.0,0.0,0.0,0.0,0.0,0.0,0.0,0.0,0.0,0.0,0.0,0.0,0.0,0.0,0.0,0.0,0.0,0.0,0.0,0.0,0.0,0.0,0.0,0.0,0.0,0.0,0.0,0.0,0.0,0.0,0.0,0.0,0.0,0.0,0.0,0.0,0.0,0.0,0.0,0.0,0.0,0.0,0.0,0.0,0.0,0.0,0.0,0.0,0.0,0.0,0.0,0.0,0.0,0.0,0.0,0.0,0.0,0.0,0.0,0.0,0.0,0.0,0.0,0.0,0.0,0.0,0.0,0.0,0.0,0.0,0.0,0.0,0.0,0.0,0.0,0.0,0.0,0.0,0.0,0.0,0.0,0.0,0.0,0.0,0.0,0.0,0.0,0.0,0.0,0.0,0.0,0.0,0.0,0.0,0.0,0.0,0.0,0.0,0.0,0.0,-2.7325,-2.818,-2.8149,0.0,0.0,0.0,0.0,0.0,0.0,0.0,0.0,0.0,0.0,0.0,0.0,0.0,0.0,0.0,0.0,0.0,0.0,0.0,0.0,0.0,0.0,0.0,0.0,0.0,0.0,0.0,0.0,0.0,0.0,0.0,0.0,0.0,0.0,0.0,0.0,0.0,0.0,0.0,0.0,0.0,0.0,0.0,0.0,0.0,0.0,0.0,0.0,0.0,0.0,0.0,0.0,0.0,0.0,0.0,0.0,0.0,0.0,0.0,0.0,0.0,0.0,0.0,0.0,0.0,0.0,0.0,0.0,0.0,0.0,0.0,0.0,0.0,0.0,0.0,0.0,0.0,0.0,0.0,0.0,0.0,0.0,0.0,0.0,0.0,0.0,0.0,0.0,0.0,0.0,0.0,0.0,0.0,0.0,0.0,0.0,0.0,0.0,0.0,0.0,0.0,0.0,0.0,0.0,0.0,0.0,0.0,0.0,0.0,0.0,-2.5773,-2.692,-2.8081,0.0,-3.0705,0.0,0.0,0.0,0.0,0.0,0.0,0.0,0.0,0.0,0.0,0.0,0.0,0.0,0.0,0.0,0.0,0.0,0.0,0.0,0.0,0.0,0.0,0.0,0.0,0.0,0.0,0.0,0.0,0.0,0.0,0.0,0.0,0.0,0.0,0.0,0.0,0.0,0.0,0.0,0.0,0.0,0.0,0.0,0.0,0.0,0.0,0.0,0.0,0.0,0.0,0.0,0.0,0.0,0.0,0.0,0.0,0.0,0.0,0.0,0.0,0.0,0.0,0.0,0.0,0.0,0.0,0.0,0.0,0.0,0.0,0.0,0.0,0.0,0.0,0.0,0.0,0.0,0.0,0.0,0.0,0.0,0.0,0.0,0.0,0.0,0.0,0.0,0.0,0.0,0.0,0.0,0.0,0.0,0.0,0.0,0.0,0.0,0.0,0.0,0.0,0.0,0.0,0.0,0.0,0.0,0.0,0.0,0.0,0.0,0.0,-2.4143,-2.601,-2.8046,-2.9383,0.0,0.0,0.0,0.0,0.0,0.0,0.0,0.0,0.0,0.0,0.0,0.0,0.0,0.0,0.0,0.0,0.0,0.0,0.0,0.0,0.0,0.0,0.0,0.0,0.0,0.0,0.0,0.0,0.0,0.0,0.0,0.0,0.0,0.0,0.0,0.0,0.0,0.0,0.0,0.0,0.0,0.0,0.0,0.0,0.0,0.0,0.0,0.0,0.0,0.0,0.0,0.0,0.0,0.0,0.0,0.0,0.0,0.0,0.0,0.0,0.0,0.0,0.0,0.0,0.0,0.0,0.0,0.0,0.0,0.0,0.0,0.0,0.0,0.0,0.0,0.0,0.0,0.0,0.0,0.0,0.0,0.0,0.0,0.0,0.0,0.0,0.0,0.0,0.0,0.0,0.0,0.0,0.0,0.0,0.0,0.0,0.0,0.0,0.0,0.0,0.0,0.0,0.0,0.0,0.0,0.0,0.0,0.0,0.0,0.0,-2.2603,-2.33,-2.564,-2.7711,-2.8747,-2.8762,0.0,0.0,0.0,0.0,0.0,0.0,0.0,0.0,0.0,0.0,0.0,0.0,0.0,0.0,0.0,0.0,0.0,0.0,0.0,0.0,0.0,0.0,0.0,0.0,0.0,0.0,0.0,0.0,0.0,0.0,0.0,0.0,0.0,0.0,0.0,0.0,0.0,0.0,0.0,0.0,0.0,0.0,0.0,0.0,0.0,0.0,0.0,0.0,0.0,0.0,0.0,0.0,0.0,0.0,0.0,0.0,0.0,0.0,0.0,0.0,0.0,0.0,0.0,0.0,0.0,0.0,0.0,0.0,0.0,0.0,0.0,0.0,0.0,0.0,0.0,0.0,0.0,0.0,0.0,0.0,0.0,0.0,0.0,0.0,0.0,0.0,0.0,0.0,0.0,0.0,0.0,0.0,0.0,0.0,0.0,0.0,0.0,0.0,0.0,0.0,0.0,0.0,0.0,0.0,0.0,0.0,0.0,0.0,-2.2884,-2.2443,-2.3662,-2.6645,-2.7055,-2.7602,0.0,0.0,0.0,0.0,0.0,0.0,0.0,0.0,0.0,0.0,0.0,0.0,0.0,0.0,0.0,0.0,0.0,0.0,0.0,0.0,0.0,0.0,0.0,0.0,0.0,0.0,0.0,0.0,0.0,0.0,0.0,0.0,0.0,0.0,0.0,0.0,0.0,0.0,0.0,0.0,0.0,0.0,0.0,0.0,0.0,0.0,0.0,0.0,0.0,0.0,0.0,0.0,0.0,0.0,0.0,0.0,0.0,0.0,0.0,0.0,0.0,0.0,0.0,0.0,0.0,0.0,0.0,0.0,0.0,0.0,0.0,0.0,0.0,0.0,0.0,0.0,0.0,0.0,0.0,0.0,0.0,0.0,0.0,0.0,0.0,0.0,0.0,0.0,0.0,0.0,0.0,0.0,0.0,0.0,0.0,0.0,0.0,0.0,0.0,0.0,0.0,0.0,0.0,0.0,0.0,0.0,0.0,0.0,0.0,-1.8224,-2.0509,-2.283,-2.4991,-2.639,-2.7597,0.0,0.0,0.0,0.0,0.0,0.0,0.0,0.0,0.0,0.0,0.0,0.0,0.0,0.0,0.0,0.0,0.0,0.0,0.0,0.0,0.0,0.0,0.0,0.0,0.0,0.0,0.0,0.0,0.0,0.0,0.0,0.0,0.0,0.0,0.0,0.0,0.0,0.0,0.0,0.0,0.0,0.0,0.0,0.0,0.0,0.0,0.0,0.0,0.0,0.0,0.0,0.0,0.0,0.0,0.0,0.0,0.0,0.0,0.0,0.0,0.0,0.0,0.0,0.0,0.0,0.0,0.0,0.0,0.0,0.0,0.0,0.0,0.0,0.0,0.0,0.0,0.0,0.0,0.0,0.0,0.0,0.0,0.0,0.0,0.0,0.0,0.0,0.0,0.0,0.0,0.0,0.0,0.0,0.0,0.0,0.0,0.0,0.0,0.0,0.0,0.0,0.0,0.0,0.0,0.0,0.0,0.0,0.0,0.0,-1.624,0.0,-2.2321,-2.3665,-2.5515,-2.6769,0.0,0.0,0.0,0.0,0.0,0.0,0.0,0.0,0.0,0.0,0.0,0.0,0.0,0.0,0.0,0.0,0.0,0.0,0.0,0.0,0.0,0.0,0.0,0.0,0.0,0.0,0.0,0.0,0.0,0.0,0.0,0.0,0.0,0.0,0.0,0.0,0.0,0.0,0.0,0.0,0.0,0.0,0.0,0.0,0.0,0.0,0.0,0.0,0.0,0.0,0.0,0.0,0.0,0.0,0.0,0.0,0.0,0.0,0.0,0.0,0.0,0.0,0.0,0.0,0.0,0.0,0.0,0.0,0.0,0.0,0.0,0.0,0.0,0.0,0.0,0.0,0.0,0.0,0.0,0.0,0.0,0.0,0.0,0.0,0.0,0.0,0.0,0.0,0.0,0.0,0.0,0.0,0.0,0.0,0.0,0.0,0.0,0.0,0.0,0.0,0.0,0.0,0.0,0.0,0.0,0.0,0.0,0.0,-1.5339,-1.7563,-2.0391,-2.2296,-2.3132,-2.4487,-2.4996,0.0,0.0,0.0,0.0,0.0,0.0,0.0,0.0,0.0,0.0,0.0,0.0,0.0,0.0,0.0,0.0,0.0,0.0,0.0,0.0,0.0,0.0,0.0,0.0,0.0,0.0,0.0,0.0,0.0,0.0,0.0,0.0,0.0,0.0,0.0,0.0,0.0,0.0,0.0,0.0,0.0,0.0,0.0,0.0,0.0,0.0,0.0,0.0,0.0,0.0,0.0,0.0,0.0,0.0,0.0,0.0,0.0,0.0,0.0,0.0,0.0,0.0,0.0,0.0,0.0,0.0,0.0,0.0,0.0,0.0,0.0,0.0,0.0,0.0,0.0,0.0,0.0,0.0,0.0,0.0,0.0,0.0,0.0,0.0,0.0,0.0,0.0,0.0,0.0,0.0,0.0,0.0,0.0,0.0,0.0,0.0,0.0,0.0,0.0,0.0,0.0,0.0,0.0,0.0,0.0,0.0,0.0,0.0,0.0,-1.4247,-1.9043,-2.2193,-2.343,-2.5114,-2.6427,0.0,0.0,0.0,0.0,0.0,0.0,0.0,0.0,0.0,0.0,0.0,0.0,0.0,0.0,0.0,0.0,0.0,0.0,0.0,0.0,0.0,0.0,0.0,0.0,0.0,0.0,0.0,0.0,0.0,0.0,0.0,0.0,0.0,0.0,0.0,0.0,0.0,0.0,0.0,0.0,0.0,0.0,0.0,0.0,0.0,0.0,0.0,0.0,0.0,0.0,0.0,0.0,0.0,0.0,0.0,0.0,0.0,0.0,0.0,0.0,0.0,0.0,0.0,0.0,0.0,0.0,0.0,0.0,0.0,0.0,0.0,0.0,0.0,0.0,0.0,0.0,0.0,0.0,0.0,0.0,0.0,0.0,0.0,0.0,0.0,0.0,0.0,0.0,0.0,0.0,0.0,0.0,0.0,0.0,0.0,0.0,0.0,0.0,0.0,0.0,0.0,0.0,0.0,0.0,0.0,0.0,0.0,0.0,0.0,-1.3915,-1.8654,-2.2018,-2.363,-2.5113,-2.6438,-2.7592,0.0,0.0,0.0,0.0,0.0,0.0,0.0,0.0,0.0,0.0,0.0,0.0,0.0,0.0,0.0,0.0,0.0,0.0,0.0,0.0,0.0,0.0,0.0,0.0,0.0,0.0,0.0,0.0,0.0,0.0,0.0,0.0,0.0,0.0,0.0,0.0,0.0,0.0,0.0,0.0,0.0,0.0,0.0,0.0,0.0,0.0,0.0,0.0,0.0,0.0,0.0,0.0,0.0,0.0,0.0,0.0,0.0,0.0,0.0,0.0,0.0,0.0,0.0,0.0,0.0,0.0,0.0,0.0,0.0,0.0,0.0,0.0,0.0,0.0,0.0,0.0,0.0,0.0,0.0,0.0,0.0,0.0,0.0,0.0,0.0,0.0,0.0,0.0,0.0,0.0,0.0,0.0,0.0,0.0,0.0,0.0,0.0,0.0,0.0,0.0,0.0,0.0,0.0,0.0,0.0,0.0,0.0,0.0,-1.5904,-1.9245,-2.1998,-2.3896,-2.4778,-2.5459,0.0,0.0,0.0,0.0,0.0,0.0,0.0,0.0,0.0,0.0,0.0,0.0,0.0,0.0,0.0,0.0,0.0,0.0,0.0,0.0,0.0,0.0,0.0,0.0,0.0,0.0,0.0,0.0,0.0,0.0,0.0,0.0,0.0,0.0,0.0,0.0,0.0,0.0,0.0,0.0,0.0,0.0,0.0,0.0,0.0,0.0,0.0,0.0,0.0,0.0,0.0,0.0,0.0,0.0,0.0,0.0,0.0,0.0,0.0,0.0,0.0,0.0,0.0,0.0,0.0,0.0,0.0,0.0,0.0,0.0,0.0,0.0,0.0,0.0,0.0,0.0,0.0,0.0,0.0,0.0,0.0,0.0,0.0,0.0,0.0,0.0,0.0,0.0,0.0,0.0,0.0,0.0,0.0,0.0,0.0,0.0,0.0,0.0,0.0,0.0,0.0,0.0,0.0,0.0,0.0,0.0,0.0,0.0,0.0,-1.7981,-2.086,-2.3375,-2.5438,-2.691,-2.7967,0.0,0.0,0.0,0.0,0.0,0.0,0.0,0.0,0.0,0.0,0.0,0.0,0.0,0.0,0.0,0.0,0.0,0.0,0.0,0.0,0.0,0.0,0.0,0.0,0.0,0.0,0.0,0.0,0.0,0.0,0.0,0.0,0.0,0.0,0.0,0.0,0.0,0.0,0.0,0.0,0.0,0.0,0.0,0.0,0.0,0.0,0.0,0.0,0.0,0.0,0.0,0.0,0.0,0.0,0.0,0.0,0.0,0.0,0.0,0.0,0.0,0.0,0.0,0.0,0.0,0.0,0.0,0.0,0.0,0.0,0.0,0.0,0.0,0.0,0.0,0.0,0.0,0.0,0.0,0.0,0.0,0.0,0.0,0.0,0.0,0.0,0.0,0.0,0.0,0.0,0.0,0.0,0.0,0.0,0.0,0.0,0.0,0.0,0.0,0.0,0.0,0.0,0.0,0.0,0.0,0.0,0.0,0.0,-1.4717,-1.8983,-2.1822,-2.4693,-2.7603,-2.8413,-2.9013,0.0,0.0,0.0,0.0,0.0,0.0,0.0,0.0,0.0,0.0,0.0,0.0,0.0,0.0,0.0,0.0,0.0,0.0,0.0,0.0,0.0,0.0,0.0,0.0,0.0,0.0,0.0,0.0,0.0,0.0,0.0,0.0,0.0,0.0,0.0,0.0,0.0,0.0,0.0,0.0,0.0,0.0,0.0,0.0,0.0,0.0,0.0,0.0,0.0,0.0,0.0,0.0,0.0,0.0,0.0,0.0,0.0,0.0,0.0,0.0,0.0,0.0,0.0,0.0,0.0,0.0,0.0,0.0,0.0,0.0,0.0,0.0,0.0,0.0,0.0,0.0,0.0,0.0,0.0,0.0,0.0,0.0,0.0,0.0,0.0,0.0,0.0,0.0,0.0,0.0,0.0,0.0,0.0,0.0,0.0,0.0,0.0,0.0,0.0,0.0,0.0,0.0,0.0,0.0,0.0,0.0,0.0,0.0,-1.4563,-1.9474,-2.2456,-2.5881,-2.9718,-2.952,-2.9289,0.0,0.0,0.0,0.0,0.0,0.0,0.0,0.0,0.0,0.0,0.0,0.0,0.0,0.0,0.0,0.0,0.0,0.0,0.0,0.0,0.0,0.0,0.0,0.0,0.0,0.0,0.0,0.0,0.0,0.0,0.0,0.0,0.0,0.0,0.0,0.0,0.0,0.0,0.0,0.0,0.0,0.0,0.0,0.0,0.0,0.0,0.0,0.0,0.0,0.0,0.0,0.0,0.0,0.0,0.0,0.0,0.0,0.0,0.0,0.0,0.0,0.0,0.0,0.0,0.0,0.0,0.0,0.0,0.0,0.0,0.0,0.0,0.0,0.0,0.0,0.0,0.0,0.0,0.0,0.0,0.0,0.0,0.0,0.0,0.0,0.0,0.0,0.0,0.0,0.0,0.0,0.0,0.0,0.0,0.0,0.0,0.0,0.0,0.0,0.0,0.0,0.0,0.0,0.0,0.0,0.0,0.0,0.0,-1.5525,-1.9869,-2.3506,-2.6832,-2.9911,-2.993,-3.0256,0.0,0.0,0.0,0.0,0.0,0.0,0.0,0.0,0.0,0.0,0.0,0.0,0.0,0.0,0.0,0.0,0.0,0.0,0.0,0.0,0.0,0.0,0.0,0.0,0.0,0.0,0.0,0.0,0.0,0.0,0.0,0.0,0.0,0.0,0.0,0.0,0.0,0.0,0.0,0.0,0.0,0.0,0.0,0.0,0.0,0.0,0.0,0.0,-3.3053,0.0,0.0,0.0,0.0,0.0,0.0,0.0,0.0,0.0,0.0,0.0,0.0,0.0,0.0,0.0,0.0,0.0,0.0,0.0,0.0,0.0,0.0,0.0,0.0,0.0,0.0,0.0,0.0,0.0,0.0,0.0,0.0,0.0,0.0,0.0,0.0,0.0,0.0,0.0,0.0,0.0,0.0,0.0,0.0,0.0,0.0,0.0,0.0,0.0,0.0,0.0,0.0,0.0,0.0,0.0,0.0,0.0,0.0,0.0,-1.5155,-1.966,-2.3472,-2.6924,-2.9854,-3.0572,-3.0997,0.0,0.0,0.0,0.0,0.0,0.0,0.0,0.0,0.0,0.0,0.0,0.0,0.0,0.0,0.0,0.0,0.0,0.0,0.0,0.0,0.0,0.0,0.0,0.0,0.0,0.0,0.0,0.0,0.0,0.0,0.0,0.0,0.0,0.0,0.0,0.0,0.0,0.0,0.0,0.0,0.0,0.0,0.0,0.0,0.0,0.0,0.0,0.0,0.0,0.0,0.0,0.0,0.0,0.0,0.0,0.0,0.0,0.0,0.0,0.0,0.0,0.0,0.0,0.0,0.0,0.0,0.0,0.0,0.0,0.0,0.0,0.0,0.0,0.0,0.0,0.0,0.0,0.0,0.0,0.0,0.0,0.0,0.0,0.0,0.0,0.0,0.0,0.0,0.0,0.0,0.0,0.0,0.0,0.0,0.0,0.0,0.0,0.0,0.0,0.0,0.0,0.0,0.0,0.0,0.0,0.0,0.0,-1.1472,-1.5094,-1.9717,-2.344,-2.6813,-2.9911,-3.116,-3.1588,-3.1042,0.0,0.0,0.0,0.0,0.0,0.0,0.0,0.0,0.0,0.0,0.0,0.0,0.0,0.0,0.0,0.0,0.0,0.0,0.0,0.0,0.0,0.0,0.0,0.0,0.0,0.0,0.0,0.0,0.0,0.0,0.0,0.0,0.0,0.0,0.0,0.0,0.0,0.0,-2.8888,-2.9134,0.0,0.0,0.0,0.0,0.0,0.0,0.0,0.0,-3.7545,0.0,0.0,0.0,0.0,0.0,0.0,0.0,0.0,0.0,0.0,0.0,0.0,0.0,0.0,0.0,0.0,0.0,0.0,0.0,0.0,0.0,0.0,0.0,0.0,0.0,0.0,0.0,0.0,0.0,0.0,0.0,0.0,0.0,0.0,0.0,0.0,0.0,0.0,0.0,0.0,0.0,0.0,0.0,0.0,0.0,0.0,0.0,0.0,0.0,0.0,0.0,0.0,0.0,0.0,0.0,0.0,-1.4382,-1.5894,-1.8459,-2.1984,-2.4897,-2.7556,-3.0079,-3.1549,-3.208,-3.163,0.0,0.0,0.0,0.0,0.0,0.0,0.0,0.0,0.0,0.0,0.0,0.0,0.0,0.0,0.0,0.0,0.0,0.0,0.0,0.0,0.0,0.0,0.0,0.0,0.0,0.0,0.0,0.0,0.0,0.0,0.0,0.0,0.0,0.0,0.0,0.0,0.0,0.0,0.0,-3.2091,-3.2704,0.0,0.0,0.0,0.0,0.0,0.0,0.0,0.0,-3.9759,0.0,0.0,0.0,0.0,0.0,0.0,0.0,0.0,0.0,0.0,0.0,0.0,0.0,0.0,0.0,0.0,0.0,0.0,0.0,0.0,0.0,0.0,0.0,0.0,0.0,0.0,0.0,0.0,0.0,0.0,0.0,0.0,0.0,0.0,0.0,0.0,0.0,0.0,0.0,0.0,0.0,0.0,0.0,0.0,0.0,0.0,0.0,0.0,0.0,0.0,0.0,0.0,0.0,0.0,0.0,-1.5948,-1.7691,-1.9722,-2.1894,-2.4854,-2.7495,-2.9638,-3.1034,-3.1669,0.0,0.0,0.0,0.0,0.0,0.0,0.0,0.0,0.0,0.0,0.0,0.0,0.0,0.0,0.0,0.0,0.0,0.0,0.0,0.0,0.0,0.0,0.0,0.0,0.0,0.0,0.0,0.0,0.0,0.0,0.0,0.0,0.0,0.0,0.0,0.0,0.0,0.0,0.0,0.0,-3.2129,-3.262,-3.3182,0.0,0.0,0.0,0.0,0.0,0.0,-3.9293,-3.9574,0.0,0.0,0.0,0.0,0.0,0.0,0.0,0.0,0.0,0.0,0.0,0.0,0.0,0.0,0.0,0.0,0.0,0.0,0.0,0.0,0.0,0.0,0.0,0.0,0.0,0.0,0.0,0.0,0.0,0.0,0.0,0.0,0.0,0.0,0.0,0.0,0.0,0.0,0.0,0.0,0.0,0.0,0.0,0.0,0.0,0.0,0.0,0.0,0.0,0.0,0.0,0.0,0.0,0.0,0.0,-1.7592,-1.9352,-2.0855,-2.2039,-2.4862,-2.7303,-2.9256,-3.047,-3.1254,0.0,0.0,0.0,0.0,0.0,0.0,0.0,0.0,0.0,0.0,0.0,0.0,0.0,0.0,0.0,0.0,0.0,0.0,0.0,0.0,0.0,0.0,0.0,0.0,0.0,0.0,0.0,0.0,0.0,0.0,0.0,0.0,0.0,0.0,0.0,0.0,0.0,0.0,0.0,0.0,0.0,-3.2758,-3.3688,-3.42,0.0,0.0,0.0,0.0,-4.01,-4.0464,0.0,0.0,0.0,0.0,0.0,0.0,0.0,0.0,0.0,0.0,0.0,0.0,0.0,0.0,0.0,0.0,0.0,0.0,0.0,0.0,0.0,0.0,0.0,0.0,0.0,0.0,0.0,0.0,0.0,0.0,0.0,0.0,0.0,0.0,0.0,0.0,0.0,0.0,0.0,0.0,0.0,0.0,0.0,0.0,0.0,0.0,0.0,0.0,0.0,0.0,0.0,0.0,0.0,0.0,0.0,0.0,-2.2899,-2.2813,-2.3283,-2.4408,-2.5751,-2.747,-2.9595,-3.0555,-3.1322,0.0,0.0,0.0,0.0,0.0,0.0,0.0,0.0,0.0,0.0,0.0,0.0,0.0,0.0,0.0,0.0,0.0,0.0,0.0,0.0,0.0,0.0,0.0,0.0,0.0,0.0,0.0,0.0,0.0,0.0,0.0,0.0,0.0,0.0,0.0,0.0,0.0,0.0,0.0,0.0,0.0,-3.5798,-3.4441,-3.5936,-3.7366,0.0,0.0,-4.2443,-4.3734,-4.5606,0.0,0.0,0.0,0.0,0.0,0.0,0.0,0.0,0.0,0.0,0.0,0.0,0.0,0.0,0.0,0.0,0.0,0.0,0.0,0.0,0.0,0.0,0.0,0.0,0.0,0.0,0.0,0.0,0.0,0.0,0.0,0.0,0.0,0.0,0.0,0.0,0.0,0.0,0.0,0.0,0.0,0.0,0.0,0.0,0.0,0.0,0.0,0.0,0.0,0.0,0.0,0.0,0.0,0.0,0.0,-2.4716,-2.3425,-2.4138,-2.45,-2.442,-2.5938,-2.768,-2.9504,-3.0104,-3.0672,0.0,0.0,0.0,0.0,0.0,0.0,0.0,0.0,0.0,0.0,0.0,0.0,0.0,0.0,0.0,0.0,0.0,0.0,0.0,0.0,0.0,0.0,0.0,0.0,0.0,0.0,0.0,0.0,0.0,0.0,0.0,0.0,0.0,0.0,0.0,0.0,0.0,0.0,0.0,0.0,0.0,0.0,-3.5567,-3.6707,0.0,0.0,0.0,-4.3356,-4.338,0.0,0.0,0.0,0.0,0.0,0.0,0.0,0.0,0.0,0.0,0.0,0.0,0.0,0.0,0.0,0.0,0.0,0.0,0.0,0.0,0.0,0.0,0.0,0.0,0.0,0.0,0.0,0.0,0.0,0.0,0.0,0.0,0.0,0.0,0.0,0.0,0.0,0.0,0.0,0.0,0.0,0.0,0.0,0.0,0.0,0.0,0.0,0.0,0.0,0.0,0.0,0.0,0.0,0.0,0.0,0.0,0.0,-2.3672,-2.4981,-2.5354,-2.483,-2.6238,-2.7827,-2.9388,-2.971,0.0,0.0,0.0,0.0,0.0,0.0,0.0,0.0,0.0,0.0,0.0,0.0,0.0,0.0,0.0,0.0,0.0,0.0,0.0,0.0,0.0,0.0,0.0,0.0,0.0,0.0,0.0,-3.3278,0.0,0.0,0.0,0.0,0.0,0.0,0.0,0.0,0.0,0.0,0.0,0.0,0.0,0.0,-3.4911,-3.6894,-3.8147,-3.9954,0.0,0.0,-4.4164,-4.3556,-4.5111,-4.5039,0.0,0.0,0.0,0.0,0.0,0.0,0.0,0.0,0.0,0.0,0.0,0.0,0.0,0.0,0.0,0.0,0.0,0.0,0.0,0.0,0.0,0.0,0.0,0.0,0.0,0.0,0.0,0.0,0.0,0.0,0.0,0.0,0.0,0.0,0.0,0.0,0.0,0.0,0.0,0.0,0.0,0.0,0.0,0.0,0.0,0.0,0.0,0.0,0.0,0.0,0.0,0.0,0.0,0.0,-2.5635,-2.5265,-2.579,-2.6176,-2.6505,-2.6878,-2.794,-2.9583,-2.9655,-2.9973,0.0,0.0,0.0,0.0,0.0,0.0,0.0,0.0,0.0,0.0,0.0,0.0,0.0,0.0,0.0,0.0,0.0,0.0,0.0,0.0,0.0,0.0,0.0,0.0,0.0,0.0,0.0,0.0,0.0,0.0,0.0,0.0,0.0,0.0,0.0,0.0,0.0,0.0,0.0,0.0,0.0,-3.8195,-3.8311,-4.0944,-4.3425,0.0,-4.5456,-4.574,-4.5945,-4.8404,-4.8386,-4.2649,0.0,0.0,0.0,0.0,0.0,0.0,0.0,0.0,0.0,0.0,0.0,0.0,0.0,0.0,0.0,0.0,0.0,0.0,0.0,0.0,0.0,0.0,0.0,0.0,0.0,0.0,0.0,0.0,0.0,0.0,0.0,0.0,0.0,0.0,0.0,0.0,0.0,0.0,0.0,0.0,0.0,0.0,0.0,0.0,0.0,0.0,0.0,0.0,0.0,0.0,0.0,0.0,0.0,-2.5269,-2.4712,-2.5492,-2.615,-2.6648,-2.7649,-2.8931,-3.04,-3.1083,-3.1402,0.0,0.0,0.0,0.0,0.0,0.0,0.0,0.0,0.0,0.0,0.0,0.0,0.0,0.0,0.0,0.0,0.0,0.0,0.0,0.0,0.0,0.0,0.0,0.0,0.0,0.0,0.0,0.0,-3.2259,-3.1235,-2.9705,0.0,0.0,0.0,0.0,0.0,0.0,0.0,0.0,0.0,0.0,-3.7607,-3.9688,-4.2023,0.0,0.0,-4.7453,-4.7792,-4.7352,-4.8144,-4.7264,-4.2636,-4.1877,0.0,0.0,0.0,0.0,0.0,0.0,0.0,0.0,0.0,0.0,0.0,0.0,0.0,0.0,0.0,0.0,0.0,0.0,0.0,0.0,0.0,0.0,0.0,0.0,0.0,0.0,0.0,0.0,0.0,0.0,0.0,0.0,0.0,0.0,0.0,0.0,0.0,0.0,0.0,0.0,0.0,0.0,0.0,0.0,0.0,0.0,0.0,0.0,0.0,0.0,0.0,0.0,-2.5575,-2.5228,-2.6232,-2.7047,-2.7682,-2.8565,-2.988,-3.1478,-3.2237,-3.2421,0.0,0.0,0.0,0.0,0.0,0.0,0.0,0.0,0.0,0.0,0.0,0.0,0.0,0.0,0.0,0.0,0.0,0.0,0.0,0.0,0.0,0.0,0.0,0.0,0.0,0.0,0.0,0.0,-3.2216,-3.0897,-2.9353,0.0,0.0,0.0,0.0,0.0,0.0,0.0,0.0,0.0,0.0,-3.7602,-4.0626,-4.219,-4.3945,-4.6319,-4.7043,-4.7128,-4.6665,-4.6743,-4.5649,-4.2041,0.0,0.0,0.0,0.0,0.0,0.0,0.0,0.0,0.0,0.0,0.0,0.0,0.0,0.0,0.0,0.0,0.0,0.0,0.0,0.0,0.0,0.0,0.0,0.0,0.0,0.0,0.0,0.0,0.0,0.0,-2.6222,0.0,0.0,0.0,0.0,0.0,0.0,0.0,0.0,0.0,0.0,0.0,0.0,0.0,0.0,0.0,0.0,0.0,0.0,0.0,0.0,0.0,0.0,-2.6867,-2.7626,-2.8373,-2.9234,-3.0085,-2.9653,-3.0619,-3.2917,-3.2713,-3.2698,-3.2979,0.0,0.0,0.0,0.0,0.0,0.0,0.0,0.0,0.0,0.0,0.0,0.0,0.0,0.0,0.0,0.0,0.0,0.0,0.0,0.0,0.0,0.0,0.0,0.0,0.0,0.0,-3.2769,-3.0923,-2.9928,0.0,0.0,0.0,0.0,0.0,0.0,0.0,0.0,0.0,0.0,-3.5798,-3.8732,-4.0868,-4.1612,-4.261,-4.4356,-4.3638,-4.2996,-4.3478,-4.4371,-4.3989,0.0,0.0,0.0,0.0,0.0,0.0,0.0,0.0,0.0,0.0,0.0,0.0,0.0,0.0,0.0,0.0,0.0,0.0,0.0,0.0,0.0,0.0,0.0,0.0,0.0,0.0,0.0,-3.0064,-2.9666,0.0,0.0,0.0,0.0,0.0,0.0,0.0,0.0,0.0,0.0,0.0,-2.9334,-3.0659,0.0,0.0,0.0,0.0,0.0,0.0,0.0,0.0,0.0,0.0,0.0,0.0,-2.8186,-2.8498,-2.9769,-3.08,-3.1544,-3.2196,-3.3158,-3.4401,-3.5205,-3.5137,-3.4154,0.0,0.0,0.0,0.0,0.0,0.0,0.0,0.0,0.0,0.0,0.0,0.0,0.0,0.0,0.0,0.0,0.0,0.0,0.0,0.0,0.0,0.0,0.0,0.0,0.0,-3.66,0.0,0.0,0.0,0.0,0.0,0.0,0.0,0.0,0.0,0.0,0.0,-3.1333,-3.4237,-3.6183,-3.8058,-3.9977,-4.2015,-4.3581,0.0,0.0,0.0,0.0,0.0,0.0,0.0,0.0,0.0,0.0,0.0,0.0,0.0,0.0,-3.8388,-3.5326,-3.4469,-3.434,-3.4572,0.0,0.0,0.0,0.0,0.0,0.0,0.0,0.0,0.0,0.0,0.0,0.0,0.0,0.0,-3.0452,0.0,-2.9584,0.0,0.0,0.0,0.0,0.0,0.0,0.0,0.0,-3.1287,-3.1884,-3.196,-3.3371,-3.3728,0.0,-3.4659,-3.3367,0.0,0.0,0.0,0.0,0.0,0.0,0.0,0.0,-2.9518,-3.0,-3.1342,-3.2471,-3.3289,-3.3931,-3.4788,-3.5924,-3.6934,-3.6906,-3.5725,-3.5018,-3.4175,0.0,0.0,0.0,0.0,0.0,0.0,0.0,0.0,0.0,0.0,0.0,0.0,0.0,0.0,0.0,0.0,0.0,0.0,0.0,0.0,0.0,0.0,0.0,-3.5576,0.0,0.0,0.0,0.0,0.0,0.0,0.0,0.0,0.0,-3.1043,-3.1521,-3.2859,-3.5489,-3.6753,-3.7977,-3.9622,0.0,0.0,0.0,0.0,0.0,0.0,0.0,-4.318,-4.192,-4.1709,-4.1634,-4.1504,-4.2099,-4.238,-4.1863,0.0,0.0,-3.7998,-3.7231,-3.7077,-3.7166,-3.6598,-3.6286,-3.675,-3.6876,-3.6809,0.0,0.0,0.0,0.0,0.0,0.0,0.0,0.0,-3.0711,-3.0303,0.0,-3.0115,0.0,0.0,0.0,0.0,0.0,-3.2737,0.0,0.0,-3.5819,-3.6477,-3.586,-3.6469,-3.6509,-3.6033,-3.7807,-3.742,-3.5056,-3.2546,0.0,0.0,0.0,0.0,0.0,0.0,-3.1058,-3.2117,-3.3206,-3.4312,-3.5384,-3.4926,-3.556,-3.7559,-3.7838,-3.7794,-3.7511,-3.7121,-3.6435,-3.5399,-3.5436,0.0,0.0,0.0,0.0,0.0,0.0,0.0,0.0,0.0,0.0,0.0,0.0,0.0,0.0,0.0,0.0,0.0,0.0,0.0,0.0,-3.5198,0.0,0.0,0.0,0.0,0.0,0.0,0.0,0.0,0.0,0.0,-3.3223,-3.3594,-3.4574,-3.6216,0.0,0.0,0.0,0.0,-4.0303,-4.1025,-4.1123,-4.1214,-4.1321,-4.1981,-4.222,-4.1524,0.0,0.0,-4.2021,-4.3093,-4.3515,-4.2167,-4.2982,-4.3955,-4.3502,-4.1649,-4.0817,-4.1999,-4.0567,-3.9478,-3.9552,-3.927,-3.9315,-3.3826,0.0,0.0,0.0,0.0,-3.351,-3.4083,-3.4642,-3.3365,-3.2885,-3.2927,-3.1827,0.0,0.0,0.0,0.0,0.0,0.0,-3.492,-3.5432,-3.6387,-3.6934,-3.727,-3.7825,-3.8111,-3.8062,-3.904,-3.9257,-3.8539,-3.6472,-3.4284,-3.2044,0.0,0.0,0.0,0.0,-3.2824,-3.3702,-3.5022,-3.5913,-3.64,-3.6531,-3.7235,-3.8505,-3.8682,-3.855,-3.8153,-3.8042,-3.7585,-3.6754,-3.622,0.0,0.0,0.0,0.0,0.0,0.0,0.0,0.0,0.0,0.0,0.0,0.0,0.0,0.0,0.0,0.0,0.0,0.0,0.0,-3.6559,-3.4012,-3.2467,0.0,0.0,0.0,0.0,0.0,0.0,0.0,0.0,0.0,-3.623,-3.54,-3.5208,0.0,0.0,-3.8858,-3.9186,-4.0577,-4.1683,-4.188,-4.2492,0.0,-4.2229,-4.1881,-4.1674,-4.1604,-4.2412,-4.3037,-4.2875,-4.3194,-4.3172,-4.2194,-4.2322,-4.2508,-4.2434,-4.1955,-4.1508,-4.1316,-4.037,-3.9677,-3.9681,-3.9637,-3.9642,-3.6254,-3.4927,-3.4196,-3.4013,-3.4272,-3.468,-3.526,-3.5784,-3.4798,-3.4602,-3.4805,-3.3652,-3.284,-3.2246,-3.2251,0.0,0.0,0.0,-3.6799,-3.7209,-3.7847,-3.8335,-3.8707,-3.9102,-3.9401,-3.9625,-3.9749,-4.0144,-4.0707,-3.8756,-3.7114,-3.5577,0.0,0.0,-3.2652,-3.3618,-3.4472,-3.5283,-3.6408,-3.7195,-3.7595,-3.799,-3.8469,-3.9017,-3.9287,-3.9233,-3.8865,-3.895,-3.8639,-3.7802,-3.7353,-3.6673,0.0,0.0,0.0,0.0,0.0,0.0,0.0,0.0,0.0,0.0,0.0,-3.69,-3.5999,0.0,0.0,0.0,-3.5722,-3.5982,-3.5263,-3.3653,0.0,0.0,0.0,0.0,0.0,0.0,0.0,-3.6328,-3.563,-3.5867,-3.7784,-3.7052,-3.6892,-3.8431,-3.9438,-3.9847,-3.9526,0.0,-4.2186,-4.1948,-4.2831,-4.3304,-4.2676,-4.2195,-4.1943,-4.1844,-4.2311,-4.2871,-4.3071,-4.3124,-4.2955,-4.2581,-4.2388,-4.2277,-4.2085,-4.1833,-4.1577,-4.1305,-4.0632,-4.0199,-4.0234,-3.9999,-3.9781,-3.8044,-3.8335,-3.6507,-3.5676,-3.5645,-3.56,-3.5983,-3.6445,-3.5368,-3.5521,-3.6368,-3.5322,-3.479,-3.4589,-3.5155,0.0,-3.7269,-3.8538,-3.9073,-3.9106,-3.9766,-4.0121,-4.0121,-4.0053,-4.03,-4.0728,-3.9974,-4.0254,-4.1243,-3.9457,-3.8819,-3.9204,-3.5963,-3.4157,-3.3974,-3.5044,-3.6001,-3.6831,-3.7517,-3.8194,-3.8828,-3.9144,-3.9327,-3.9358,-3.9721,-3.9788,-3.9595,-3.988,-3.9621,-3.8717,-3.8664,-3.8004,-3.6602,0.0,0.0,0.0,0.0,0.0,0.0,0.0,0.0,0.0,0.0,0.0,0.0,0.0,0.0,0.0,-3.4372,0.0,-3.4281,-3.3953,0.0,0.0,0.0,-3.4592,-3.4272,-3.5232,-3.6131,-3.6635,0.0,0.0,-3.8349,-3.8505,-3.9201,-4.0986,-4.1356,-4.116,-4.0507,-4.1442,-4.2047,-4.1558,-4.2435,-4.3105,-4.2625,-4.2505,-4.2356,-4.2092,-4.2112,-4.2396,-4.2807,-4.2957,-4.2957,-4.2785,-4.2839,-4.2637,-4.2258,-4.156,-4.1235,-4.1611,-4.1154,-4.0771,-4.074,-4.0321,-3.9901,-3.8774,-3.8402,-3.7934,-3.7385,-3.6917,-3.6705,-3.6737,-3.6846,-3.6307,-3.6276,-3.6445,-3.5646,-3.5357,-3.5427,-3.6954,-3.7768,-3.8136,-3.9312,-3.9817,-3.9834,-3.9986,-4.0188,-4.0271,-3.9932,-3.9899,-4.0043,-3.9056,-3.87,-3.8948,-3.7428,-3.7032,-3.7615,-3.6434,-3.5954,-3.6347,-3.6417,-3.6892,-3.7816,-3.8308,-3.8752,-3.9152,-3.9364,-3.9543,-3.9754,-3.9838,-3.9982,-4.0177,-4.0307,-4.0283,-4.0018,-3.944,-3.8665,-3.7679,-3.6814,0.0,0.0,0.0,0.0,0.0,0.0,0.0,0.0,0.0,-3.8385,-3.5691,0.0,-3.8302,0.0,-3.5494,-3.5181,-3.4783,-3.5057,0.0,0.0,-3.6292,-3.6635,-3.7006,-3.7326,-3.7534,-3.7648,-3.752,-3.7961,-3.9291,-3.9446,-4.0025,-4.1511,-4.1118,-4.0642,-4.0578,-4.1114,-4.1657,-4.1654,-4.1903,-4.2109,-4.21,-4.198,-4.1904,-4.1852,-4.2181,-4.2519,-4.2643,-4.2672,-4.2515,-4.1974,-4.1561,-4.1304,-4.1229,-4.0711,-4.046,-4.051,-4.0357,-4.029,-4.029,-4.0155,-4.002,-3.8513,-3.8381,-3.8588,-3.8141,-3.7301,-3.6916,-3.6726,-3.6726,-3.6531,-3.656,-3.6735,-3.6485,-3.6774,-3.7399,-3.8114,-3.874,-3.9345,-3.9968,-4.0353,-4.0528,-4.0155,-4.0065,-4.0143,-3.9745,-3.9608,-3.9673,-3.8575,-3.833,-3.8739,-3.6845,-3.6381,-3.7318,-3.6453,-3.629,-3.6762,-3.6888,-3.7489,-3.8584,-3.9063,-3.9427,-3.963,-3.9842,-4.0043,-4.0156,-4.0155,-4.0247,-4.0432,-4.0466,-4.0499,-4.0495,-4.0069,-3.9431,-3.8623,-3.7738,-3.6901,0.0,0.0,0.0,0.0,0.0,0.0,0.0,0.0,0.0,0.0,0.0,-3.8237,-3.6585,-3.5828,-3.5547,-3.5808,-3.612,-3.6589,-3.7255,-3.7446,-3.7741,-3.8476,-3.823,-3.823,-3.8761,-3.8486,-3.8576,-3.961,-3.9731,-4.0059,-4.0919,-4.0519,-4.0249,-4.0683,-4.12,-4.1566,-4.1338,-4.1593,-4.1787,-4.1811,-4.1727,-4.1608,-4.1626,-4.1904,-4.2176,-4.2353,-4.2114,-4.1743,-4.1354,-4.1104,-4.0878,-4.0749,-4.0856,-4.0844,-4.081,-4.0538,-4.025,-4.0153,-3.9834,-3.9597,-3.7828,-3.8444,-3.8701,-3.8303,-3.7399,-3.6758,-3.6492,-3.6394,-3.6337,-3.6581,-3.7093,-3.7605,-3.8513,-3.9512,-3.9042,-3.9372,-4.0323,-4.0306,-4.0509,-4.0746,-4.013,-3.9878,-3.9922,-3.9541,-3.9337,-3.9235,-3.8151,-3.8132,-3.9022,-3.6618,-3.6083,-3.7161,-3.6186,-3.592,-3.6408,-3.6961,-3.7822,-3.9005,-3.9637,-4.0021,-4.0174,-4.038,-4.0506,-4.0535,-4.053,-4.0506,-4.0531,-4.0499,-4.0495,-4.0489,-4.0489,-4.0162,-3.9469,-3.8623,-3.8161,0.0,-3.7353,0.0,0.0,0.0,0.0,0.0,0.0,0.0,0.0,-3.7879,-3.7948,-3.7451,-3.6254,-3.5993,-3.7124,-3.7331,-3.7666,-3.8251,-3.8324,-3.8546,-3.9209,-3.8707,-3.869,-3.9764,-3.9332,-3.9139,-3.9694,-3.9781,-3.9849,-4.0036,-3.9967,-4.0033,-4.0574,-4.1141,-4.1301,-4.0732,-4.1292,-4.1644,-4.1675,-4.1638,-4.1604,-4.1604,-4.1629,-4.1687,-4.2096,-4.155,-4.0996,-4.0978,-4.0974,-4.0877,-4.0512,-4.1007,-4.1396,-4.1258,-4.0715,-4.0272,-4.0147,-3.9634,-3.9064,-3.7804,-3.8482,-3.8573,-3.8435,-3.8204,-3.7519,-3.6842,-3.633,-3.6059,-3.6532,-3.7485,-3.916,-3.9648,-3.9365,-4.0036,-3.9991,-3.9286,-3.9511,-3.9493,-3.9234,-3.9403,-3.9559,-3.9663,-3.9256,-3.878,-3.8239,-3.7121,-3.6344,-3.5842,-3.4715,-3.4731,-3.585,-3.5637,-3.5991,-3.6925,0.0,0.0,0.0,-3.9698,-4.0286,-4.0431,-4.0468,-4.0578,-4.0718,-4.0636,0.0,-4.0662,-4.0549,-4.0508,-4.0489,-4.0489,0.0,0.0,0.0,0.0,0.0,0.0,0.0,0.0,0.0,0.0,0.0,-3.9581,-3.8645,-3.7611,-3.8555,-3.8978,-3.8438,-3.8988,-3.9123,-3.8353,-3.9143,-3.975,-3.9986,-3.9919,-3.9935,-4.0087,-3.9952,-3.9952,-4.002,-4.0003,-4.0003,-4.002,-4.0138,-4.0188,-4.0221,-4.0188,-4.0165,-4.01,-4.0204,-4.015,-4.0101,-4.0746,-4.1168,-4.1503,-4.1831,-4.1985,-4.2044,-4.1941,-4.1865,-4.1849,-4.1289,-4.0852,-4.0799,-4.0546,-4.0305,-4.0208,-4.0024,-4.0023,-3.9893,-3.9729,-3.9788,-4.0289,-3.9783,-3.9129,-3.8244,0.0,-3.8594,-3.8345,0.0,-3.7615,-3.7155,-3.6632,-3.6257,-3.6835,-3.8087,-3.9071,-3.9515,-3.9499,-3.9647,-3.9607,-3.9423,-3.9527,-3.9589,-3.9576,-3.9414,-3.9153,-3.8868,-3.8445,-3.7784,-3.6888,-3.6131,-3.5533,-3.5119,-3.4393,-3.433,-3.4899,-3.504,-3.5381,-3.5918,-3.6975,-3.7928,-3.8842,-3.9879,-4.0457,-4.061,-4.0668,-4.0742,-4.0885,0.0,0.0,0.0,0.0,0.0,0.0,0.0,0.0,0.0,0.0,0.0,-4.0577,-4.0173,-3.9807,-3.9582,-3.9696,-3.966,-3.9383,-3.9387,-3.9066,-3.8284,-3.8356,-3.8738,-3.9476,-3.9842,-3.9671,-3.912,-3.9846,-4.0146,-3.9512,-3.9976,-4.0268,-3.9944,-4.0182,-4.0387,-4.0286,-4.0063,-3.9961,-4.0269,-4.0189,-4.0315,-4.0621,-4.055,-4.0398,-4.028,-4.0284,-4.0417,-4.0642,-4.1202,-4.1674,-4.1895,-4.1984,-4.2078,-4.2082,-4.1669,-4.1377,-4.1358,-4.0719,-4.0206,-4.0206,-4.007,-3.9965,-3.9984,-4.0077,-4.0149,-3.9752,-3.9607,-3.9499,-3.9569,-3.9139,-3.8661,-3.88,-3.91,-3.8796,-3.8351,-3.7807,-3.7778,-3.7496,-3.7076,0.0,0.0,0.0,-3.8848,-3.9211,-3.9694,-3.9104,-3.9082,-3.9508,-3.9564,-3.9661,-3.9767,-3.922,-3.8546,-3.7816,-3.7461,-3.6758,-3.5727,-3.5367,-3.5182,-3.5103,-3.4573,-3.4365,-3.4451,-3.4661,-3.4932,-3.5363,-3.6824,-3.8187,-3.9349,-4.014,-4.0584,-4.0722,-4.0852,-4.0961,-4.1013,-4.089,-4.0791,-4.0711,-4.0621,-4.0534,-4.0588,-4.0588,-4.0911,-4.161,-4.1668,-4.1673,-4.1667,-4.1647,-4.0927,-3.9239,-3.9688,-3.9515,-3.8294,-3.8784,-3.9067,-3.8954,-3.8122,-3.836,-4.0113,-3.9654,-3.9281,-3.9281,-3.9747,-3.9696,-3.8567,-3.9576,-4.0072,-3.9559,-3.9935,-4.0226,-4.0107,-3.9607,-3.9517,-4.0031,-4.0002,-4.0141,-4.0639,-4.0481,-4.0465,-4.0536,-4.0543,-4.0672,-4.1006,-4.1351,-4.1877,-4.2073,-4.1885,-4.1794,-4.1704,-4.1101,-4.0607,-4.0498,-3.9966,-3.9491,-3.9469,-3.9538,-3.9571,-3.9644,-4.0028,-4.0377,-3.9625,-3.9415,-3.9163,-3.835,-3.8146,-3.8087,-3.9297,-3.9872,-3.9153,-3.8813,-3.8705,-3.8723,-3.8239,-3.7577,-3.8064,-3.8508,-3.9002,-3.9786,-3.9944,-3.964,-3.9706,-3.9258,-3.8458,-3.8729,-3.8378,0.0,-3.7747,-3.7426,-3.673,-3.6676,-3.6215,-3.5413,-3.5293,-3.4988,-3.4498,-3.4365,-3.4535,-3.4944,-3.5032,-3.5869,-3.7433,-3.7813,-3.8768,-4.0424,-4.0546,-4.0676,-4.0867,-4.0954,-4.1037,-4.1078,-4.1011,-4.0898,-4.0791,-4.0711,-4.0648,-4.0588,-4.0588,-4.066,-4.0781,-4.0814,-4.0786,-4.0781,-4.0781,-4.0825,-4.096,-4.0967,-4.0621,-3.9898,-3.8988,-3.8484,-3.8623,-3.8848,-3.9031,-3.9381,-3.9015,-3.8705,-3.8722,-3.8769,-3.8992,-3.9342,-3.9559,-3.9585,-3.9461,-3.9581,-3.9461,-3.8802,-3.8891,-3.9042,-3.9216,-3.948,-3.9717,-3.9805,-3.9949,-3.9886,-4.0121,-3.9917,-3.9868,-4.0164,-4.0374,-4.058,-4.1053,-4.103,-4.099,-4.099,-4.0349,-3.9867,-3.9867,-3.9347,-3.892,-3.886,-3.8933,-3.8915,-3.8896,-3.8915,-3.8762,-3.8102,-3.7936,-3.7613,-3.6879,-3.7131,-3.7616,-3.9798,-4.0134,-3.9319,-3.8958,-3.894,-3.8907,-3.8734,-3.856,-3.8829,-3.8896,-3.8854,-3.9442,-3.9676,-3.9583,-3.9593,-3.9034,-3.8098,-3.8122,-3.7676,-3.6846,-3.6932,-3.6611,-3.59,-3.5863,-3.542,-3.4678,-3.4641,-3.4569,-3.4473,-3.4555,-3.4809,-3.5157,-3.5273,-3.624,-3.7939,-3.8054,-3.8984,-4.08,-4.0751,-4.0772,-4.0961,-4.1022,-4.107,-4.1108,-4.1047,-4.0948,-4.0857,-4.0768,-4.0681,-4.0646,-4.0646,-4.0673,-4.07,-4.0713,-4.0687,-4.0626,-4.0096,-3.9838,-3.9909,-3.9169,-3.8583,-3.8276,-3.7727,-3.7613,-3.8067,-3.8653,-3.9142,-3.9492,-3.9359,-3.8975,-3.8457,-3.8821,-3.8933,-3.8241,-3.9048,-3.9466,-3.9151,-3.9431,-3.9501,-3.9108,-3.8895,-3.8929,-3.9312,-3.9391,-3.9641,-3.991,-3.9914,-3.9731,-3.9486,-3.924,-3.9373,-4.0203,-4.0165,-4.0215,-4.0677,-4.0507,-4.0339,-4.0302,-3.9676,-3.9232,-3.9158,-3.8841,-3.8744,-3.8707,-3.8707,-3.8707,-3.8689,-3.8322,-3.7753,-3.7074,-3.6835,-3.6523,-3.5954,-3.6248,-3.7052,-4.0152,-4.0327,-3.9406,-3.9082,-3.9129,-3.911,-3.92,-3.9364,-3.9383,-3.9223,-3.9007,-3.916,-3.9389,-3.9664,-3.9489,-3.9002,-3.8327,-3.7931,-3.7331,-3.6582,-3.6334,-3.5835,-3.5114,-3.504,-3.4766,-3.4253,-3.4221,-3.4367,-3.473,-3.4907,-3.5056,-3.5258,-3.5441,-3.6408,-3.8085,-3.8125,-3.9093,-4.0863,-4.0902,-4.0898,-4.1011,-4.1074,-4.1108,-4.1108,-4.1037,-4.0877,-4.0645,-4.05,-4.0362,-4.014,-4.014,-4.0153,-4.021,-4.0198,-4.0153,-4.0023,-3.9281,-3.8665,-3.8324,-3.7352,-3.6705,-3.6644,-3.6618,-3.685,-3.7405,-3.7986,-3.8546,-3.9047,-3.881,-3.8353,-3.7913,-3.8439,-3.8569,-3.7542,-3.8673,-3.9287,-3.8843,-3.92,-3.9486,-3.9307,-3.8829,-3.876,-3.9264,-3.9317,-3.9413,-3.981,-3.9827,-3.9399,-3.8879,-3.864,-3.9038,-3.9823,-3.9877,-3.9726,-4.0294,-4.001,-3.9693,-3.9638,-3.9148,-3.8836,-3.8762,-3.8726,-3.8689,-3.8719,-3.8719,-3.875,-3.8695,-3.8107,-3.7353,-3.6636,-3.6287,-3.5882,-3.5368,-3.5625,-3.6274,-4.0335,-4.0271,-3.9435,-3.9234,-3.9462,-3.9622,-3.9687,-3.9664,-3.9664,-3.9775,-3.9882,-3.9668,-3.9712,-3.9901,-3.969,-3.9425,-3.9102,-3.8345,-3.7459,-3.6612,-3.584,-3.5087,-3.4377,-3.4321,-3.4409,-3.4517,-3.4539,-3.4732,-3.5089,-3.5153,-3.5278,-3.5446,-3.5565,-3.6465,-3.8009,-3.8266,-3.9198,-4.0945,-4.0988,-4.1019,-4.1101,-4.1108,-4.1108,-4.1108,-4.1088,-4.066,-3.9831,-3.9715,-3.9305,-3.8523,-3.8479,-3.8453,-3.8458,-3.8325,-3.8271,-3.8267,-3.8051,-3.7753,-3.7343,-3.7052,-3.6758,-3.6686,-3.6612,-3.6642,-3.671,-3.6759,-3.6948,-3.7202,-3.6399,-3.6249,-3.6574,-3.6877,-3.7522,-3.8456,-3.8834,-3.8941,-3.8924,-3.8923,-3.869,-3.7953,-3.8282,-3.8391,-3.8609,-3.8797,-3.8994,-3.9166,-3.9178,-3.9054,-3.887,-3.839,-3.8261,-3.8925,-3.8969,-3.8994,-3.9172,-3.9024,-3.9013,-3.8958,-3.8842,-3.8738,-3.8738,-3.8719,-3.8719,-3.8762,-3.8792,-3.8792,-3.8612,-3.8217,-3.7386,-3.6436,-3.5846,-3.5311,-3.5264,-3.5293,-3.545,-3.9526,-3.9584,-3.925,-3.9269,-3.947,-3.958,-3.975,-4.0002,-4.0002,-4.012,-4.0302,-4.023,-4.025,-4.0266,-4.0043,-3.9428,-3.8397,-3.7851,-3.6802,-3.5516,-3.5077,-3.467,-3.4258,-3.4381,-3.4495,-3.4604,-3.471,-3.4908,-3.5196,-3.5356,-3.5492,-3.5628,-3.6113,-3.7069,-3.8274,-3.8857,-3.9772,-4.0992,-4.1061,-4.1065,-4.1099,-4.1114,-4.1114,-4.1043,-4.0633,-4.019,-3.9663,-3.9174,-3.8675,-3.8226,-3.8125,-3.7868,-3.7398,-3.7247,-3.719,-3.716,-3.6982,-3.6502,-3.5706,-3.5574,-3.5525,-3.5479,-3.5455,-3.5595,-3.5944,-3.5591,-3.5528,-3.6039,-3.6072,-3.6267,-3.6753,-3.7044,-3.7598,-3.8383,-3.8755,-3.8903,-3.8903,-3.8903,-3.8752,-3.846,-3.8566,-3.8646,-3.8676,-3.8785,-3.891,-3.891,-3.8892,-3.8818,-3.8855,-3.8615,-3.8607,-3.8857,-3.8939,-3.8892,-3.8892,-3.8862,-3.8862,-3.8851,-3.8851,-3.884,-3.881,-3.884,-3.8822,-3.8833,-3.8796,-3.8604,-3.818,-3.7544,-3.675,-3.5955,-3.5143,-3.4534,-3.4534,-3.4534,-3.4463,-3.8989,-3.9156,-3.9272,-3.9441,-3.9672,-3.9711,-3.9962,-4.0304,-4.0302,-4.0406,-4.05,-4.0569,-4.0569,-4.0481,-4.0161,-3.927,-3.8072,-3.7375,-3.6368,-3.5088,-3.4824,-3.4588,-3.4439,-3.4609,-3.4751,-3.4812,-3.4945,-3.5107,-3.5312,-3.5484,-3.5726,-3.6046,-3.6709,-3.7641,-3.8714,-3.9434,-4.019,-4.1015,-4.1112,-4.1105,-4.1105,-4.1116,-4.1114,-4.1043,-4.0281,-3.9715,-3.9331,-3.8474,-3.7801,-3.7467,-3.7327,-3.7002,-3.6444,-3.6266,-3.617,-3.6121,-3.5948,-3.5495,-3.4685,-3.4666,-3.4645,-3.4623,-3.4602,-3.4824,-3.5109,-3.4787,-3.4726,-3.5192,-3.5708,-3.613,-3.6938,-3.7237,-3.7616,-3.812,-3.8453,-3.8625,-3.8635,-3.8635,-3.8699,-3.8894,-3.8921,-3.8839,-3.8672,-3.858,-3.859,-3.859,-3.8395,-3.858,-3.8783,-3.8746,-3.8664,-3.8933,-3.8869,-3.8766,-3.8876,-3.8921,-3.8939,-3.8939,-3.891,-3.891,-3.8855,-3.8781,-3.8607,-3.8338,-3.8551,-3.8339,-3.7646,-3.6869,-3.6157,-3.5251,-3.453,-3.4104,-3.4185,-3.4086,-3.4086,-3.9183,-3.9331,-3.9693,-3.9897,-4.0061,-4.025,-4.0419,-4.0545,-4.0559,-4.0574,-4.0574,-4.0588,-4.0588,-4.0549,-3.9827,-3.9258,-3.8709,-3.7277,-3.6375,-3.5931,-3.5285,-3.4962,-3.4981,-3.4999,-3.5069,-3.5187,-3.5254,-3.5354,-3.5556,-3.5605,-3.6082,-3.6887,-3.7133,-3.8034,-3.9389,-3.9833,-4.0313,-4.1027,-4.1062,-4.1062,-4.1066,-4.1097,-4.1026,-4.0883,-4.0237,-3.9332,-3.8455,-3.7491,-3.6556,-3.5689,-3.558,-3.5431,-3.5373,-3.5283,-3.5167,-3.504,-3.5022,-3.4945,-3.4809,-3.4788,-3.4766,-3.4682,-3.4682,-3.4639,-3.4846,-3.4714,-3.4636,-3.4655,-3.478,-3.5343,-3.6463,-3.6716,-3.7076,-3.7792,-3.796,-3.8006,-3.8005,-3.8108,-3.8331,-3.8832,-3.8888,-3.8572,-3.7997,-3.7949,-3.7922,-3.7792,-3.731,-3.7328,-3.8405,-3.8312,-3.8256,-3.8553,-3.8423,-3.8191,-3.8832,-3.8832,-3.8877,-3.8997,-3.895,-3.8939,-3.8633,-3.8375,-3.8108,-3.7896,-3.8035,-3.7794,-3.7068,-3.6382,-3.5751,-3.5064,-3.4501,-3.4148,-3.4148,-3.4173,-3.4167,-3.81,-3.8471,-3.9114,-3.9599,-3.9975,-4.0139,-4.0302,-4.0466,-4.0559,-4.0588,-4.0621,-4.0635,-4.0668,-4.061,-3.9844,-3.9077,-3.8344,-3.7209,-3.6315,-3.5662,-3.5318,-3.5119,-3.5015,-3.5119,-3.5242,-3.5312,-3.5432,-3.5545,-3.5661,-3.5746,-3.6259,-3.7122,-3.7786,-3.8701,-3.9739,-4.0437,-4.0894,-4.1074,-4.0647,-4.0335,-4.0252,-3.9783,-3.9455,-3.9416,-3.9131,-3.85,-3.7529,-3.6057,-3.531,-3.5477,-3.4817,-3.4636,-3.5078,-3.5053,-3.4945,-3.4908,-3.4908,-3.4889,-3.4888,-3.4869,-3.5115,-3.5529,-3.5093,-3.5016,-3.5275,-3.5028,-3.4687,-3.4645,-3.4623,-3.5102,-3.5825,-3.6133,-3.6451,-3.7193,-3.781,-3.8091,-3.8172,-3.8147,-3.8252,-3.835,-3.8011,-3.7411,-3.7288,-3.7132,-3.7132,-3.7113,-3.6872,-3.701,-3.7318,-3.7281,-3.7288,-3.7448,-3.7336,-3.7206,-3.7448,-3.8015,-3.8359,-3.8841,-3.9045,-3.9027,-3.8832,-3.8646,-3.8414,-3.7988,-3.7922,-3.7524,-3.6909,-3.6092,-3.5442,-3.4736,-3.4216,-3.4216,-3.4216,-3.4245,-3.4221,-3.7173,-3.7533,-3.8079,-3.8602,-3.9037,-3.9162,-3.9337,-3.9544,-3.9657,-3.9716,-3.9764,-3.981,-3.9857,-3.9747,-3.9038,-3.8349,-3.7694,-3.7083,-3.6318,-3.5488,-3.5416,-3.5355,-3.5262,-3.5355,-3.5441,-3.5537,-3.591,-3.5983,-3.5836,-3.6145,-3.6642,-3.7245,-3.8164,-3.8887,-3.9531,-4.0332,-4.0664,-4.0293,-3.9758,-3.9452,-3.9336,-3.8831,-3.8322,-3.807,-3.8031,-3.7721,-3.6983,-3.5451,-3.4872,-3.5249,-3.4652,-3.4464,-3.4942,-3.4945,-3.4927,-3.4964,-3.4963,-3.4982,-3.5018,-3.4982,-3.5343,-3.6141,-3.5761,-3.5628,-3.6044,-3.5627,-3.521,-3.4926,-3.473,-3.4992,-3.5411,-3.5539,-3.5832,-3.6512,-3.7132,-3.7497,-3.7497,-3.7479,-3.7544,-3.7673,-3.758,-3.71,-3.6553,-3.6684,-3.669,-3.646,-3.6236,-3.6124,-3.6646,-3.6584,-3.6614,-3.6801,-3.6694,-3.6732,-3.7012,-3.7511,-3.788,-3.8338,-3.8961,-3.8998,-3.8728,-3.8617,-3.8393,-3.8059,-3.7724,-3.7326,-3.6686,-3.5876,-3.5132,-3.4407,-3.4216,-3.4216,-3.4245,-3.4293,-3.4298,-3.6415,-3.6413,-3.6619,-3.6906,-3.7249,-3.7461,-3.7566,-3.7852,-3.7939,-3.8131,-3.8301,-3.8141,-3.8337,-3.8124,-3.7544,-3.6988,-3.6861,-3.6687,-3.6281,-3.5681,-3.5681,-3.5623,-3.5535,-3.5612,-3.5689,-3.5809,-3.6604,-3.6623,-3.6076,-3.6736,-3.7209,-3.7539,-3.8223,-3.8711,-3.8691,-3.9512,-3.9473,-3.8887,-3.8671,-3.8516,-3.8418,-3.8298,-3.7837,-3.711,-3.7003,-3.6964,-3.6886,-3.5803,-3.5177,-3.5243,-3.4956,-3.487,-3.4926,-3.4945,-3.4963,-3.5088,-3.5105,-3.5174,-3.5235,-3.5171,-3.5467,-3.6172,-3.6325,-3.6192,-3.6307,-3.6211,-3.5864,-3.5324,-3.5053,-3.5002,-3.5111,-3.5096,-3.5227,-3.5698,-3.6032,-3.6139,-3.6045,-3.591,-3.6092,-3.6817,-3.7277,-3.7394,-3.6456,-3.6264,-3.6396,-3.5814,-3.527,-3.527,-3.6264,-3.6186,-3.6335,-3.664,-3.6392,-3.6088,-3.6613,-3.7152,-3.7435,-3.7783,-3.8503,-3.8838,-3.8126,-3.7816,-3.7443,-3.7131,-3.71,-3.6721,-3.6024,-3.5259,-3.504,-3.4498,-3.4391,-3.4321,-3.4435,-3.4505,-3.4439,-3.4141,-3.4388,-3.5005,-3.5247,-3.5429,-3.6508,-3.689,-3.671,-3.7277,-3.7702,-3.7851,-3.7867,-3.7882,-3.77,-3.7079,-3.6408,-3.5919,-3.5391,-3.5272,-3.5607,-3.5665,-3.5375,-3.5035,-3.5414,-3.5762,-3.5892,-3.6187,-3.6543,-3.6836,-3.7129,-3.7802,-3.8848,-3.873,-3.8945,-3.9375,-3.918,-3.8789,-3.8555,-3.7937,-3.7622,-3.7486,-3.691,-3.6422,-3.614,-3.6102,-3.6102,-3.6052,-3.5059,-3.4803,-3.5372,-3.4652,-3.4497,-3.504,-3.5171,-3.5203,-3.5219,-3.5235,-3.5235,-3.5281,-3.5285,-3.5599,-3.6173,-3.6001,-3.5962,-3.6291,-3.5982,-3.563,-3.5335,-3.5219,-3.5203,-3.5219,-3.5203,-3.5205,-3.5188,-3.5718,-3.6023,-3.5984,-3.5941,-3.5786,-3.5499,-3.5641,-3.5465,-3.5184,-3.5412,-3.5525,-3.519,-3.4773,-3.498,-3.5227,-3.545,-3.5189,-3.5453,-3.5287,-3.5514,-3.5951,-3.6425,-3.6797,-3.7171,-3.7831,-3.8421,-3.777,-3.7155,-3.6742,-3.6385,-3.6329,-3.6028,-3.533,-3.5015,-3.487,-3.4764,-3.4693,-3.4714,-3.4735,-3.4735,-3.4695,-3.1982,-3.2163,-3.2721,-3.2995,-3.3122,-3.4277,-3.467,-3.4693,-3.5514,-3.5835,-3.5783,-3.6102,-3.6112,-3.5833,-3.5398,-3.4993,-3.4507,-3.3949,-3.4087,-3.4668,-3.4737,-3.4436,-3.4098,-3.4535,-3.5066,-3.5446,-3.5796,-3.623,-3.6797,-3.748,-3.8184,-3.873,-3.9002,-3.9141,-3.9385,-3.8881,-3.8473,-3.8018,-3.72,-3.6751,-3.6609,-3.6106,-3.5757,-3.5728,-3.5747,-3.5728,-3.5679,-3.5025,-3.4905,-3.5284,-3.4798,-3.4789,-3.5292,-3.5345,-3.5359,-3.5418,-3.5399,-3.5425,-3.5489,-3.5477,-3.5784,-3.6348,-3.6169,-3.6092,-3.6463,-3.6092,-3.5836,-3.5547,-3.5386,-3.5359,-3.5386,-3.535,-3.5266,-3.5119,-3.5508,-3.5816,-3.5799,-3.5665,-3.5436,-3.5131,-3.543,-3.5277,-3.4917,-3.5407,-3.5279,-3.4997,-3.4791,-3.485,-3.4851,-3.5037,-3.5034,-3.5069,-3.5248,-3.5353,-3.5315,-3.5687,-3.6152,-3.6597,-3.7086,-3.7558,-3.752,-3.695,-3.6457,-3.5946,-3.5738,-3.5625,-3.5038,-3.521,-3.5192,-3.5115,-3.4962,-3.4925,-3.4907,-3.5015,-3.4996,-2.993,-3.0001,-3.0047,-3.0446,-3.0885,-3.1291,-3.1839,-3.2098,-3.2964,-3.3183,-3.2882,-3.3559,-3.3435,-3.2871,-3.302,-3.2941,-3.2801,-3.2692,-3.2793,-3.3012,-3.3033,-3.2995,-3.3355,-3.3412,-3.379,-3.4578,-3.5349,-3.584,-3.6152,-3.7519,-3.8164,-3.7832,-3.8962,-3.9394,-3.8826,-3.8596,-3.8235,-3.753,-3.6641,-3.6211,-3.6129,-3.5908,-3.5862,-3.581,-3.5801,-3.5801,-3.5754,-3.5592,-3.5512,-3.5516,-3.5384,-3.5333,-3.5442,-3.543,-3.5496,-3.56,-3.5591,-3.565,-3.5736,-3.5669,-3.5891,-3.6538,-3.6616,-3.685,-3.6654,-3.6519,-3.6269,-3.5776,-3.556,-3.5485,-3.5549,-3.5512,-3.5445,-3.5418,-3.5422,-3.5353,-3.516,-3.5076,-3.5039,-3.5211,-3.6179,-3.6748,-3.5249,-3.6255,-3.616,-3.5796,-3.5316,-3.516,-3.5395,-3.5473,-3.5463,-3.5457,-3.5397,-3.5443,-3.5468,-3.5595,-3.6012,-3.6117,-3.6468,-3.6703,-3.6993,-3.6519,-3.6156,-3.5642,-3.5339,-3.5167,-3.5127,-3.5312,-3.5348,-3.5193,-3.51,-3.5032,-3.51,-3.5247,-3.5277,-2.8168,-2.887,-2.9218,-2.9242,-2.94,-3.1121,-3.1854,-3.1802,-3.2516,-3.2773,-3.2816,-3.2557,-3.2317,-3.2104,-3.1663,-3.1559,-3.1554,-3.1178,-3.1348,-3.1811,-3.1361,-3.2037,-3.2869,-3.2679,-3.2895,-3.3797,-3.4625,-3.5325,-3.6001,-3.7077,-3.7799,-3.8192,-3.8645,-3.886,-3.8553,-3.8556,-3.8438,-3.8088,-3.7305,-3.6833,-3.6708,-3.6134,-3.5826,-3.5799,-3.5799,-3.5799,-3.5799,-3.5795,-3.5735,-3.56,-3.566,-3.5698,-3.5679,-3.5679,-3.5688,-3.5745,-3.5754,-3.5745,-3.5784,-3.5773,-3.5879,-3.6032,-3.617,-3.6075,-3.6095,-3.6095,-3.5987,-3.5791,-3.5717,-3.5688,-3.5745,-3.5698,-3.5699,-3.5679,-3.5489,-3.5311,-3.5266,-3.5219,-3.5187,-3.5264,-3.5684,-3.5895,-3.6048,-3.6067,-3.6332,-3.6572,-3.6182,-3.555,-3.596,-3.5842,-3.5758,-3.5591,-3.554,-3.5608,-3.5678,-3.5763,-3.5828,-3.577,-3.5862,-3.5878,-3.6017,-3.5828,-3.5626,-3.5417,-3.5479,-3.5364,-3.536,-3.5446,-3.5355,-3.5321,-3.5383,-3.5383,-3.5457,-3.5553,-3.554,-2.7451,-2.7998,-2.843,-2.852,-2.8558,-3.0061,-3.0604,-3.0643,-3.1335,-3.156,-3.1448,-3.1453,-3.118,-3.0866,-3.0638,-3.0574,-3.0598,-3.0318,-3.0515,-3.0879,-3.0645,-3.1302,-3.224,-3.2139,-3.2617,-3.3762,-3.4008,-3.4795,-3.5812,-3.6532,-3.7355,-3.8374,-3.8877,-3.9041,-3.9064,-3.8643,-3.8511,-3.8266,-3.7384,-3.6807,-3.7092,-3.6326,-3.591,-3.5826,-3.5833,-3.5833,-3.5833,-3.5872,-3.5833,-3.576,-3.5784,-3.5826,-3.5845,-3.5845,-3.5852,-3.5852,-3.5852,-3.5845,-3.583,-3.5845,-3.5859,-3.5866,-3.5859,-3.5852,-3.5872,-3.5826,-3.5826,-3.5852,-3.5826,-3.5833,-3.5845,-3.5838,-3.5834,-3.5782,-3.5618,-3.5483,-3.5425,-3.5386,-3.5339,-3.5402,-3.5657,-3.582,-3.6181,-3.6181,-3.6652,-3.7079,-3.6999,-3.6717,-3.6728,-3.6358,-3.5963,-3.5762,-3.5646,-3.5697,-3.5707,-3.5745,-3.5781,-3.5734,-3.5706,-3.5612,-3.5591,-3.5559,-3.5656,-3.5688,-3.5642,-3.5584,-3.5565,-3.5565,-3.5553,-3.5565,-3.5673,-3.5684,-3.5684,-3.5684,-3.5684,-2.7456,-2.7491,-2.7859,-2.811,-2.8354,-2.8554,-2.9119,-2.9234,-3.0057,-3.0008,-2.9678,-3.0095,-3.0048,-2.9341,-2.9868,-2.9929,-2.9962,-3.0102,-3.0207,-3.0439,-3.0579,-3.1244,-3.2106,-3.1757,-3.2322,-3.3471,-3.3382,-3.4212,-3.5223,-3.5772,-3.6863,-3.8063,-3.9076,-3.9538,-3.9316,-3.8926,-3.8649,-3.8252,-3.7091,-3.6682,-3.6955,-3.6384,-3.5917,-3.5878,-3.5878,-3.6014,-3.6039,-3.6006,-3.593,-3.606,-3.5955,-3.5903,-3.5883,-3.5889,-3.5889,-3.5883,-3.5897,-3.5878,-3.5883,-3.5878,-3.5883,-3.5883,-3.5883,-3.5889,-3.5883,-3.5878,-3.5878,-3.5878,-3.5889,-3.5883,-3.5878,-3.5879,-3.5859,-3.583,-3.5807,-3.5735,-3.5641,-3.551,-3.5434,-3.5461,-3.6106,-3.6061,-3.6215,-3.6652,-3.7488,-3.7421,-3.7243,-3.6839,-3.6735,-3.6484,-3.6106,-3.5814,-3.5756,-3.5745,-3.5736,-3.5708,-3.5728,-3.5737,-3.5718,-3.5708,-3.5785,-3.582,-3.5985,-3.5996,-3.5775,-3.5697,-3.5687,-3.5687,-3.5706,-3.5697,-3.5718,-3.5727,-3.5706,-3.5697,-3.5697,-2.7864,-2.7906,-2.8282,-2.8481,-2.8686,-2.9436,-2.9826,-2.9892,-3.0075,-3.0002,-2.9861,-2.955,-2.9357,-2.9321,-2.957,-2.9734,-2.9981,-3.0213,-3.0199,-3.0316,-3.1046,-3.1868,-3.2338,-3.166,-3.1297,-3.211,-3.2989,-3.3618,-3.4247,-3.5435,-3.6434,-3.7467,-3.8344,-3.8786,-3.8753,-3.9076,-3.9135,-3.8461,-3.737,-3.6921,-3.6941,-3.6454,-3.5986,-3.5967,-3.5967,-3.6279,-3.6649,-3.6279,-3.6259,-3.6565,-3.6292,-3.5889,-3.5889,-3.5889,-3.5889,-3.5889,-3.5889,-3.5889,-3.5889,-3.5889,-3.5889,-3.5889,-3.5889,-3.5889,-3.5889,-3.5889,-3.5889,-3.5889,-3.5889,-3.5986,-3.5986,-3.5922,-3.5872,-3.5866,-3.5859,-3.5859,-3.5827,-3.5749,-3.5697,-3.5747,-3.5873,-3.6144,-3.6552,-3.6241,-3.6862,-3.7482,-3.7365,-3.6792,-3.6634,-3.6604,-3.6262,-3.592,-3.5823,-3.5795,-3.5791,-3.5754,-3.5765,-3.5775,-3.5773,-3.5771,-3.5851,-3.5881,-3.5959,-3.5939,-3.5823,-3.5784,-3.5757,-3.5766,-3.5766,-3.5775,-3.5775,-3.5757,-3.5737,-3.5718,-3.5728,-2.8264,-2.8334,-2.863,-2.8785,-2.8879,-2.9397,-2.9659,-2.9641,-2.9641,-2.9635,-2.9567,-2.9237,-2.9228,-2.9338,-2.9608,-2.9992,-3.0585,-3.1123,-3.1159,-3.1145,-3.1751,-3.2513,-3.2832,-3.248,-3.2188,-3.3053,-3.3648,-3.4116,-3.4681,-3.5095,-3.5933,-3.7116,-3.7695,-3.7851,-3.7896,-3.8383,-3.8246,-3.7798,-3.7058,-3.6746,-3.6999,-3.6785,-3.6512,-3.6512,-3.6493,-3.6629,-3.6493,-3.661,-3.6532,-3.6473,-3.6162,-3.5889,-3.5889,-3.5889,-3.5889,-3.5889,-3.5889,-3.5889,-3.5889,-3.5889,-3.5889,-3.5889,-3.5889,-3.5889,-3.5889,-3.5889,-3.5889,-3.5986,-3.624,-3.6512,-3.6473,-3.6025,-3.5947,-3.5889,-3.5889,-3.5889,-3.5883,-3.5859,-3.5852,-3.5852,-3.5857,-3.6083,-3.618,-3.6161,-3.653,-3.73,-3.7965,-3.7454,-3.6968,-3.6865,-3.6411,-3.608,-3.5917,-3.5852,-3.585,-3.5834,-3.5807,-3.5826,-3.5842,-3.5845,-3.5872,-3.5864,-3.5838,-3.5811,-3.5807,-3.5791,-3.5773,-3.5791,-3.5799,-3.5791,-3.5782,-3.5773,-3.5773,-3.5784,-3.5784,-2.8677,-2.8702,-2.8907,-2.8975,-2.8975,-2.8994,-2.903,-2.9012,-2.8975,-2.9085,-2.9044,-2.9206,-2.9293,-2.9435,-2.9716,-3.0397,-3.1274,-3.2095,-3.2134,-3.1843,-3.241,-3.2976,-3.3209,-3.3433,-3.4011,-3.5655,-3.4915,-3.4934,-3.5148,-3.5271,-3.5875,-3.698,-3.7208,-3.735,-3.7272,-3.7214,-3.7233,-3.6941,-3.6415,-3.6415,-3.7058,-3.7116,-3.7097,-3.7077,-3.735,-3.7136,-3.6921,-3.7038,-3.7136,-3.6337,-3.6162,-3.6025,-3.5908,-3.5889,-3.5889,-3.5889,-3.5889,-3.5889,-3.5889,-3.5889,-3.5889,-3.5889,-3.5889,-3.5889,-3.5889,-3.5889,-3.5889,-3.6084,-3.6356,-3.6766,-3.6921,-3.6337,-3.5947,-3.5889,-3.5889,-3.5889,-3.5889,-3.5889,-3.5883,-3.5883,-3.5885,-3.6009,-3.6164,-3.6223,-3.6631,-3.704,-3.7708,-3.7974,-3.7389,-3.6941,-3.639,-3.6125,-3.5943,-3.5866,-3.5866,-3.5859,-3.5852,-3.5852,-3.5885,-3.5898,-3.5897,-3.5866,-3.5853,-3.5833,-3.5811,-3.5823,-3.5823,-3.5838,-3.5838,-3.5815,-3.5815,-3.583,-3.5823,-3.5826,-3.5826,-2.8942,-2.8955,-2.8989,-2.8975,-2.8975,-2.8975,-2.8975,-2.8975,-2.8975,-2.8975,-2.9021,-2.9228,-2.9395,-2.957,-2.9769,-3.0462,-3.1348,-3.229,-3.2649,-3.2412,-3.2865,-3.3327,-3.3761,-3.41,-3.484,-3.5377,-3.5109,-3.4881,-3.5109,-3.5402,-3.6045,-3.696,-3.7116,-3.7122,-3.7097,-3.7155,-3.6746,-3.6356,-3.6045,-3.6337,-3.6863,-3.7058,-3.7161,-3.7239,-3.7784,-3.796,-3.7979,-3.809,-3.8207,-3.8032,-3.737,-3.6629,-3.6089,-3.5894,-3.5894,-3.5889,-3.5889,-3.5889,-3.5889,-3.5889,-3.5889,-3.5889,-3.5889,-3.5889,-3.5889,-3.5908,-3.5947,-3.6025,-3.6084,-3.6181,-3.6103,-3.6025,-3.5928,-3.5889,-3.5889,-3.5889,-3.5889,-3.5889,-3.5889,-3.5889,-3.5883,-3.5897,-3.6033,-3.6111,-3.6267,-3.6409,-3.6693,-3.6918,-3.6606,-3.6348,-3.6114,-3.5972,-3.5903,-3.5883,-3.5883,-3.5878,-3.5872,-3.5866,-3.5891,-3.5891,-3.5883,-3.5889,-3.5878,-3.5859,-3.5853,-3.5859,-3.5866,-3.5859,-3.5859,-3.5846,-3.5872,-3.5879,-3.5866,-3.5852,-3.5872,-2.7999,-2.8356,-2.8388,-2.8631,-2.8938,-2.8975,-2.8975,-2.8975,-2.8975,-2.9067,-2.92,-2.9368,-2.9569,-2.9789,-2.9972,-3.038,-3.1087,-3.2726,-3.2802,-3.2445,-3.3115,-3.3539,-3.3839,-3.425,-3.4748,-3.5154,-3.5193,-3.5217,-3.5304,-3.5675,-3.6162,-3.6395,-3.6532,-3.6512,-3.6512,-3.6473,-3.6323,-3.5933,-3.5933,-3.6109,-3.6523,-3.6582,-3.6737,-3.7327,-3.7956,-3.8229,-3.7956,-3.8346,-3.8229,-3.7742,-3.7001,-3.6436,-3.6104,-3.5948,-3.5924,-3.5894,-3.5889,-3.5889,-3.5889,-3.5889,-3.5889,-3.5889,-3.5889,-3.5889,-3.5889,-3.5928,-3.6064,-3.6337,-3.6064,-3.6103,-3.6551,-3.6142,-3.5928,-3.5889,-3.5894,-3.5894,-3.5894,-3.5894,-3.5899,-3.5885,-3.5899,-3.5894,-3.5889,-3.5928,-3.5899,-3.589,-3.5899,-3.5899,-3.5899,-3.5923,-3.5947,-3.5909,-3.5904,-3.5899,-3.5894,-3.5894,-3.5889,-3.5889,-3.5889,-3.5889,-3.5889,-3.5889,-3.5889,-3.5883,-3.5889,-3.5889,-3.5889,-3.5878,-3.5883,-3.5889,-3.5883,-3.5897,-3.5891,-3.5885,-3.5885,-2.701,-2.7584,-2.7559,-2.8026,-2.8705,-2.8778,-2.8874,-2.9003,-2.9021,-2.9156,-2.9312,-2.9507,-2.9683,-2.9964,-3.0289,-3.0548,-3.0682,-3.2856,-3.2817,-3.2383,-3.3167,-3.3608,-3.348,-3.3815,-3.4457,-3.4832,-3.5169,-3.5753,-3.5797,-3.5908,-3.5914,-3.6036,-3.5958,-3.5919,-3.5977,-3.6075,-3.5924,-3.5924,-3.5924,-3.5963,-3.6143,-3.6363,-3.6582,-3.7191,-3.8034,-3.8112,-3.7483,-3.8088,-3.799,-3.7386,-3.6727,-3.6235,-3.6064,-3.6005,-3.5977,-3.5924,-3.5919,-3.5938,-3.5919,-3.5919,-3.5919,-3.5894,-3.5894,-3.5894,-3.5889,-3.5947,-3.6142,-3.6649,-3.6401,-3.6109,-3.6479,-3.6284,-3.5977,-3.5904,-3.5909,-3.5899,-3.5888,-3.5896,-3.5887,-3.5884,-3.5888,-3.5884,-3.5884,-3.5931,-3.5923,-3.5926,-3.5929,-3.5949,-3.5952,-3.5979,-3.5977,-3.5935,-3.5919,-3.589,-3.5885,-3.5894,-3.5894,-3.5889,-3.5889,-3.5889,-3.5889,-3.5889,-3.5889,-3.5894,-3.5889,-3.5889,-3.5889,-3.5889,-3.5889,-3.5889,-3.5889,-3.5889,-3.5883,-3.5883,-3.5897,-2.6704,-2.683,-2.6759,-2.724,-2.7959,-2.8018,-2.8467,-2.9045,-2.8983,-2.92,-2.9208,-2.9509,-2.9664,-3.0056,-3.0871,-3.1217,-3.1613,-3.224,-3.2675,-3.2283,-3.289,-3.3111,-3.3042,-3.3326,-3.3949,-3.4441,-3.4792,-3.5275,-3.5753,-3.5958,-3.5982,-3.5992,-3.5981,-3.5981,-3.5977,-3.5977,-3.5981,-3.5981,-3.5981,-3.6294,-3.6898,-3.7522,-3.7522,-3.7488,-3.7839,-3.8034,-3.7394,-3.7921,-3.7936,-3.7312,-3.7097,-3.6688,-3.6161,-3.6005,-3.6005,-3.5981,-3.5981,-3.5981,-3.5977,-3.5977,-3.5953,-3.5909,-3.5904,-3.5899,-3.5899,-3.5899,-3.5963,-3.5986,-3.5924,-3.5973,-3.6157,-3.604,-3.5981,-3.5958,-3.5916,-3.5903,-3.589,-3.5894,-3.5897,-3.5898,-3.5897,-3.5888,-3.5882,-3.5945,-3.5987,-3.5987,-3.5989,-3.5989,-3.5987,-3.601,-3.601,-3.5977,-3.5942,-3.5916,-3.5908,-3.5899,-3.5899,-3.5909,-3.5899,-3.5899,-3.5885,-3.5885,-3.5899,-3.5899,-3.5899,-3.5904,-3.5914,-3.5914,-3.5899,-3.5899,-3.5895,-3.5904,-3.5889,-3.5889,-3.5899,-2.5574,-2.6019,-2.5979,-2.6442,-2.7184,-2.7216,-2.7417,-2.7735,-2.7835,-2.7977,-2.8278,-2.8858,-2.9433,-3.0098,-3.0685,-3.0795,-3.1005,-3.1728,-3.1799,-3.1705,-3.1989,-3.2155,-3.1895,-3.2372,-3.3122,-3.3863,-3.453,-3.5233,-3.5713,-3.5958,-3.6016,-3.6005,-3.6036,-3.5994,-3.6068,-3.6025,-3.6009,-3.6009,-3.6033,-3.6189,-3.654,-3.6852,-3.693,-3.6606,-3.7406,-3.7484,-3.7445,-3.7523,-3.7679,-3.7172,-3.6879,-3.6391,-3.6098,-3.602,-3.602,-3.602,-3.6001,-3.6017,-3.6005,-3.6005,-3.5986,-3.5962,-3.5958,-3.5958,-3.5958,-3.5916,-3.5916,-3.5973,-3.5938,-3.5906,-3.5882,-3.5909,-3.5933,-3.5936,-3.5918,-3.5898,-3.5897,-3.589,-3.5884,-3.5899,-3.5896,-3.5891,-3.5898,-3.5918,-3.5957,-3.5976,-3.5976,-3.5976,-3.5995,-3.6012,-3.6012,-3.6009,-3.5964,-3.5938,-3.5932,-3.5946,-3.5957,-3.5932,-3.5912,-3.5912,-3.5888,-3.5884,-3.5888,-3.5916,-3.5926,-3.5946,-3.5946,-3.5935,-3.5908,-3.5912,-3.5919,-3.5912,-3.5908,-3.588,-3.588,-2.4709,-2.5227,-2.5208,-2.5671,-2.6413,-2.6428,-2.6573,-2.6796,-2.6916,-2.7063,-2.746,-2.832,-2.9281,-2.9914,-3.0196,-3.0394,-3.0375,-3.0983,-3.0842,-3.079,-3.0962,-3.1128,-3.113,-3.1563,-3.2232,-3.311,-3.3874,-3.4716,-3.5435,-3.588,-3.6013,-3.6033,-3.6355,-3.6199,-3.6173,-3.6544,-3.6801,-3.6433,-3.6141,-3.6063,-3.6102,-3.6082,-3.6105,-3.6225,-3.6579,-3.6989,-3.697,-3.6967,-3.6947,-3.6811,-3.642,-3.6085,-3.601,-3.5979,-3.5999,-3.5999,-3.5984,-3.597,-3.5977,-3.5985,-3.5978,-3.5965,-3.5971,-3.596,-3.596,-3.5912,-3.5895,-3.596,-3.5937,-3.5898,-3.5898,-3.5896,-3.5895,-3.5911,-3.5886,-3.5884,-3.5879,-3.5873,-3.5851,-3.5841,-3.5855,-3.5899,-3.5892,-3.5896,-3.5923,-3.5966,-3.5986,-3.5987,-3.5972,-3.5995,-3.5975,-3.5975,-3.5957,-3.5937,-3.5935,-3.5933,-3.5955,-3.5973,-3.5945,-3.5923,-3.5906,-3.5903,-3.5884,-3.5908,-3.5932,-3.5933,-3.5934,-3.5925,-3.5932,-3.5955,-3.5957,-3.594,-3.5938,-3.591,-3.5892,-2.4466,-2.4468,-2.4432,-2.4931,-2.5672,-2.569,-2.6135,-2.6637,-2.6859,-2.7033,-2.7464,-2.8379,-2.8957,-2.9378,-3.0011,-3.0305,-3.0312,-3.0369,-3.04,-3.0441,-3.055,-3.0707,-3.0737,-3.0988,-3.1482,-3.2419,-3.3317,-3.4098,-3.4859,-3.5793,-3.5949,-3.6069,-3.6479,-3.6459,-3.6771,-3.7412,-3.7513,-3.7064,-3.6518,-3.6088,-3.603,-3.601,-3.601,-3.601,-3.6069,-3.6108,-3.6091,-3.6191,-3.6235,-3.6255,-3.6101,-3.5984,-3.597,-3.5935,-3.5955,-3.5972,-3.5957,-3.5937,-3.5918,-3.597,-3.5966,-3.5934,-3.5918,-3.5918,-3.5918,-3.5897,-3.5896,-3.5916,-3.5906,-3.5903,-3.5884,-3.5882,-3.5887,-3.5877,-3.5864,-3.5875,-3.5855,-3.582,-3.5806,-3.5803,-3.583,-3.5852,-3.5866,-3.5855,-3.5888,-3.5935,-3.5935,-3.5939,-3.5916,-3.5926,-3.5919,-3.5903,-3.5901,-3.5888,-3.5891,-3.5912,-3.5932,-3.5935,-3.5918,-3.5918,-3.5917,-3.5898,-3.5898,-3.5898,-3.5915,-3.5915,-3.5915,-3.5917,-3.5937,-3.5993,-3.601,-3.5973,-3.5966,-3.5935,-3.5912,-2.4464,-2.4483,-2.4521,-2.4706,-2.4929,-2.5021,-2.517,-2.5374,-2.5614,-2.6494,-2.7606,-2.8138,-2.8895,-2.9682,-3.0086,-3.0355,-3.0355,-3.0355,-3.0348,-3.0389,-3.051,-3.0603,-3.0639,-3.0953,-3.1524,-3.2636,-3.3319,-3.4217,-3.5506,-3.5818,-3.5932,-3.6166,-3.6462,-3.7106,-3.7594,-3.7985,-3.7926,-3.7516,-3.695,-3.6599,-3.603,-3.601,-3.601,-3.601,-3.601,-3.5984,-3.5951,-3.5933,-3.5937,-3.5957,-3.5937,-3.5937,-3.5937,-3.5912,-3.5914,-3.5937,-3.5923,-3.5901,-3.5886,-3.5934,-3.5915,-3.5914,-3.5888,-3.5882,-3.5879,-3.589,-3.589,-3.5887,-3.5841,-3.5846,-3.5884,-3.5855,-3.584,-3.584,-3.5833,-3.584,-3.5845,-3.5807,-3.5799,-3.5807,-3.5799,-3.5815,-3.5815,-3.583,-3.5872,-3.5903,-3.5889,-3.5889,-3.5889,-3.5894,-3.5894,-3.5894,-3.5884,-3.588,-3.5887,-3.5887,-3.5887,-3.5896,-3.5925,-3.5901,-3.5896,-3.5899,-3.5882,-3.5893,-3.5884,-3.588,-3.59,-3.5907,-3.594,-3.5953,-3.5975,-3.6015,-3.5975,-3.5945,-3.5926,-2.4551,-2.4537,-2.4721,-2.4718,-2.4603,-2.4694,-2.4673,-2.4631,-2.4908,-2.585,-2.7445,-2.7775,-2.864,-2.9756,-3.0321,-3.0379,-3.0379,-3.0398,-3.0414,-3.0471,-3.0537,-3.0605,-3.0734,-3.1137,-3.1836,-3.2968,-3.3768,-3.4588,-3.5389,-3.5837,-3.6208,-3.6303,-3.6166,-3.6813,-3.734,-3.8082,-3.7985,-3.777,-3.734,-3.6872,-3.6127,-3.5982,-3.5966,-3.5968,-3.5972,-3.5957,-3.5917,-3.5896,-3.5893,-3.5906,-3.5899,-3.5896,-3.5893,-3.5887,-3.5887,-3.5884,-3.5877,-3.5888,-3.5896,-3.59,-3.59,-3.588,-3.586,-3.5856,-3.587,-3.5864,-3.5864,-3.586,-3.582,-3.5823,-3.5859,-3.5826,-3.5823,-3.5811,-3.5811,-3.5815,-3.5815,-3.5799,-3.5799,-3.5799,-3.5791,-3.5799,-3.5799,-3.5826,-3.5823,-3.5859,-3.5852,-3.584,-3.5846,-3.5872,-3.5891,-3.5891,-3.5883,-3.588,-3.5895,-3.589,-3.5885,-3.589,-3.5899,-3.5875,-3.587,-3.588,-3.587,-3.5855,-3.5839,-3.5866,-3.5872,-3.5894,-3.5899,-3.5907,-3.5932,-3.5977,-3.597,-3.5937,-3.5912,-2.4631,-2.4554,-2.4906,-2.4933,-2.4742,-2.4844,-2.4879,-2.4847,-2.5019,-2.5753,-2.6879,-2.7535,-2.8382,-2.9313,-3.0063,-3.0248,-3.0414,-3.0414,-3.0458,-3.052,-3.0579,-3.0626,-3.0969,-3.1448,-3.209,-3.2519,-3.3593,-3.4608,-3.4998,-3.5681,-3.6364,-3.6618,-3.6303,-3.6205,-3.6225,-3.697,-3.775,-3.8319,-3.7695,-3.6994,-3.6339,-3.6131,-3.6113,-3.5918,-3.5739,-3.5673,-3.5879,-3.5681,-3.5695,-3.5857,-3.5877,-3.5877,-3.5896,-3.5885,-3.589,-3.5896,-3.584,-3.584,-3.5883,-3.5889,-3.5889,-3.5869,-3.584,-3.5826,-3.5803,-3.5807,-3.5815,-3.5833,-3.5807,-3.5791,-3.5799,-3.5799,-3.5799,-3.5791,-3.5791,-3.5791,-3.5791,-3.5791,-3.5791,-3.5791,-3.5791,-3.5791,-3.5791,-3.5799,-3.5799,-3.5807,-3.5799,-3.5807,-3.5823,-3.5838,-3.5859,-3.5859,-3.5859,-3.5872,-3.5866,-3.5892,-3.5892,-3.5892,-3.5872,-3.5859,-3.5853,-3.5853,-3.584,-3.5803,-3.5803,-3.5818,-3.5838,-3.5857,-3.5859,-3.5875,-3.5885,-3.5919,-3.5923,-3.5923,-3.5898,-2.4599,-2.465,-2.4883,-2.4967,-2.4968,-2.5022,-2.4986,-2.4923,-2.5151,-2.5987,-2.7129,-2.7274,-2.8236,-2.941,-2.9652,-2.9866,-3.0374,-3.0472,-3.0501,-3.0576,-3.0685,-3.0675,-3.1031,-3.1763,-3.2461,-3.3124,-3.4178,-3.5115,-3.5642,-3.5896,-3.603,-3.6245,-3.6284,-3.6381,-3.697,-3.7675,-3.8363,-3.8473,-3.8163,-3.7715,-3.6892,-3.6673,-3.6435,-3.5927,-3.545,-3.5435,-3.5802,-3.5505,-3.5456,-3.578,-3.5833,-3.5833,-3.5846,-3.5852,-3.584,-3.584,-3.5799,-3.5807,-3.5838,-3.5818,-3.5838,-3.583,-3.5823,-3.5791,-3.5791,-3.5791,-3.5791,-3.5791,-3.5791,-3.5791,-3.5799,-3.5799,-3.5791,-3.5791,-3.5791,-3.5791,-3.5791,-3.5791,-3.5791,-3.5791,-3.5791,-3.5791,-3.5791,-3.5791,-3.5791,-3.5791,-3.5791,-3.5791,-3.5807,-3.5807,-3.5815,-3.5815,-3.5815,-3.5823,-3.5842,-3.585,-3.585,-3.5857,-3.583,-3.5823,-3.5815,-3.5815,-3.5815,-3.5807,-3.5799,-3.5799,-3.5826,-3.5834,-3.5834,-3.5838,-3.5853,-3.5883,-3.588,-3.5884,-3.5903,-2.4673,-2.4764,-2.4964,-2.5067,-2.5096,-2.5147,-2.5105,-2.5049,-2.5176,-2.6039,-2.7072,-2.6851,-2.7582,-2.8948,-2.9344,-2.9321,-3.0066,-3.0404,-3.0548,-3.0685,-3.1037,-3.1183,-3.1578,-3.2352,-3.3356,-3.4003,-3.4666,-3.5506,-3.5893,-3.5971,-3.6049,-3.6069,-3.601,-3.6245,-3.6875,-3.7468,-3.7964,-3.7949,-3.7753,-3.7436,-3.6855,-3.657,-3.6403,-3.5912,-3.5529,-3.5349,-3.556,-3.5477,-3.523,-3.5652,-3.5791,-3.5791,-3.5791,-3.5791,-3.5791,-3.5791,-3.5791,-3.5799,-3.5799,-3.5799,-3.5807,-3.5799,-3.5791,-3.5791,-3.5791,-3.5791,-3.5791,-3.5791,-3.5791,-3.5791,-3.5791,-3.5791,-3.5791,-3.5791,-3.5791,-3.5791,-3.5791,-3.5791,-3.5791,-3.5791,-3.5791,-3.5791,-3.5791,-3.5791,-3.5791,-3.5791,-3.5791,-3.5791,-3.5791,-3.5791,-3.5791,-3.5791,-3.5799,-3.5799,-3.5807,-3.5807,-3.5799,-3.5799,-3.5791,-3.5799,-3.5799,-3.5807,-3.5799,-3.5791,-3.5791,-3.5791,-3.5791,-3.5799,-3.5807,-3.5815,-3.5838,-3.584,-3.5855,-3.5875,-3.5873,-2.4902,-2.4955,-2.519,-2.5212,-2.513,-2.5253,-2.5284,-2.5303,-2.5303,-2.5822,-2.6601,-2.6591,-2.7168,-2.8005,-2.8709,-2.9148,-2.9532,-3.018,-3.0515,-3.092,-3.1441,-3.1737,-3.2492,-3.3554,-3.4139,-3.4783,-3.5389,-3.5779,-3.601,-3.601,-3.601,-3.601,-3.601,-3.6127,-3.6448,-3.6774,-3.7246,-3.74,-3.7415,-3.7087,-3.6629,-3.6275,-3.6181,-3.5858,-3.5554,-3.5527,-3.5621,-3.5543,-3.5593,-3.5732,-3.5791,-3.5791,-3.5791,-3.5791,-3.5791,-3.5791,-3.5791,-3.5791,-3.5791,-3.5791,-3.5791,-3.5791,-3.5791,-3.5791,-3.5791,-3.5791,-3.5791,-3.5791,-3.5791,-3.5791,-3.5791,-3.5791,-3.5791,-3.5791,-3.5791,-3.5791,-3.5791,-3.5791,-3.5782,-3.5773,-3.5773,-3.5782,-3.5791,-3.5791,-3.5791,-3.5791,-3.5791,-3.5791,-3.5791,-3.5791,-3.5791,-3.5791,-3.5791,-3.5791,-3.5791,-3.5791,-3.5791,-3.5791,-3.5791,-3.5791,-3.5791,-3.5791,-3.5791,-3.5791,-3.5791,-3.5791,-3.5791,-3.5791,-3.5799,-3.5807,-3.5815,-3.5823,-3.5827,-3.5853,-3.5866,-2.4855,-2.5061,-2.5139,-2.5222,-2.5303,-2.5351,-2.5351,-2.5313,-2.5313,-2.5793,-2.6582,-2.5918,-2.6524,-2.7862,-2.8213,-2.8728,-2.9458,-3.014,-3.0565,-3.1086,-3.1643,-3.1945,-3.2712,-3.3788,-3.4491,-3.5018,-3.5506,-3.601,-3.601,-3.601,-3.601,-3.601,-3.601,-3.601,-3.6066,-3.6191,-3.6654,-3.6977,-3.7067,-3.6844,-3.6682,-3.6521,-3.6292,-3.5889,-3.5349,-3.5363,-3.5519,-3.5247,-3.5313,-3.5655,-3.5752,-3.5791,-3.5791,-3.5791,-3.5791,-3.5791,-3.5791,-3.5791,-3.5791,-3.5791,-3.5791,-3.5791,-3.5791,-3.5791,-3.5791,-3.5791,-3.5791,-3.5791,-3.5791,-3.5791,-3.5791,-3.5791,-3.5791,-3.5791,-3.5791,-3.581,-3.5782,-3.5756,-3.5747,-3.5708,-3.5699,-3.5756,-3.5773,-3.5791,-3.5791,-3.5791,-3.5791,-3.5791,-3.5791,-3.5791,-3.5791,-3.5791,-3.5791,-3.5791,-3.5791,-3.5791,-3.5791,-3.5791,-3.5791,-3.5791,-3.5791,-3.5791,-3.5791,-3.5791,-3.5791,-3.5791,-3.5791,-3.5791,-3.5791,-3.5791,-3.5799,-3.5799,-3.5799,-3.5834,-3.585,-2.4936,-2.516,-2.518,-2.5258,-2.537,-2.5398,-2.5361,-2.5313,-2.5313,-2.5659,-2.5986,-2.5543,-2.6083,-2.7296,-2.7862,-2.8551,-2.9477,-3.0258,-3.0728,-3.0986,-3.1699,-3.2265,-3.3027,-3.3944,-3.4803,-3.5271,-3.5642,-3.601,-3.601,-3.601,-3.601,-3.601,-3.601,-3.601,-3.6023,-3.6035,-3.62,-3.6495,-3.6645,-3.6637,-3.6637,-3.6631,-3.6207,-3.5829,-3.5169,-3.5277,-3.5297,-3.4897,-3.5219,-3.5405,-3.5463,-3.5773,-3.5773,-3.5773,-3.5801,-3.5801,-3.5791,-3.581,-3.5801,-3.5791,-3.5791,-3.5791,-3.5791,-3.5791,-3.5791,-3.5791,-3.5791,-3.5791,-3.5791,-3.5791,-3.5791,-3.5791,-3.5791,-3.5791,-3.581,-3.5801,-3.5775,-3.5718,-3.5688,-3.5637,-3.5648,-3.5708,-3.5766,-3.5773,-3.5791,-3.5791,-3.5791,-3.5791,-3.5791,-3.5791,-3.5791,-3.5791,-3.5791,-3.5791,-3.581,-3.5829,-3.5849,-3.5829,-3.5791,-3.5791,-3.581,-3.5829,-3.5868,-3.5829,-3.5791,-3.5791,-3.5791,-3.5791,-3.5791,-3.5791,-3.5791,-3.5791,-3.5791,-3.5799,-3.5807,-2.508,-2.5311,-2.5303,-2.5341,-2.5387,-2.5388,-2.5361,-2.5313,-2.5322,-2.5322,-2.5361,-2.5322,-2.5801,-2.6668,-2.7372,-2.8314,-2.9192,-3.0018,-3.0602,-3.0841,-3.1699,-3.2422,-3.33,-3.4276,-3.5037,-3.5681,-3.601,-3.601,-3.601,-3.601,-3.601,-3.601,-3.601,-3.601,-3.5999,-3.5956,-3.6048,-3.6126,-3.6117,-3.6047,-3.6002,-3.5896,-3.5791,-3.581,-3.5638,-3.5532,-3.5124,-3.5115,-3.5426,-3.5165,-3.5223,-3.5727,-3.5747,-3.5766,-3.5775,-3.5784,-3.5773,-3.5773,-3.5793,-3.5801,-3.5791,-3.5791,-3.5791,-3.5791,-3.5791,-3.5791,-3.5791,-3.5791,-3.5791,-3.5791,-3.5791,-3.5791,-3.5791,-3.5782,-3.5773,-3.5775,-3.5737,-3.5657,-3.557,-3.5546,-3.5546,-3.5623,-3.5667,-3.5679,-3.5669,-3.5727,-3.5736,-3.5736,-3.5736,-3.5736,-3.5754,-3.5793,-3.6101,-3.6101,-3.5888,-3.5935,-3.5935,-3.5907,-3.5888,-3.6062,-3.6265,-3.6148,-3.5954,-3.6012,-3.609,-3.5868,-3.5791,-3.5791,-3.581,-3.5791,-3.5791,-3.5791,-3.581,-3.5888,-3.5791,-2.5094,-2.5311,-2.5341,-2.5378,-2.539,-2.5378,-2.5389,-2.537,-2.5376,-2.5374,-2.5401,-2.5421,-2.5604,-2.6198,-2.6985,-2.7887,-2.8723,-2.965,-3.0208,-3.0819,-3.1602,-3.2383,-3.3358,-3.412,-3.5076,-3.5757,-3.601,-3.6013,-3.6013,-3.6013,-3.6013,-3.6013,-3.6013,-3.6013,-3.5994,-3.5954,-3.5951,-3.5933,-3.5853,-3.5842,-3.5873,-3.5846,-3.5793,-3.5793,-3.5726,-3.563,-3.5397,-3.5485,-3.5611,-3.5514,-3.5592,-3.5708,-3.5708,-3.5747,-3.5757,-3.5718,-3.5843,-3.5891,-3.5881,-3.587,-3.5801,-3.5791,-3.5791,-3.5791,-3.5791,-3.5791,-3.5791,-3.5791,-3.5791,-3.5791,-3.5791,-3.5791,-3.5791,-3.5773,-3.5756,-3.5737,-3.5697,-3.5577,-3.5457,-3.5443,-3.5443,-3.5496,-3.5558,-3.5574,-3.5554,-3.5554,-3.5574,-3.5574,-3.5554,-3.5566,-3.563,-3.5805,-3.6539,-3.6587,-3.6218,-3.5993,-3.5993,-3.611,-3.6148,-3.6401,-3.6692,-3.6615,-3.6479,-3.644,-3.642,-3.6304,-3.6101,-3.581,-3.581,-3.6062,-3.6043,-3.6168,-3.6168,-3.6226,-3.5985,-2.5088,-2.5262,-2.537,-2.5404,-2.5393,-2.5397,-2.5398,-2.5388,-2.5382,-2.5414,-2.5534,-2.5846,-2.6249,-2.6573,-2.7273,-2.7823,-2.8652,-2.933,-2.9804,-3.0431,-3.1231,-3.1973,-3.2871,-3.3729,-3.4527,-3.5249,-3.5835,-3.6013,-3.6018,-3.6003,-3.6003,-3.6005,-3.6005,-3.6003,-3.5984,-3.5956,-3.591,-3.5885,-3.5799,-3.5801,-3.5853,-3.5805,-3.5766,-3.5747,-3.5737,-3.5592,-3.5369,-3.5321,-3.5137,-3.5175,-3.5185,-3.5272,-3.5582,-3.6289,-3.658,-3.6455,-3.6348,-3.629,-3.6212,-3.6036,-3.5832,-3.5791,-3.5791,-3.5791,-3.5791,-3.5791,-3.5791,-3.5791,-3.5791,-3.5791,-3.5791,-3.5791,-3.5765,-3.5757,-3.5708,-3.5678,-3.5565,-3.5422,-3.535,-3.53,-3.5364,-3.5435,-3.5483,-3.5526,-3.5526,-3.547,-3.5477,-3.5399,-3.5399,-3.5386,-3.5463,-3.5631,-3.6258,-3.6463,-3.6024,-3.5954,-3.6032,-3.6168,-3.6323,-3.6615,-3.6848,-3.6984,-3.7023,-3.7197,-3.7178,-3.6945,-3.6712,-3.6343,-3.6673,-3.7159,-3.6906,-3.6615,-3.6615,-3.6751,-3.6887,-2.5069,-2.5203,-2.533,-2.5385,-2.5387,-2.5379,-2.5388,-2.5434,-2.5418,-2.5464,-2.5622,-2.6401,-2.7279,-2.7647,-2.7913,-2.8561,-2.8962,-2.9045,-2.934,-2.9904,-3.0606,-3.1526,-3.227,-3.2914,-3.3851,-3.4805,-3.5584,-3.5882,-3.6005,-3.601,-3.5994,-3.5976,-3.5976,-3.5976,-3.5937,-3.5872,-3.5811,-3.5814,-3.5785,-3.5746,-3.5746,-3.5728,-3.5718,-3.5718,-3.564,-3.5262,-3.5068,-3.4923,-3.468,-3.4747,-3.5037,-3.5319,-3.5755,-3.6646,-3.713,-3.714,-3.6851,-3.6852,-3.6746,-3.6192,-3.5957,-3.5791,-3.5791,-3.5791,-3.5791,-3.5791,-3.5791,-3.5782,-3.5782,-3.5791,-3.5791,-3.5959,-3.5922,-3.5727,-3.5695,-3.5589,-3.5435,-3.5423,-3.5487,-3.542,-3.5465,-3.5541,-3.5547,-3.5597,-3.5391,-3.5364,-3.5336,-3.5254,-3.5224,-3.5212,-3.5224,-3.5311,-3.5643,-3.5709,-3.5698,-3.5997,-3.6163,-3.611,-3.6284,-3.6673,-3.7081,-3.7489,-3.7858,-3.8188,-3.811,-3.7528,-3.7236,-3.6945,-3.745,-3.8033,-3.7741,-3.7392,-3.7566,-3.7761,-3.8149,-2.505,-2.5135,-2.5313,-2.5397,-2.5397,-2.5341,-2.5387,-2.5476,-2.5483,-2.5525,-2.5775,-2.6431,-2.6802,-2.6203,-2.6183,-2.6915,-2.8286,-2.8522,-2.9086,-2.9669,-3.0489,-3.1315,-3.2002,-3.257,-3.3372,-3.4502,-3.5572,-3.5918,-3.5993,-3.5996,-3.5952,-3.5916,-3.5912,-3.5885,-3.5849,-3.58,-3.5774,-3.5766,-3.5742,-3.5715,-3.5725,-3.5716,-3.5718,-3.5718,-3.5688,-3.56,-3.557,-3.5599,-3.5502,-3.5452,-3.5452,-3.5811,-3.6353,-3.6933,-3.7514,-3.7699,-3.7422,-3.7103,-3.6833,-3.6221,-3.5899,-3.5791,-3.5791,-3.5791,-3.5791,-3.5791,-3.5773,-3.5737,-3.5737,-3.5773,-3.5881,-3.6386,-3.6499,-3.596,-3.5732,-3.5507,-3.5308,-3.5835,-3.6241,-3.6131,-3.6054,-3.6052,-3.5997,-3.5709,-3.5086,-3.5051,-3.507,-3.5016,-3.498,-3.498,-3.5016,-3.5083,-3.5165,-3.5339,-3.5523,-3.6112,-3.6327,-3.6221,-3.6354,-3.6956,-3.7577,-3.8227,-3.8596,-3.8839,-3.8373,-3.7702,-3.7508,-3.7664,-3.7946,-3.8384,-3.8343,-3.8227,-3.846,-3.8712,-3.9082]}]]